Date StartTime U_cm/s V_cm/s W_cm/s Ustd_cm/s Vstd_cm/s Wstd_cm/s Uvar_(cm/s)^2 Vvar_(cm/s)^2 Wvar_(cm/s)^2 KE_(m/s)^2 TurbulentKE_(m/s)^2 HorizWindSpeed_cm/s FrictionSpeec_cm/s DragCoef SpeedOfSound_m/s SonicTemperature_C Pressure_mb 
08/29/2013  00:00:00      -66.119       -0.273       -8.713       21.004       22.554       21.600      441.164      508.685      466.551        0.293        0.071       66.119       15.052        0.052      344.207       20.861      862.090
08/29/2013  00:01:00      -93.821       22.676       -7.023       20.715       15.322       12.486      429.113      234.764      155.906        0.509        0.041       96.523        7.460        0.006      344.237       20.914      862.094
08/29/2013  00:02:00      -59.150       33.777       -9.675       18.991       32.593       14.876      360.650     1062.322      221.288        0.319        0.082       68.115       13.966        0.042      344.306       21.031      862.093
08/29/2013  00:03:00      -66.350       48.090      -12.819       12.981       22.178       11.048      168.518      491.856      122.054        0.383        0.039       81.945        9.411        0.013      344.396       21.185      862.097
08/29/2013  00:04:00      -69.228       43.164      -12.045       19.912       30.799       15.440      396.476      948.549      238.388        0.419        0.079       81.582       13.566        0.028      344.375       21.148      862.100
08/29/2013  00:05:00      -53.679       17.200       -5.613       25.442       20.324       16.192      647.298      413.060      262.175        0.227        0.066       56.368       15.124        0.072      344.311       21.039      862.099
08/29/2013  00:06:00      -59.186       20.766       -4.582       23.515       30.532       19.523      552.956      932.203      381.134        0.291        0.093       62.724       19.050        0.092      344.174       20.804      862.107
08/29/2013  00:07:00      -65.379       69.827      -15.981       25.325       26.003       17.355      641.357      676.175      301.212        0.551        0.081       95.657       16.151        0.029      344.306       21.030      862.121
08/29/2013  00:08:00       -3.148       73.038       -8.814       23.614       31.786       14.333      557.621     1010.321      205.424        0.360        0.089       73.105       12.980        0.032      344.268       20.967      862.128
08/29/2013  00:09:00       -1.038      138.231      -20.923       24.499       39.487       12.859      600.204     1559.203      165.358        1.094        0.116      138.235       14.211        0.011      344.261       20.955      862.125
08/29/2013  00:10:00      -24.189      142.866      -23.031       23.941       49.139       16.098      573.178     2414.609      259.132        1.239        0.162      144.900       15.202        0.011      344.540       21.431      862.116
08/29/2013  00:11:00      -25.929       98.848      -15.601       19.034       28.541       13.574      362.295      814.607      184.244        0.602        0.068      102.192       12.604        0.015      344.459       21.293      862.099
08/29/2013  00:12:00      -46.513       81.694      -14.673       21.666       23.374       15.080      469.435      546.333      227.403        0.515        0.062       94.007       13.192        0.020      344.364       21.130      862.104
08/29/2013  00:13:00      -21.388       65.802      -10.548       17.511       14.477        8.324      306.652      209.596       69.294        0.274        0.029       69.190        3.567        0.003      344.445       21.269      862.125
08/29/2013  00:14:00      -40.320        5.372       -6.776       12.431       20.308       10.059      154.540      412.432      101.184        0.118        0.033       40.676       10.490        0.067      344.185       20.825      862.136
08/29/2013  00:15:00      -45.678       60.682      -12.538       25.544       24.221       16.885      652.489      586.670      285.098        0.372        0.076       75.952       15.883        0.044      344.409       21.207      862.132
08/29/2013  00:16:00      -41.299       25.079       -6.675       14.688       14.455       10.027      215.740      208.956      100.545        0.145        0.026       48.317        7.221        0.022      344.369       21.138      862.121
08/29/2013  00:17:00      -33.916       -8.018       -8.474        7.316       14.906        7.354       53.525      222.198       54.085        0.081        0.016       34.851        2.639        0.006      344.353       21.115      862.123
08/29/2013  00:18:00      -50.826       -7.064      -14.071       27.370       33.362       17.548      749.110     1113.052      307.928        0.250        0.109       51.314       16.161        0.099      344.344       21.099      862.132
08/29/2013  00:19:00      -80.252       56.479       -9.779       48.220       60.791       30.945     2325.206     3695.556      957.604        0.835        0.349       98.134       36.806        0.141      344.259       20.949      862.139
08/29/2013  00:20:00      -93.880       66.577      -17.757       49.848       60.832       23.103     2484.813     3700.560      533.766        1.014        0.336      115.091       31.371        0.074      344.315       21.046      862.146
08/29/2013  00:21:00      -90.387      103.107      -23.273       31.436       21.551       16.602      988.230      464.435      275.635        1.054        0.086      137.116       16.410        0.014      344.503       21.368      862.154
08/29/2013  00:22:00      -88.887       58.876      -11.159       32.453       33.831       18.818     1053.192     1144.528      354.113        0.702        0.128      106.617       16.077        0.023      344.361       21.126      862.161
08/29/2013  00:23:00     -137.671       50.919      -10.751       37.439       23.792       20.771     1401.668      566.044      431.437        1.203        0.120      146.785       17.994        0.015      344.455       21.286      862.165
08/29/2013  00:24:00     -116.620       74.455      -16.808       39.315       32.468       28.568     1545.697     1054.194      816.133        1.142        0.171      138.361       25.902        0.035      344.404       21.197      862.166
08/29/2013  00:25:00      -86.011       65.500      -10.511       30.405       34.101       24.256      924.450     1162.876      588.353        0.724        0.134      108.111       18.929        0.031      344.352       21.109      862.160
08/29/2013  00:26:00      -90.056       83.161      -19.244       22.670       33.501       17.894      513.945     1122.287      320.206        0.868        0.098      122.580       13.495        0.012      344.338       21.085      862.155
08/29/2013  00:27:00      -85.031      133.133      -24.484       42.148       46.792       23.482     1776.442     2189.464      551.396        1.503        0.226      157.971       24.356        0.024      344.380       21.158      862.150
08/29/2013  00:28:00     -103.280       81.026      -22.714       48.677       45.320       23.992     2369.473     2053.920      575.633        1.137        0.250      131.271       22.859        0.030      344.343       21.094      862.144
08/29/2013  00:29:00      -78.306       89.541      -11.596       42.652       53.476       22.541     1819.209     2859.637      508.095        0.973        0.259      118.951       17.630        0.022      344.267       20.964      862.156
08/29/2013  00:30:00      -49.168       48.525      -20.702       28.227       32.710       19.681      796.784     1069.936      387.343        0.373        0.113       69.080       12.456        0.033      344.312       21.041      862.162
08/29/2013  00:31:00     -113.111       41.671      -17.128       57.306       53.053       36.870     3283.970     2814.643     1359.367        1.114        0.373      120.543       31.236        0.067      344.267       20.964      862.155
08/29/2013  00:32:00      -95.456       73.456      -12.948       37.752       53.277       29.427     1425.226     2838.426      865.925        0.990        0.256      120.448       26.649        0.049      344.177       20.810      862.150
08/29/2013  00:33:00     -165.604       16.679      -21.552       39.805       39.125       21.136     1584.441     1530.775      446.745        1.586        0.178      166.442       15.362        0.009      344.173       20.803      862.157
08/29/2013  00:34:00     -153.461       38.552      -25.917       39.750       38.639       22.445     1580.062     1492.977      503.798        1.464        0.179      158.229       26.833        0.029      344.192       20.836      862.174
08/29/2013  00:35:00     -103.024       42.485      -13.908       54.898       42.092       33.309     3013.770     1771.707     1109.461        0.925        0.295      111.440       23.654        0.045      344.133       20.735      862.183
08/29/2013  00:36:00     -127.576        2.735       -5.928       29.603       44.978       21.409      876.330     2023.040      458.351        0.984        0.168      127.606       12.348        0.009      344.109       20.695      862.191
08/29/2013  00:37:00     -116.573       27.932       -8.610       56.248       56.732       35.227     3163.821     3218.540     1240.971        1.103        0.381      119.873       33.137        0.076      344.006       20.518      862.185
08/29/2013  00:38:00     -100.831       22.203      -15.691       54.638       48.433       27.681     2985.354     2345.797      766.230        0.850        0.305      103.246       27.295        0.070      344.017       20.539      862.181
08/29/2013  00:39:00     -123.369       90.155      -27.549       49.753       55.459       32.194     2475.392     3075.694     1036.454        1.535        0.329      152.800       32.718        0.046      344.047       20.589      862.179
08/29/2013  00:40:00     -112.853       75.493      -18.193       37.810       54.630       29.683     1429.578     2984.386      881.063        1.203        0.265      135.776       27.272        0.040      344.014       20.531      862.180
08/29/2013  00:41:00     -114.431       69.194      -18.923       43.934       60.297       29.972     1930.170     3635.724      898.351        1.235        0.323      133.725       23.709        0.031      344.020       20.542      862.172
08/29/2013  00:42:00     -133.012       63.625      -16.316       46.297       38.219       27.725     2143.420     1460.674      768.684        1.319        0.219      147.446       23.718        0.026      343.981       20.475      862.165
08/29/2013  00:43:00     -112.466       87.497      -23.429       51.616       76.389       28.949     2664.208     5835.264      838.031        1.509        0.467      142.493       30.931        0.047      344.038       20.571      862.163
08/29/2013  00:44:00      -70.125       15.851       -7.078       41.454       31.714       17.565     1718.399     1005.756      308.530        0.413        0.152       71.894       17.182        0.057      343.903       20.342      862.174
08/29/2013  00:45:00      -87.082        1.157      -11.736       38.739       21.840       12.248     1500.698      476.995      150.006        0.492        0.106       87.090        6.262        0.005      343.921       20.372      862.183
08/29/2013  00:46:00     -103.195        4.000      -10.278       62.572       62.839       32.884     3915.269     3948.736     1081.382        0.986        0.447      103.273       31.892        0.095      343.901       20.337      862.183
08/29/2013  00:47:00     -138.139       66.028      -20.749       46.765       60.529       34.430     2186.957     3663.771     1185.419        1.545        0.352      153.108       33.700        0.048      343.990       20.491      862.182
08/29/2013  00:48:00     -104.548       43.605       -8.199       42.980       36.126       23.799     1847.275     1305.105      566.382        0.831        0.186      113.277       21.822        0.037      344.016       20.535      862.189
08/29/2013  00:49:00     -108.652       43.557      -10.884       41.235       37.941       32.603     1700.339     1439.499     1062.933        0.901        0.210      117.057       21.078        0.032      344.004       20.514      862.193
08/29/2013  00:50:00      -78.639       23.803      -15.238       30.213       21.793       19.516      912.833      474.937      380.866        0.438        0.088       82.162       13.284        0.026      343.984       20.481      862.198
08/29/2013  00:51:00     -103.242       29.558      -12.023       29.788       36.400       18.823      887.314     1324.970      354.315        0.712        0.128      107.390       13.621        0.016      343.932       20.391      862.196
08/29/2013  00:52:00     -102.509       -3.604      -15.658       24.376       33.621       12.871      594.173     1130.367      165.660        0.633        0.095      102.572       10.954        0.011      343.849       20.251      862.195
08/29/2013  00:53:00     -126.037      -21.362      -14.249       26.591       32.727       17.252      707.071     1071.027      297.644        0.931        0.104      127.835       10.463        0.007      343.855       20.261      862.207
08/29/2013  00:54:00      -83.710       16.112      -12.171       29.089       27.489       15.998      846.147      755.648      255.943        0.464        0.093       85.247        7.479        0.008      343.712       20.016      862.211
08/29/2013  00:55:00     -116.794       -5.643      -10.928       41.501       20.353       19.265     1722.312      414.263      371.141        0.815        0.125      116.930       20.594        0.031      343.677       19.957      862.206
08/29/2013  00:56:00     -147.084      -38.859       -5.285       52.438       36.698       25.722     2749.693     1346.724      661.617        1.396        0.238      152.131       25.167        0.027      343.662       19.930      862.204
08/29/2013  00:57:00     -133.877      -30.697       -4.772       48.196       33.120       22.568     2322.832     1096.942      509.332        1.141        0.196      137.351       17.499        0.016      343.605       19.836      862.210
08/29/2013  00:58:00     -139.295       -2.668      -11.749       29.559       30.636       22.867      873.731      938.574      522.920        1.094        0.117      139.320       15.573        0.012      343.592       19.812      862.210
08/29/2013  00:59:00     -131.860       -3.768      -18.409       49.806       26.149       20.372     2480.607      683.777      415.005        1.066        0.179      131.914       22.071        0.028      343.598       19.823      862.201
08/29/2013  01:00:00     -107.339        9.304       -8.775       25.099       26.251       18.149      629.943      689.138      329.386        0.667        0.082      107.742       14.677        0.019      343.586       19.802      862.194
08/29/2013  01:01:00     -106.318      -11.185      -11.343       33.283       33.776       16.057     1107.764     1140.843      257.836        0.703        0.125      106.905       19.746        0.034      343.566       19.768      862.203
08/29/2013  01:02:00     -109.813      -11.832       -2.532       37.532       30.960       24.295     1408.678      958.541      590.248        0.758        0.148      110.448       23.533        0.045      343.607       19.837      862.207
08/29/2013  01:03:00      -90.192       -2.740       -8.748       32.700       30.521       23.305     1069.300      931.524      543.118        0.538        0.127       90.234       18.721        0.043      343.600       19.825      862.208
08/29/2013  01:04:00      -96.406        2.672      -10.508       26.652       36.940       17.955      710.313     1364.593      322.394        0.590        0.120       96.443        8.899        0.009      343.618       19.856      862.217
08/29/2013  01:05:00     -113.787        5.337      -16.855       22.806       34.253       19.570      520.109     1173.248      382.967        0.767        0.104      113.912       12.447        0.012      343.630       19.878      862.219
08/29/2013  01:06:00      -94.270       14.997       -7.083       24.133       52.438       20.945      582.384     2749.771      438.702        0.647        0.189       95.456       16.113        0.028      343.680       19.962      862.223
08/29/2013  01:07:00     -152.311      -16.671      -16.207       39.279       36.890       23.687     1542.821     1360.838      561.078        1.360        0.173      153.220       20.001        0.017      343.557       19.752      862.233
08/29/2013  01:08:00     -124.088      -35.049      -12.327       43.628       36.638       26.364     1903.398     1342.346      695.043        1.036        0.197      128.943       25.260        0.038      343.579       19.790      862.248
08/29/2013  01:09:00     -112.045       12.904      -18.920       36.032       54.835       20.080     1298.292     3006.823      403.226        0.889        0.235      112.785       22.410        0.039      343.608       19.838      862.255
08/29/2013  01:10:00     -135.171      -38.823      -22.254       45.086       40.569       24.320     2032.750     1645.883      591.477        1.227        0.214      140.636       27.840        0.039      343.553       19.743      862.251
08/29/2013  01:11:00     -119.964      -27.854      -12.513       23.042       33.313       18.678      530.940     1109.759      348.879        0.866        0.099      123.155        7.059        0.003      343.556       19.751      862.243
08/29/2013  01:12:00     -121.000      -20.995       -6.212       32.607       37.536       19.812     1063.192     1408.939      392.534        0.899        0.143      122.808       15.363        0.016      343.476       19.614      862.253
08/29/2013  01:13:00     -169.360       -8.509      -16.353       57.902       35.918       26.138     3352.619     1290.091      683.214        1.717        0.266      169.574       25.075        0.022      343.482       19.623      862.260
08/29/2013  01:14:00     -185.166       24.763      -21.122       59.432       32.508       26.344     3532.199     1056.748      694.026        2.031        0.264      186.815       28.368        0.023      343.538       19.718      862.254
08/29/2013  01:15:00     -150.181       35.724      -15.489       31.854       34.000       22.046     1014.657     1156.024      486.032        1.336        0.133      154.371       16.789        0.012      343.644       19.900      862.246
08/29/2013  01:16:00     -122.184       43.631      -20.427       46.085       53.002       28.690     2123.838     2809.225      823.106        1.150        0.288      129.740       16.804        0.017      343.629       19.875      862.242
08/29/2013  01:17:00      -95.845        9.458      -16.892       31.138       56.750       18.325      969.603     3220.540      335.821        0.704        0.226       96.310       18.229        0.036      343.610       19.844      862.242
08/29/2013  01:18:00      -86.947       48.123       -1.980       36.543       67.232       30.274     1335.416     4520.131      916.511        0.832        0.339       99.376       25.181        0.064      343.651       19.914      862.235
08/29/2013  01:19:00      -91.077      105.518      -13.393       39.426       53.407       31.666     1554.445     2852.314     1002.750        1.251        0.270      139.388       29.221        0.044      343.840       20.234      862.231
08/29/2013  01:20:00     -101.547       77.114      -14.693       31.945       35.761       24.664     1020.509     1278.821      608.336        0.969        0.145      127.508       18.322        0.021      343.782       20.135      862.230
08/29/2013  01:21:00     -129.323       35.665      -12.441       40.537       23.849       24.227     1643.251      568.788      586.943        1.047        0.140      134.150       24.608        0.034      343.783       20.138      862.235
08/29/2013  01:22:00     -150.934       51.421      -27.279       39.171       43.857       28.889     1534.338     1923.396      834.585        1.523        0.215      159.453       22.590        0.020      343.773       20.121      862.240
08/29/2013  01:23:00      -81.184       11.623      -10.001       42.995       37.053       25.283     1848.537     1372.955      639.206        0.534        0.193       82.012       22.457        0.075      343.696       19.989      862.232
08/29/2013  01:24:00     -111.852       60.602      -17.294       39.981       51.531       27.245     1598.507     2655.454      742.276        1.074        0.250      127.215       28.700        0.051      343.746       20.073      862.229
08/29/2013  01:25:00     -123.307       60.725      -20.723       55.453       32.160       31.425     3075.038     1034.237      987.534        1.221        0.255      137.448       28.797        0.044      343.850       20.253      862.222
08/29/2013  01:26:00      -95.082       36.018      -14.409       23.300       38.676       18.704      542.895     1495.843      349.836        0.647        0.119      101.676        9.173        0.008      343.779       20.131      862.213
08/29/2013  01:27:00     -103.041       37.985      -12.491       40.903       39.754       21.771     1673.042     1580.371      473.972        0.797        0.186      109.820       20.549        0.035      343.791       20.152      862.199
08/29/2013  01:28:00      -99.306       72.557      -15.844       29.580       48.158       23.080      874.969     2319.155      532.685        0.955        0.186      122.988       25.167        0.042      343.789       20.148      862.201
08/29/2013  01:29:00     -108.103       57.786      -17.044       42.491       41.925       28.752     1805.476     1757.719      826.667        0.985        0.219      122.579       31.892        0.068      343.803       20.171      862.202
08/29/2013  01:30:00     -108.714       72.303      -19.982       29.663       32.523       22.866      879.881     1057.716      522.845        0.995        0.123      130.562       18.687        0.020      343.838       20.231      862.195
08/29/2013  01:31:00     -129.425       36.538      -22.133       36.270       35.417       18.228     1315.512     1254.329      332.263        1.074        0.145      134.484       13.447        0.010      343.755       20.089      862.197
08/29/2013  01:32:00     -130.510      -46.054       -6.441       31.307       28.189       21.711      980.106      794.618      471.387        1.072        0.112      138.397       13.551        0.010      343.675       19.953      862.215
08/29/2013  01:33:00     -155.536       47.867       -4.673       60.420       40.684       25.193     3650.530     1655.210      634.666        1.622        0.297      162.735       19.380        0.014      343.720       20.029      862.228
08/29/2013  01:34:00     -121.688       53.902       -8.486       36.356       22.210       25.691     1321.791      493.266      660.003        1.013        0.124      133.092       10.882        0.007      343.666       19.938      862.235
08/29/2013  01:35:00      -79.259       65.021      -13.016       27.898       32.827       25.296      778.274     1077.640      639.904        0.659        0.125      102.517       19.508        0.036      343.640       19.893      862.227
08/29/2013  01:36:00      -87.927       87.588      -11.888       42.872       44.952       30.842     1837.978     2020.725      951.257        1.018        0.240      124.108       33.095        0.071      343.725       20.039      862.217
08/29/2013  01:37:00     -120.391      119.542      -28.597       40.409       53.234       26.156     1632.920     2833.811      684.138        1.738        0.258      169.659       21.670        0.016      343.709       20.011      862.206
08/29/2013  01:38:00     -123.826       65.755      -16.270       54.840       34.156       28.667     3007.381     1166.640      821.798        1.246        0.250      140.202       28.587        0.042      343.565       19.766      862.207
08/29/2013  01:39:00     -138.412       96.940      -31.368       37.911       41.359       22.649     1437.229     1710.557      512.986        1.660        0.183      168.983       10.626        0.004      343.595       19.818      862.197
08/29/2013  01:40:00     -117.084       98.371      -23.710       33.929       36.400       25.395     1151.156     1324.950      644.883        1.353        0.156      152.923       21.464        0.020      343.667       19.939      862.198
08/29/2013  01:41:00      -96.462      105.501      -25.343       28.059       47.570       28.474      787.312     2262.928      810.774        1.247        0.193      142.952       22.576        0.025      343.626       19.870      862.192
08/29/2013  01:42:00      -60.369      111.640       -8.891       43.212       41.423       26.549     1867.293     1715.900      704.846        1.024        0.214      126.917       25.813        0.041      343.649       19.910      862.191
08/29/2013  01:43:00      -64.657       63.216       -9.269       22.428       29.956       18.682      503.007      897.390      349.030        0.501        0.087       90.426       11.409        0.016      343.537       19.718      862.188
08/29/2013  01:44:00      -48.214       47.559       -9.680       24.994       27.602       16.602      624.686      761.844      275.634        0.317        0.083       67.723       16.896        0.062      343.591       19.808      862.198
08/29/2013  01:45:00      -24.873       78.895       -5.103       31.595       23.425       13.041      998.247      548.713      170.065        0.429        0.086       82.724       10.417        0.016      343.643       19.898      862.202
08/29/2013  01:46:00       27.024       95.505      -10.010       22.697       41.555       19.249      515.136     1726.819      370.512        0.628        0.131       99.255       21.214        0.046      343.701       19.998      862.215
08/29/2013  01:47:00       10.612       89.771      -10.142       17.646       39.532       16.931      311.391     1562.798      286.673        0.522        0.108       90.396       20.208        0.050      343.639       19.893      862.216
08/29/2013  01:48:00       34.353       31.036        7.948       18.525       14.187       11.312      343.178      201.258      127.969        0.144        0.034       46.296        6.796        0.022      343.435       19.544      862.229
08/29/2013  01:49:00       16.972       61.776       -2.302       18.453       25.964       12.281      340.518      674.143      150.834        0.264        0.058       64.065       13.008        0.041      343.472       19.607      862.224
08/29/2013  01:50:00      -15.067      120.786      -12.819       20.200       20.447       11.967      408.021      418.086      143.218        0.797        0.048      121.722        9.678        0.006      343.612       19.845      862.211
08/29/2013  01:51:00      -12.398      166.768      -17.870       12.940       18.295        8.774      167.440      334.720       76.983        1.443        0.029      167.228        5.867        0.001      343.718       20.027      862.205
08/29/2013  01:52:00      -10.871      179.997      -21.126       13.388       24.167        9.384      179.247      584.047       88.067        1.691        0.043      180.325        6.276        0.001      343.861       20.270      862.204
08/29/2013  01:53:00       -1.782      170.165      -17.829       14.641       22.675        8.447      214.366      514.150       71.349        1.504        0.040      170.174        6.580        0.001      343.764       20.105      862.207
08/29/2013  01:54:00      -29.077      113.716      -13.800       17.034       33.154       12.271      290.164     1099.200      150.578        0.775        0.077      117.374        6.768        0.003      343.661       19.928      862.203
08/29/2013  01:55:00      -37.576       62.327       -8.764       18.415       28.812       17.996      339.116      830.123      323.872        0.343        0.075       72.778       16.616        0.052      343.625       19.868      862.208
08/29/2013  01:56:00       -2.276       29.391        1.863       12.706       12.642       12.456      161.449      159.808      155.151        0.067        0.024       29.479        9.020        0.094      343.646       19.905      862.209
08/29/2013  01:57:00       -5.091       19.582        6.677       17.887       16.159        9.130      319.931      261.099       83.358        0.056        0.033       20.233        8.919        0.194      343.564       19.763      862.208
08/29/2013  01:58:00      -10.376        5.511        0.369       15.471       10.523        7.121      239.338      110.739       50.709        0.027        0.020       11.749        6.952        0.350      343.539       19.721      862.216
08/29/2013  01:59:00       16.504      -12.878       11.799       16.438        9.805       11.832      270.196       96.131      139.986        0.054        0.025       20.934        2.047        0.010      343.211       19.162      862.235
08/29/2013  02:00:00       29.981       -7.188        2.772       28.667       19.440       19.942      821.776      377.897      397.670        0.128        0.080       30.831        5.379        0.030      343.020       18.837      862.250
08/29/2013  02:01:00      -17.473      -10.444       -0.884       15.251        6.799        6.092      232.584       46.230       37.111        0.037        0.016       20.356        6.395        0.099      343.100       18.974      862.269
08/29/2013  02:02:00      -55.532      -17.592       -6.517       10.543       11.563        6.691      111.156      133.699       44.776        0.186        0.014       58.252        5.021        0.007      343.370       19.435      862.296
08/29/2013  02:03:00      -26.838       -3.073       -1.341       11.788        5.362        5.840      138.957       28.751       34.107        0.047        0.010       27.013        5.457        0.041      343.310       19.332      862.312
08/29/2013  02:04:00       17.597       -4.027       10.261       30.805       14.277       17.344      948.958      203.845      300.807        0.094        0.073       18.051       14.842        0.676      343.062       18.909      862.315
08/29/2013  02:05:00       24.342      -33.732      -12.168       23.033       28.702       23.704      530.542      823.780      561.902        0.190        0.096       41.598       15.909        0.146      342.787       18.442      862.317
08/29/2013  02:06:00       24.784       11.168       13.008       26.090       28.149       24.849      680.670      792.380      617.497        0.150        0.105       27.184       16.219        0.356      342.793       18.453      862.316
08/29/2013  02:07:00       20.186       -4.530        5.828       19.363       11.009       17.485      374.912      121.205      305.708        0.063        0.040       20.688       13.613        0.433      342.831       18.515      862.314
08/29/2013  02:08:00        5.862       23.358       -6.411       18.896       18.826       12.963      357.041      354.427      168.042        0.075        0.044       24.082        2.792        0.013      343.119       19.005      862.309
08/29/2013  02:09:00       41.691       16.947        8.438       14.130       14.483       19.069      199.645      209.743      363.627        0.143        0.039       45.004        7.609        0.029      343.053       18.894      862.298
08/29/2013  02:10:00       43.666       33.664       20.611       22.872       19.668       14.600      523.120      386.837      213.157        0.229        0.056       55.136        8.490        0.024      343.032       18.859      862.286
08/29/2013  02:11:00       64.472       16.752       13.087       22.644       19.587       14.912      512.749      383.634      222.358        0.286        0.056       66.613        8.799        0.017      343.113       18.997      862.276
08/29/2013  02:12:00       46.117       35.719        5.779       25.621       10.999       10.135      656.443      120.973      102.708        0.216        0.044       58.332        7.424        0.016      343.275       19.273      862.261
08/29/2013  02:13:00        6.729       40.194        3.918       11.868       19.997       12.261      140.859      399.889      150.329        0.118        0.035       40.753       11.910        0.085      343.251       19.231      862.252
08/29/2013  02:14:00       -1.817       91.608       -9.321        8.810       11.023        6.640       77.616      121.515       44.091        0.436        0.012       91.626        4.530        0.002      343.631       19.876      862.252
08/29/2013  02:15:00       -4.074       62.197       -7.916       16.071       25.786        7.669      258.293      664.906       58.812        0.246        0.049       62.330       10.152        0.027      343.459       19.586      862.268
08/29/2013  02:16:00       19.342       33.002        4.769       19.169       39.698       12.162      367.457     1575.899      147.912        0.179        0.105       38.252       13.646        0.127      343.479       19.619      862.275
08/29/2013  02:17:00       36.050      -16.480        0.197       15.965       22.172       25.450      254.871      491.600      647.682        0.148        0.070       39.639       15.916        0.161      342.988       18.785      862.289
08/29/2013  02:18:00       17.578       -4.256       -0.327       17.242       16.409       18.277      297.296      269.249      334.047        0.061        0.045       18.086       12.032        0.443      342.986       18.779      862.296
08/29/2013  02:19:00       26.490       -5.085       16.261       18.839       11.181       17.526      354.903      125.015      307.149        0.089        0.039       26.974        9.110        0.114      343.110       18.989      862.290
08/29/2013  02:20:00       23.984        9.026       -3.115       17.483       24.489       17.927      305.643      599.720      321.372        0.095        0.061       25.626       10.471        0.167      343.248       19.224      862.291
08/29/2013  02:21:00        3.780       24.624       -0.993       16.489       13.819        8.118      271.878      190.971       65.905        0.058        0.026       24.913        8.019        0.104      343.633       19.884      862.280
08/29/2013  02:22:00        1.686        0.285       -1.141       23.864       24.669       15.229      569.473      608.540      231.927        0.071        0.070        1.710        7.533       19.401      343.324       19.356      862.270
08/29/2013  02:23:00       -9.172      -20.850        2.937       10.629        9.624        7.802      112.965       92.615       60.876        0.040        0.013       22.778        4.362        0.037      342.930       18.684      862.283
08/29/2013  02:24:00      -44.047       -6.382       -9.040       23.694       11.019        7.050      561.403      121.413       49.696        0.140        0.037       44.506        9.652        0.047      343.025       18.846      862.287
08/29/2013  02:25:00      -71.195       -8.905      -11.359       20.053       13.750       10.994      402.134      189.053      120.869        0.299        0.036       71.749       10.138        0.020      342.850       18.548      862.292
08/29/2013  02:26:00      -45.960       -8.402       -7.928       18.286       13.459        8.648      334.363      181.157       74.779        0.142        0.030       46.721        8.595        0.034      342.860       18.566      862.287
08/29/2013  02:27:00      -59.709       12.880       -9.359       20.633       10.874       10.233      425.708      118.252      104.715        0.223        0.032       61.082        9.859        0.026      342.893       18.621      862.284
08/29/2013  02:28:00      -44.468        8.478       -3.982       22.113       16.445       12.371      488.993      270.437      153.050        0.149        0.046       45.269       10.678        0.056      342.795       18.453      862.296
08/29/2013  02:29:00     -110.348        1.843      -17.066       34.048       17.808       19.690     1159.291      317.121      387.702        0.717        0.093      110.364       17.938        0.026      342.628       18.171      862.295
08/29/2013  02:30:00      -81.841       -4.797      -19.844       24.947       23.713       16.684      622.333      562.312      278.340        0.429        0.073       81.981       12.634        0.024      342.599       18.121      862.303
08/29/2013  02:31:00      -70.739        8.750      -17.249       34.137       24.227       16.139     1165.349      586.966      260.459        0.370        0.101       71.278        8.284        0.014      342.602       18.125      862.316
08/29/2013  02:32:00      -72.087      -18.602      -19.130       22.215       26.509       19.912      493.518      702.735      396.493        0.375        0.080       74.449       13.651        0.034      342.636       18.182      862.348
08/29/2013  02:33:00      -73.864      -10.611       -5.261       20.343       15.228       11.008      413.829      231.882      121.181        0.318        0.038       74.622        8.821        0.014      342.538       18.018      862.388
08/29/2013  02:34:00      -55.211      -16.704       -1.979       13.782       15.368        9.358      189.930      236.167       87.578        0.192        0.026       57.683        7.241        0.016      342.607       18.135      862.410
08/29/2013  02:35:00      -40.631       -2.909       -4.523       11.220        6.183        6.827      125.887       38.230       46.611        0.095        0.011       40.735        5.575        0.019      342.616       18.149      862.397
08/29/2013  02:36:00      -65.786       19.048       -7.434       19.889       16.023        8.740      395.587      256.740       76.388        0.274        0.036       68.488        7.818        0.013      342.686       18.268      862.363
08/29/2013  02:37:00      -68.378       52.409      -17.150       10.585       16.254        8.274      112.047      264.188       68.461        0.408        0.022       86.153        8.287        0.009      343.041       18.874      862.341
08/29/2013  02:38:00      -72.272      -12.434      -10.773       14.506       17.147        9.037      210.432      294.020       81.666        0.304        0.029       73.333        6.748        0.008      342.755       18.386      862.337
08/29/2013  02:39:00     -127.766      -64.073      -19.324       25.730       18.614       12.660      662.039      346.498      160.265        1.099        0.058      142.931        9.279        0.004      342.473       17.908      862.338
08/29/2013  02:40:00     -106.651      -25.688        1.519       34.695       33.795       19.393     1203.743     1142.080      376.086        0.738        0.136      109.701       19.092        0.030      342.367       17.726      862.345
08/29/2013  02:41:00      -96.191       -4.168       -3.023       26.100       21.901       13.699      681.227      479.667      187.657        0.531        0.067       96.282       14.605        0.023      342.508       17.967      862.342
08/29/2013  02:42:00      -84.898       19.844       -8.803       20.537       15.212        8.939      421.757      231.419       79.906        0.421        0.037       87.186        3.926        0.002      342.586       18.100      862.341
08/29/2013  02:43:00      -97.523      -10.233       -4.159       28.338       18.279       11.876      803.060      334.106      141.032        0.546        0.064       98.059       10.705        0.012      342.629       18.172      862.340
08/29/2013  02:44:00      -80.126       17.418      -11.166       47.470       29.857       20.520     2253.442      891.432      421.063        0.521        0.178       81.997       21.507        0.069      342.464       17.892      862.343
08/29/2013  02:45:00      -98.425       15.194      -13.719       37.578       27.104       15.614     1412.077      734.621      243.783        0.625        0.120       99.590       12.138        0.015      342.530       18.004      862.360
08/29/2013  02:46:00     -129.563       -8.691       -6.982       42.472       24.672       16.357     1803.886      608.700      267.554        0.979        0.134      129.854       18.835        0.021      342.559       18.054      862.372
08/29/2013  02:47:00     -121.815      -13.151      -16.361       44.596       31.332       19.626     1988.820      981.676      385.180        0.932        0.168      122.523       22.804        0.035      342.507       17.966      862.387
08/29/2013  02:48:00     -144.907       11.569      -11.780       16.488       22.072       11.075      271.856      487.159      122.663        1.108        0.044      145.368        8.989        0.004      342.376       17.742      862.388
08/29/2013  02:49:00     -117.805        8.957      -10.941       25.323       16.115       13.111      641.252      259.693      171.897        0.758        0.054      118.145        8.975        0.006      342.515       17.980      862.375
08/29/2013  02:50:00      -95.832       26.475       -6.356       29.481       17.910       11.140      869.124      320.785      124.089        0.562        0.066       99.422        6.186        0.004      342.568       18.070      862.358
08/29/2013  02:51:00      -90.545       18.785       -7.854       58.493       32.929       15.854     3421.412     1084.331      251.351        0.668        0.238       92.473       19.970        0.047      342.524       17.994      862.360
08/29/2013  02:52:00     -165.936      -37.552      -19.962       25.039       32.376       17.461      626.951     1048.175      304.887        1.566        0.099      170.132       10.680        0.004      342.517       17.983      862.375
08/29/2013  02:53:00     -165.406      -13.313      -16.129       31.392       31.721       21.135      985.465     1006.205      446.681        1.512        0.122      165.941       17.307        0.011      342.410       17.800      862.381
08/29/2013  02:54:00     -166.369      -20.539      -18.698       29.201       26.239       16.721      852.679      688.480      279.606        1.513        0.091      167.632       13.259        0.006      342.331       17.665      862.372
08/29/2013  02:55:00     -170.792       -8.858      -16.098       31.590       27.572       18.618      997.948      760.189      346.636        1.581        0.105      171.021       10.318        0.004      342.308       17.627      862.367
08/29/2013  02:56:00     -146.764        4.813      -22.074       29.048       38.575       21.421      843.765     1488.034      458.839        1.242        0.140      146.843       13.074        0.008      342.370       17.731      862.358
08/29/2013  02:57:00     -131.293       -3.977      -18.403       31.506       42.361       19.553      992.608     1794.496      382.311        1.038        0.158      131.353       10.470        0.006      342.374       17.739      862.343
08/29/2013  02:58:00     -121.743      -16.816      -15.890       36.478       25.780       18.714     1330.674      664.615      350.210        0.885        0.117      122.898       15.323        0.016      342.343       17.686      862.333
08/29/2013  02:59:00     -142.280       -4.872      -19.413       31.016       30.997       22.330      961.968      960.787      498.644        1.153        0.121      142.363       19.613        0.019      342.387       17.761      862.316
08/29/2013  03:00:00     -169.511       -8.858      -11.314       51.681       33.525       22.739     2670.936     1123.935      517.064        1.663        0.216      169.742       16.727        0.010      342.318       17.642      862.315
08/29/2013  03:01:00     -198.434      -48.616      -18.424       53.739       35.786       26.597     2887.891     1280.658      707.387        2.348        0.244      204.303       23.442        0.013      342.224       17.482      862.327
08/29/2013  03:02:00     -169.723       13.254      -20.318       50.952       49.343       35.953     2596.106     2434.763     1292.634        1.786        0.316      170.240       29.167        0.029      342.264       17.551      862.340
08/29/2013  03:03:00     -130.525       45.451      -13.347       38.215       31.749       25.102     1460.371     1007.973      630.119        1.119        0.155      138.213       17.009        0.015      342.444       17.859      862.338
08/29/2013  03:04:00      -81.732      -19.110       -7.678       32.201       41.030       21.916     1036.922     1683.465      480.307        0.515        0.160       83.937       20.774        0.061      342.332       17.667      862.335
08/29/2013  03:05:00     -113.699       22.454      -10.215       49.187       37.731       23.995     2419.354     1423.603      575.780        0.898        0.221      115.895       17.706        0.023      342.322       17.650      862.341
08/29/2013  03:06:00     -145.172       35.216      -15.630       31.346       26.379       20.088      982.551      695.838      403.537        1.232        0.104      149.382        7.876        0.003      342.384       17.756      862.345
08/29/2013  03:07:00     -112.120        1.486       -8.061       32.027       31.822       25.925     1025.737     1012.653      672.107        0.767        0.136      112.130       18.857        0.028      342.402       17.786      862.343
08/29/2013  03:08:00      -98.082      -13.388      -13.887       16.937       29.565       18.658      286.878      874.087      348.127        0.575        0.075       98.991       13.404        0.018      342.352       17.701      862.352
08/29/2013  03:09:00      -91.488       12.446      -10.885       30.774       38.550       19.766      947.052     1486.110      390.714        0.573        0.141       92.331       17.349        0.035      342.265       17.555      862.357
08/29/2013  03:10:00     -102.109      -15.921      -12.859       26.740       32.056       20.857      715.054     1027.597      435.031        0.651        0.109      103.343       12.928        0.016      342.230       17.493      862.357
08/29/2013  03:11:00      -98.339      -11.262       -8.327       37.434       22.841       22.541     1401.274      521.719      508.107        0.615        0.122       98.982       24.142        0.059      342.171       17.395      862.371
08/29/2013  03:12:00      -93.082      -20.154       -1.979       22.918       24.302       14.428      525.251      590.577      208.168        0.520        0.066       95.239       12.690        0.018      342.246       17.521      862.378
08/29/2013  03:13:00      -70.375      -43.804        1.028       21.557       24.360       16.113      464.690      593.419      259.615        0.409        0.066       82.894       12.389        0.022      342.229       17.492      862.364
08/29/2013  03:14:00     -112.238       13.316      -10.366       19.736       17.365        7.693      389.500      301.556       59.184        0.682        0.038      113.025        5.586        0.002      342.244       17.518      862.355
08/29/2013  03:15:00     -150.032       16.310      -14.765       23.025       15.752        8.159      530.158      248.110       66.564        1.192        0.042      150.916        7.018        0.002      342.289       17.595      862.364
08/29/2013  03:16:00     -156.328       40.887      -19.134       42.074       26.251       16.484     1770.183      689.139      271.707        1.460        0.137      161.586       16.589        0.011      342.341       17.683      862.358
08/29/2013  03:17:00     -163.718       40.985      -18.909       25.815       24.280       19.758      666.413      589.524      390.390        1.524        0.082      168.770       13.936        0.007      342.329       17.663      862.345
08/29/2013  03:18:00     -141.164       42.572      -13.259       34.714       24.604       16.861     1205.072      605.350      284.300        1.200        0.105      147.443       10.893        0.005      342.320       17.646      862.341
08/29/2013  03:19:00     -136.351       20.672      -14.166       32.771       23.544       16.206     1073.949      554.307      262.634        1.055        0.095      137.910       13.160        0.009      342.296       17.605      862.350
08/29/2013  03:20:00     -121.835        1.528      -18.814       44.876       29.858       22.628     2013.813      891.472      512.036        0.931        0.171      121.845       22.697        0.035      342.185       17.418      862.358
08/29/2013  03:21:00     -100.828      -16.767      -11.392       51.443       31.981       18.537     2646.375     1022.813      343.604        0.729        0.201      102.213       22.033        0.046      342.135       17.334      862.375
08/29/2013  03:22:00      -66.788        8.317       -8.637       26.571       33.697       18.973      706.034     1135.500      359.986        0.340        0.110       67.304        9.099        0.018      342.102       17.276      862.382
08/29/2013  03:23:00      -59.391        1.929       -6.588       26.453       25.349       17.392      699.759      642.574      302.482        0.261        0.082       59.422       18.268        0.095      342.083       17.247      862.380
08/29/2013  03:24:00      -47.440        2.869        0.289       39.508       22.386       16.287     1560.858      501.124      265.253        0.229        0.116       47.527       20.157        0.180      342.030       17.155      862.376
08/29/2013  03:25:00      -65.526        7.548      -10.481       29.675       17.084       12.954      880.624      291.852      167.807        0.290        0.067       65.959       12.494        0.036      342.068       17.219      862.377
08/29/2013  03:26:00      -65.924      -14.318       -7.827       24.408       18.408       15.156      595.760      338.839      229.711        0.289        0.058       67.461       15.626        0.054      342.060       17.204      862.364
08/29/2013  03:27:00      -31.547      -13.625       -7.538       27.108       10.429       13.625      734.854      108.767      185.637        0.113        0.051       34.364       13.288        0.150      342.111       17.292      862.344
08/29/2013  03:28:00       -2.847      -13.955        0.040       12.227        9.963       12.896      149.488       99.268      166.318        0.031        0.021       14.243       10.417        0.535      342.222       17.481      862.338
08/29/2013  03:29:00      -75.155      -23.120       -7.796       36.420       16.559       12.130     1326.418      274.184      147.142        0.400        0.087       78.631        5.130        0.004      342.094       17.264      862.345
08/29/2013  03:30:00      -91.061       10.014      -11.041       31.962       28.863       16.203     1021.591      833.051      262.549        0.532        0.106       91.610       13.822        0.023      341.975       17.062      862.351
08/29/2013  03:31:00      -39.417        1.599       -6.377       25.465       13.556        9.845      648.477      183.760       96.921        0.126        0.046       39.449       10.507        0.071      341.946       17.013      862.340
08/29/2013  03:32:00       -0.300      -10.668       -1.974       15.569       12.752        6.770      242.383      162.619       45.837        0.028        0.023       10.672        7.413        0.482      342.090       17.257      862.329
08/29/2013  03:33:00       29.210       12.887        0.904       26.300       23.272       12.266      691.673      541.577      150.456        0.120        0.069       31.927       12.383        0.150      342.356       17.708      862.338
08/29/2013  03:34:00     -123.333      -30.737      -13.876       69.001       21.135       17.865     4761.177      446.682      319.145        1.094        0.276      127.106       26.849        0.045      342.112       17.293      862.370
08/29/2013  03:35:00     -144.378      -18.183      -19.016       34.998       31.290       21.466     1224.839      979.060      460.772        1.210        0.133      145.519       14.447        0.010      341.773       16.718      862.389
08/29/2013  03:36:00     -129.939      -36.074      -13.764       22.509       24.836       13.186      506.677      616.819      173.864        0.984        0.065      134.854        8.327        0.004      341.784       16.737      862.376
08/29/2013  03:37:00      -79.986       -1.146       -8.449       20.492       18.429       14.157      419.931      339.612      200.429        0.371        0.048       79.994       11.869        0.022      341.809       16.779      862.332
08/29/2013  03:38:00      -76.875        6.303      -10.240       25.182       17.656       10.812      634.132      311.742      116.897        0.356        0.053       77.133        8.469        0.012      341.839       16.829      862.291
08/29/2013  03:39:00     -119.655      -13.798       -7.175       52.132       32.716       20.996     2717.775     1070.351      440.827        0.939        0.211      120.448       26.254        0.048      341.789       16.747      862.290
08/29/2013  03:40:00      -34.466       57.455       -4.633       20.883       35.055       12.550      436.111     1228.845      157.513        0.317        0.091       67.000       13.649        0.042      342.483       17.925      862.289
08/29/2013  03:41:00      -88.436      -26.075       -7.009       72.022       48.160       15.829     5187.192     2319.398      250.542        0.815        0.388       92.200       32.289        0.123      342.146       17.352      862.296
08/29/2013  03:42:00     -152.009      -57.455      -14.432       39.404       50.686       25.998     1552.710     2569.090      675.889        1.571        0.240      162.505       15.396        0.009      341.745       16.671      862.314
08/29/2013  03:43:00      -14.042      -22.279       14.870       30.222       40.526       24.707      913.387     1642.334      610.457        0.204        0.158       26.335       25.070        0.906      341.710       16.611      862.311
08/29/2013  03:44:00        8.711       -8.761        0.759       32.075       12.953       16.276     1028.780      167.772      264.915        0.081        0.073       12.355       18.864        2.331      342.107       17.284      862.302
08/29/2013  03:45:00      -87.223      -25.385      -10.344       20.259       17.451       10.943      410.423      304.554      119.740        0.460        0.042       90.842       10.598        0.014      341.795       16.756      862.295
08/29/2013  03:46:00      -69.263      -31.180       -9.462       17.525       19.423       13.548      307.143      377.251      183.553        0.336        0.043       75.958       11.050        0.021      341.953       17.025      862.286
08/29/2013  03:47:00      -62.284      -29.428      -14.684       15.545       14.727        8.951      241.646      216.895       80.119        0.275        0.027       68.886        7.162        0.011      342.187       17.422      862.274
08/29/2013  03:48:00      -72.608      -27.725      -12.148       10.403       12.578        8.290      108.226      158.198       68.729        0.326        0.017       77.722        7.277        0.009      341.940       17.000      862.248
08/29/2013  03:49:00      -97.255      -26.486      -15.645       14.614       16.524       10.869      213.575      273.035      118.130        0.550        0.030      100.797        7.325        0.005      341.894       16.924      862.251
08/29/2013  03:50:00     -110.353      -63.431      -19.147       22.895       23.835       14.507      524.175      568.121      210.443        0.893        0.065      127.284       12.358        0.009      341.833       16.820      862.268
08/29/2013  03:51:00     -124.317      -67.321      -14.319       53.152       36.128       28.000     2825.147     1305.264      783.994        1.255        0.246      141.375       25.092        0.032      341.749       16.677      862.305
08/29/2013  03:52:00     -117.937      -45.727      -15.154       26.996       27.717       18.680      728.771      768.239      348.946        0.904        0.092      126.492       14.959        0.014      341.699       16.594      862.341
08/29/2013  03:53:00     -102.294      -26.667        3.663       40.701       41.969       23.504     1656.536     1761.383      552.421        0.758        0.199      105.712       14.930        0.020      341.708       16.608      862.366
08/29/2013  03:54:00      -57.607      -27.149       -2.671       20.153       18.921       13.069      406.134      358.013      170.791        0.250        0.047       63.684        7.892        0.015      341.793       16.753      862.388
08/29/2013  03:55:00       -9.408      -27.896       -1.086       14.326        7.524        8.178      205.223       56.608       66.885        0.060        0.016       29.439        1.895        0.004      341.852       16.852      862.402
08/29/2013  03:56:00      -21.980      -26.265       -7.506       30.568       12.157        8.865      934.390      147.793       78.580        0.119        0.058       34.249        8.217        0.058      341.924       16.973      862.420
08/29/2013  03:57:00      -23.650        4.144       -0.482       26.365       11.620       12.213      695.089      135.019      149.152        0.078        0.049       24.011       10.634        0.196      341.911       16.954      862.433
08/29/2013  03:58:00      -28.821        4.912       11.674       10.463       15.309       10.824      109.474      234.354      117.156        0.073        0.023       29.237        2.967        0.010      341.903       16.939      862.435
08/29/2013  03:59:00      -63.649        5.002       -7.983       31.678       14.009       11.714     1003.497      196.258      137.214        0.274        0.067       63.845        8.061        0.016      342.079       17.239      862.443
08/29/2013  04:00:00     -100.834      -12.374       -8.248       25.809       24.478       17.704      666.092      599.156      313.424        0.598        0.079      101.591       12.850        0.016      342.039       17.169      862.454
08/29/2013  04:01:00      -49.124       -3.279       -0.580       30.653       28.631       15.055      939.576      819.721      226.663        0.220        0.099       49.233       15.584        0.100      341.809       16.780      862.469
08/29/2013  04:02:00      -30.860      -16.819        4.798       19.573       16.453        8.490      383.115      270.693       72.087        0.099        0.036       35.146        7.288        0.043      341.785       16.738      862.475
08/29/2013  04:03:00      -56.452       -7.437       -8.293       13.471       14.366        8.426      181.467      206.382       70.997        0.188        0.023       56.940        3.015        0.003      341.927       16.980      862.470
08/29/2013  04:04:00      -40.578      -21.844       -5.998        9.912       11.587        6.379       98.257      134.268       40.693        0.122        0.014       46.084        4.266        0.009      341.969       17.050      862.466
08/29/2013  04:05:00      -31.807       -0.210       -4.089       14.893       21.149        8.129      221.800      447.296       66.087        0.088        0.037       31.808        8.136        0.065      341.906       16.945      862.456
08/29/2013  04:06:00        0.332        6.633        7.767        9.323        6.982        8.391       86.910       48.750       70.409        0.016        0.010        6.641        8.199        1.524      341.789       16.747      862.450
08/29/2013  04:07:00       22.231       14.485       11.510        7.818       11.710        6.146       61.120      137.117       37.772        0.054        0.012       26.534        2.133        0.006      341.790       16.747      862.435
08/29/2013  04:08:00       46.218       33.659        4.846       16.715       11.355       10.546      279.397      128.937      111.215        0.191        0.026       57.175        5.648        0.010      341.791       16.748      862.425
08/29/2013  04:09:00       28.222       33.395       -6.316       31.256       16.206        7.453      976.965      262.647       55.553        0.162        0.065       43.723       10.377        0.056      341.659       16.526      862.431
08/29/2013  04:10:00      -26.534        1.379      -11.702       10.661        8.256        3.301      113.658       68.169       10.897        0.052        0.010       26.570        3.252        0.015      341.753       16.684      862.463
08/29/2013  04:11:00      -69.576      -21.098      -11.338       19.638       10.633       12.701      385.654      113.058      161.321        0.304        0.033       72.705        7.418        0.010      341.761       16.699      862.498
08/29/2013  04:12:00      -84.649       -3.504      -14.248        7.182        6.036        6.817       51.588       36.427       46.469        0.376        0.007       84.722        3.737        0.002      341.664       16.534      862.508
08/29/2013  04:13:00      -68.115        1.535      -13.374        7.724        6.879        5.627       59.661       47.317       31.658        0.248        0.007       68.132        3.096        0.002      341.789       16.747      862.479
08/29/2013  04:14:00      -64.080        0.817      -12.262        6.790        6.291        6.931       46.108       39.578       48.044        0.220        0.007       64.085        4.359        0.005      341.695       16.586      862.459
08/29/2013  04:15:00      -45.173      -18.281      -13.682       13.111       12.510        6.952      171.886      156.500       48.330        0.147        0.019       48.732        6.924        0.020      341.720       16.629      862.462
08/29/2013  04:16:00      -14.910        5.116       -8.816       17.325        9.739        4.870      300.156       94.846       23.713        0.037        0.021       15.764        4.964        0.099      341.889       16.916      862.486
08/29/2013  04:17:00        4.581       13.983       -1.277        7.166        7.332        4.811       51.346       53.760       23.147        0.017        0.006       14.714        2.966        0.041      341.972       17.057      862.503
08/29/2013  04:18:00       19.997       25.437       -4.237       14.406       15.214        8.252      207.546      231.473       68.091        0.079        0.025       32.356        8.491        0.069      341.901       16.936      862.489
08/29/2013  04:19:00        0.747       40.008       -2.025        7.542       20.840        8.631       56.884      434.310       74.496        0.109        0.028       40.015       11.582        0.084      341.888       16.913      862.471
08/29/2013  04:20:00       -6.196       46.662       -6.550        9.603       11.758        3.539       92.219      138.260       12.521        0.125        0.012       47.072        2.917        0.004      342.071       17.222      862.471
08/29/2013  04:21:00      -58.363      -22.800       -9.180       27.569       18.763        8.237      760.047      352.039       67.856        0.259        0.059       62.659        4.265        0.005      341.765       16.705      862.489
08/29/2013  04:22:00      -97.435      -38.238      -11.701       18.169       13.109        8.051      330.109      171.840       64.825        0.583        0.028      104.670        2.380        0.001      341.439       16.153      862.523
08/29/2013  04:23:00     -118.203      -43.294      -11.287       16.724       13.698        9.861      279.701      187.644       97.240        0.827        0.028      125.882        7.922        0.004      341.491       16.240      862.546
08/29/2013  04:24:00     -114.919      -34.896      -12.415       17.585       18.750       11.502      309.227      351.568      132.295        0.769        0.040      120.101        9.749        0.007      341.494       16.244      862.570
08/29/2013  04:25:00      -93.135      -49.717       -6.322       28.103       20.190       15.187      789.783      407.647      230.636        0.631        0.071      105.574       17.053        0.026      341.433       16.143      862.585
08/29/2013  04:26:00      -81.083      -18.916       -5.683       17.330       20.673       11.198      300.317      427.387      125.401        0.391        0.043       83.260       10.235        0.015      341.439       16.153      862.579
08/29/2013  04:27:00      -76.013       14.958      -13.248       22.699       15.590       14.887      515.227      243.044      221.611        0.358        0.049       77.470       10.745        0.019      341.449       16.169      862.563
08/29/2013  04:28:00      -60.739       37.418      -13.540       16.186       21.813       16.576      262.003      475.797      274.764        0.314        0.051       71.339       11.913        0.028      341.630       16.476      862.543
08/29/2013  04:29:00      -53.364       65.447      -17.133       12.737       11.603        8.142      162.226      134.641       66.287        0.389        0.018       84.445        2.396        0.001      342.026       17.147      862.524
08/29/2013  04:30:00      -36.372       28.347       -9.184       10.265       16.958        7.324      105.377      287.571       53.642        0.133        0.022       46.114        9.667        0.044      341.972       17.057      862.533
08/29/2013  04:31:00      -31.045       -0.460       -1.301        7.898       11.220        7.234       62.374      125.892       52.336        0.060        0.012       31.048        3.777        0.015      341.777       16.726      862.556
08/29/2013  04:32:00      -24.124      -21.975       -2.580       13.581        9.203        8.141      184.442       84.690       66.270        0.070        0.017       32.632        6.281        0.037      341.661       16.530      862.586
08/29/2013  04:33:00        1.182       -1.678        5.784       13.709       15.791       13.331      187.948      249.368      177.710        0.033        0.031        2.053       15.123       54.256      341.667       16.540      862.605
08/29/2013  04:34:00        3.540       21.540       28.845       13.300       19.059       11.385      176.879      363.254      129.610        0.099        0.033       21.829        9.215        0.178      341.463       16.193      862.644
08/29/2013  04:35:00        5.597      -30.063       -2.729       12.021       11.470        7.579      144.498      131.558       57.440        0.064        0.017       30.580        7.902        0.067      341.629       16.475      862.676
08/29/2013  04:36:00       -7.349      -17.362        5.005       29.918       13.890       14.569      895.066      192.938      212.260        0.084        0.065       18.854       14.909        0.625      341.683       16.566      862.692
08/29/2013  04:37:00      -65.628      -32.823       -4.085       17.817       13.790       12.499      317.449      190.176      156.216        0.303        0.033       73.379        6.992        0.009      341.608       16.440      862.687
08/29/2013  04:38:00      -77.726       -4.358      -10.956        8.345       11.469        6.512       69.641      131.538       42.407        0.321        0.012       77.848        2.263        0.001      341.639       16.492      862.657
08/29/2013  04:39:00      -84.206        1.650      -13.610       10.560        5.231        6.305      111.523       27.366       39.756        0.373        0.009       84.222        5.038        0.004      341.550       16.339      862.620
08/29/2013  04:40:00      -49.866       13.928      -11.550       11.538        8.549        5.449      133.123       73.080       29.689        0.152        0.012       51.775        7.366        0.020      341.687       16.572      862.587
08/29/2013  04:41:00      -15.752       56.919      -12.284       10.650       11.954        5.935      113.412      142.899       35.224        0.197        0.015       59.058        6.129        0.011      342.026       17.147      862.569
08/29/2013  04:42:00      -36.500       71.462      -19.084       16.865       13.330        7.574      284.429      177.700       57.359        0.366        0.026       80.244        7.556        0.009      342.033       17.160      862.562
08/29/2013  04:43:00      -60.399       25.376      -10.570       15.798       21.560        8.341      249.577      464.824       69.572        0.259        0.039       65.513        9.684        0.022      341.768       16.711      862.572
08/29/2013  04:44:00      -54.694      -10.994       -9.482        8.324        7.031        8.114       69.294       49.434       65.836        0.169        0.009       55.788        4.196        0.006      341.651       16.511      862.598
08/29/2013  04:45:00      -55.990       -8.434      -11.320       13.316       15.327        8.014      177.303      234.908       64.219        0.191        0.024       56.622        1.856        0.001      341.870       16.883      862.636
08/29/2013  04:46:00      -45.089      -37.807      -11.474       13.234       14.553       10.738      175.149      211.795      115.296        0.205        0.025       58.842        6.123        0.011      341.595       16.417      862.664
08/29/2013  04:47:00      -62.365      -19.104      -15.377       14.159       25.923        8.435      200.474      671.979       71.143        0.272        0.047       65.225        6.785        0.011      341.588       16.405      862.679
08/29/2013  04:48:00      -73.726        8.481      -11.576       12.014       13.233        8.768      144.334      175.106       76.885        0.302        0.020       74.212        5.997        0.007      341.668       16.541      862.688
08/29/2013  04:49:00      -60.885      -19.014      -16.395       12.823       16.022        8.932      164.420      256.718       79.789        0.242        0.025       63.785        8.631        0.018      341.567       16.368      862.704
08/29/2013  04:50:00      -65.973      -16.043      -14.231       13.803        9.735        7.603      190.527       94.774       57.799        0.258        0.017       67.896        1.267        0.000      341.689       16.577      862.724
08/29/2013  04:51:00      -67.870       -3.581      -13.210       15.924       11.416        9.838      253.560      130.325       96.793        0.264        0.024       67.964        7.314        0.012      341.443       16.159      862.732
08/29/2013  04:52:00      -41.728        3.746       -8.440       10.467        9.864        7.302      109.549       97.308       53.324        0.104        0.013       41.896        6.046        0.021      341.443       16.159      862.700
08/29/2013  04:53:00      -38.924       43.812       -8.161       12.338       27.447       11.537      152.225      753.351      133.092        0.227        0.052       58.605       14.516        0.061      341.770       16.713      862.660
08/29/2013  04:54:00      -34.087       38.340       -5.679       17.196       12.999        7.588      295.697      168.978       57.578        0.159        0.026       51.302        6.141        0.014      341.740       16.662      862.636
08/29/2013  04:55:00      -25.643        5.918       -2.811       13.017       16.096        8.252      169.439      259.093       68.088        0.060        0.025       26.317        4.885        0.034      341.590       16.408      862.633
08/29/2013  04:56:00      -50.687      -32.033      -16.656       12.575       17.022       15.586      158.125      289.735      242.918        0.228        0.035       59.960        7.715        0.017      341.678       16.558      862.646
08/29/2013  04:57:00      -80.143      -46.578      -16.014       18.441       15.632       10.367      340.087      244.359      107.468        0.477        0.035       92.695        4.999        0.003      341.407       16.099      862.658
08/29/2013  04:58:00     -125.608      -47.414      -13.392       17.175       18.441       10.913      294.994      340.088      119.102        0.948        0.038      134.259        5.222        0.002      341.256       15.842      862.657
08/29/2013  04:59:00      -91.861      -52.100      -16.405       14.191       20.386       13.846      201.374      415.581      191.706        0.612        0.040      105.607       12.885        0.015      341.254       15.840      862.658
08/29/2013  05:00:00      -77.327      -51.790       -7.261       29.972       20.257       17.565      898.343      410.358      308.512        0.517        0.081       93.068       13.988        0.023      341.172       15.700      862.670
08/29/2013  05:01:00     -111.730      -40.863      -16.484       18.546       18.899       11.971      343.936      357.167      143.303        0.763        0.042      118.968        5.080        0.002      341.178       15.711      862.690
08/29/2013  05:02:00      -83.736      -26.673       -8.800       16.261       16.147       10.953      264.417      260.717      119.970        0.422        0.032       87.882        4.646        0.003      341.204       15.754      862.694
08/29/2013  05:03:00      -29.792      -20.357       -4.026       14.902       15.449        9.071      222.081      238.660       82.278        0.093        0.027       36.083        7.219        0.040      341.263       15.855      862.688
08/29/2013  05:04:00      -43.419       -0.882      -10.381        8.859       14.178        8.375       78.482      201.029       70.140        0.117        0.017       43.428        4.930        0.013      341.625       16.468      862.685
08/29/2013  05:05:00      -97.349      -59.264      -20.171       36.538       24.966       13.324     1335.005      623.315      177.536        0.777        0.107      113.969        8.902        0.006      341.418       16.116      862.710
08/29/2013  05:06:00     -132.628      -73.382      -11.069       25.304       25.112       16.505      640.295      630.595      272.415        1.232        0.077      151.575       10.321        0.005      341.350       16.001      862.736
08/29/2013  05:07:00     -121.815      -38.655      -14.817       22.866       26.020       18.115      522.843      677.043      328.155        0.904        0.076      127.802       14.202        0.012      341.235       15.807      862.743
08/29/2013  05:08:00      -76.274      -32.873       -7.491       17.325       11.785       10.218      300.150      138.878      104.406        0.375        0.027       83.056        7.486        0.008      341.271       15.867      862.727
08/29/2013  05:09:00     -102.925      -55.069       -8.229       15.157       16.736        9.784      229.739      280.082       95.718        0.715        0.030      116.731        3.768        0.001      341.369       16.033      862.713
08/29/2013  05:10:00      -67.239      -55.981       -2.200       30.114       19.672       16.193      906.833      386.998      262.216        0.461        0.078       87.492       14.116        0.026      341.462       16.191      862.721
08/29/2013  05:11:00      -74.400      -35.725       -2.038       22.002       15.155        9.928      484.067      229.670       98.574        0.381        0.041       82.532        9.274        0.013      341.485       16.230      862.749
08/29/2013  05:12:00      -79.661      -42.143       -7.890       21.359       11.473       10.710      456.219      131.624      114.697        0.444        0.035       90.122        8.545        0.009      341.540       16.325      862.760
08/29/2013  05:13:00     -127.411      -57.508       -3.737       25.852       22.333       16.964      668.346      498.758      287.765        1.050        0.073      139.788       14.115        0.010      341.472       16.209      862.764
08/29/2013  05:14:00     -142.639      -73.874       -8.750       47.725       24.509       21.585     2277.647      600.673      465.933        1.461        0.167      160.634       21.974        0.019      341.341       15.985      862.771
08/29/2013  05:15:00     -174.835      -61.608       -3.784       42.191       37.430       27.048     1780.108     1401.023      731.585        1.914        0.196      185.373       24.549        0.018      341.226       15.791      862.788
08/29/2013  05:16:00     -137.602      -59.219        0.086       46.158       43.148       24.592     2130.532     1861.725      604.760        1.352        0.230      149.804       20.522        0.019      341.105       15.589      862.781
08/29/2013  05:17:00      -79.191      -29.098       -5.230       30.134       29.620       19.275      908.038      877.356      371.523        0.465        0.108       84.368        9.663        0.013      341.093       15.567      862.758
08/29/2013  05:18:00      -55.360      -34.654       -3.426       18.158       18.536       11.324      329.709      343.599      128.229        0.254        0.040       65.312        8.212        0.016      341.265       15.859      862.744
08/29/2013  05:19:00      -60.142      -35.321       -9.556       16.703       11.585        9.259      278.999      134.213       85.736        0.273        0.025       69.747        6.316        0.008      341.302       15.919      862.751
08/29/2013  05:20:00      -84.922      -43.010      -12.529       31.555       23.178       15.932      995.734      537.225      253.828        0.550        0.089       95.192       12.480        0.017      341.281       15.886      862.764
08/29/2013  05:21:00      -99.727      -50.507      -11.607       20.811       26.477       15.288      433.090      701.036      233.715        0.700        0.068      111.788       14.486        0.017      341.239       15.813      862.763
08/29/2013  05:22:00     -105.360      -64.912       -8.868       22.116       23.527       17.828      489.113      553.515      317.845        0.838        0.068      123.751       13.768        0.012      341.164       15.688      862.759
08/29/2013  05:23:00      -86.957      -51.260      -14.796       35.370       29.795       24.322     1251.046      887.723      591.558        0.657        0.137      100.941       16.413        0.026      341.086       15.555      862.759
08/29/2013  05:24:00     -134.712      -41.117      -19.599       41.499       26.703       28.270     1722.182      713.055      799.189        1.173        0.162      140.847       19.336        0.019      341.127       15.625      862.762
08/29/2013  05:25:00      -78.122      -50.191        4.070       51.135       44.700       29.385     2614.776     1998.108      863.507        0.706        0.274       92.856       30.324        0.107      341.087       15.555      862.763
08/29/2013  05:26:00      -93.716      -45.058       -5.261       51.039       33.005       24.269     2604.994     1089.307      589.007        0.756        0.214      103.985       18.173        0.031      341.083       15.550      862.755
08/29/2013  05:27:00      -81.011      -41.133        9.481       51.316       49.770       27.026     2633.362     2477.067      730.423        0.709        0.292       90.855       19.714        0.047      341.053       15.498      862.757
08/29/2013  05:28:00      -95.876      -52.446        0.822       50.223       47.923       28.316     2522.388     2296.598      801.823        0.878        0.281      109.283       25.504        0.054      341.073       15.533      862.758
08/29/2013  05:29:00     -101.145      -11.736       -9.345       28.257       37.012       25.708      798.459     1369.886      660.926        0.664        0.141      101.824       15.502        0.023      341.158       15.677      862.735
08/29/2013  05:30:00      -60.582      -12.213       -3.021       26.867       23.133       18.193      721.842      535.121      330.975        0.271        0.079       61.801       13.689        0.049      341.233       15.804      862.730
08/29/2013  05:31:00      -36.561        3.970      -12.314       38.015       18.959       14.728     1445.165      359.447      216.903        0.176        0.101       36.776       16.659        0.205      341.240       15.815      862.749
08/29/2013  05:32:00      -35.614      -16.475      -15.351       34.061       24.206       14.441     1160.129      585.925      208.538        0.186        0.098       39.241       10.533        0.072      341.272       15.870      862.777
08/29/2013  05:33:00      -85.252      -38.027      -12.646       26.683       22.957       16.088      711.981      527.027      258.829        0.519        0.075       93.348        9.694        0.011      341.210       15.764      862.803
08/29/2013  05:34:00      -95.186      -29.709       -8.384       23.659       20.573       15.760      559.734      423.261      248.383        0.562        0.062       99.715        8.777        0.008      341.131       15.630      862.838
08/29/2013  05:35:00     -115.190      -47.405       -6.350       25.427       19.233       17.558      646.547      369.909      308.273        0.844        0.066      124.563        8.679        0.005      341.136       15.639      862.865
08/29/2013  05:36:00     -147.809      -43.847       -7.931       43.070       27.077       19.133     1855.057      733.175      366.080        1.339        0.148      154.176       12.228        0.006      341.110       15.595      862.882
08/29/2013  05:37:00     -117.152      -64.241        0.701       62.334       28.489       24.723     3885.546      811.645      611.241        1.158        0.265      133.610       21.124        0.025      341.205       15.755      862.895
08/29/2013  05:38:00     -119.821      -87.853        4.691       67.511       56.518       31.344     4557.802     3194.263      982.469        1.541        0.437      148.577       31.868        0.046      341.172       15.698      862.908
08/29/2013  05:39:00      -97.557      -62.149       -1.005       30.488       29.626       18.451      929.517      877.701      340.424        0.776        0.107      115.671       14.121        0.015      341.159       15.678      862.918
08/29/2013  05:40:00     -112.377      -53.667       -2.051       30.666       27.677       16.530      940.397      765.991      273.247        0.875        0.099      124.534       13.859        0.012      341.203       15.752      862.914
08/29/2013  05:41:00      -93.651      -15.077       -3.987       35.569       28.611       17.955     1265.170      818.614      322.377        0.571        0.120       94.857       14.885        0.025      341.344       15.992      862.881
08/29/2013  05:42:00      -46.310        5.937       -5.752       43.113       41.771       22.584     1858.694     1744.789      510.040        0.316        0.206       46.689       23.365        0.250      341.244       15.823      862.852
08/29/2013  05:43:00     -147.280       20.899      -25.395       54.685       40.412       31.421     2990.502     1633.161      987.252        1.419        0.281      148.755       26.487        0.032      341.530       16.306      862.844
08/29/2013  05:44:00     -104.811        9.510       -9.937       48.200       48.459       32.785     2323.246     2348.228     1074.827        0.846        0.287      105.242       19.558        0.035      341.440       16.154      862.847
08/29/2013  05:45:00      -48.403       10.021        3.161       65.439       41.994       27.287     4282.232     1763.475      744.573        0.462        0.340       49.430       32.056        0.421      341.507       16.267      862.848
08/29/2013  05:46:00      -60.010       -8.597      -11.799       27.963       35.736       19.088      781.943     1277.089      364.365        0.312        0.121       60.622       18.405        0.092      341.475       16.212      862.849
08/29/2013  05:47:00      -75.767      -55.606        0.541       43.066       26.668       18.860     1854.681      711.194      355.701        0.588        0.146       93.982       21.333        0.052      341.351       16.003      862.864
08/29/2013  05:48:00     -134.567      -60.897       -9.842       38.527       29.446       21.663     1484.306      867.072      469.293        1.237        0.141      147.705       10.016        0.005      341.192       15.735      862.892
08/29/2013  05:49:00     -158.605      -76.386      -11.755       33.763       31.730       25.976     1139.935     1006.822      674.768        1.697        0.141      176.041       16.325        0.009      341.040       15.476      862.922
08/29/2013  05:50:00     -188.139      -39.188      -22.090       26.994       34.553       23.264      728.689     1193.896      541.200        1.994        0.123      192.177       16.369        0.007      341.011       15.427      862.941
08/29/2013  05:51:00     -162.402      -38.144       -8.522       30.585       37.701       21.654      935.454     1421.354      468.902        1.536        0.141      166.821       15.730        0.009      341.053       15.499      862.953
08/29/2013  05:52:00     -155.973      -38.601      -15.542       35.977       34.631       22.737     1294.320     1199.320      516.972        1.453        0.151      160.679       16.358        0.010      341.154       15.670      862.941
08/29/2013  05:53:00     -100.122      -16.951       -5.617       49.986       54.717       29.622     2498.581     2993.982      877.463        0.836        0.319      101.547       19.227        0.036      341.125       15.621      862.947
08/29/2013  05:54:00     -123.032       10.772       -7.990       77.386       53.156       32.733     5988.547     2825.530     1071.461        1.260        0.494      123.503       35.021        0.080      341.266       15.859      862.962
08/29/2013  05:55:00     -112.176       15.479       -3.365       60.263       46.720       31.400     3631.576     2182.799      985.945        0.982        0.340      113.239       35.447        0.098      341.215       15.772      862.974
08/29/2013  05:56:00      -95.292      -21.886       -1.026       45.119       39.116       24.497     2035.719     1530.098      600.101        0.686        0.208       97.773       21.587        0.049      341.122       15.615      862.977
08/29/2013  05:57:00     -145.102      -18.573      -10.381       31.462       24.423       21.912      989.834      596.463      480.147        1.179        0.103      146.286       16.905        0.013      341.196       15.741      862.973
08/29/2013  05:58:00     -153.018      -16.470      -16.595       22.157       26.654       23.398      490.911      710.410      547.457        1.285        0.087      153.902       17.273        0.013      341.124       15.620      862.956
08/29/2013  05:59:00     -141.885      -34.510      -13.287       30.400       39.842       19.117      924.179     1587.424      365.467        1.219        0.144      146.022       13.908        0.009      341.120       15.611      862.955
08/29/2013  06:00:00     -143.945      -80.513       -6.684       38.238       33.026       22.575     1462.168     1090.702      509.617        1.515        0.153      164.932       18.327        0.012      341.088       15.559      862.974
08/29/2013  06:01:00     -148.701      -33.370       -7.798       47.767       37.107       31.418     2281.681     1376.905      987.114        1.397        0.232      152.399       28.890        0.036      341.148       15.660      863.028
08/29/2013  06:02:00     -172.740      -40.512      -10.340       33.609       32.170       17.632     1129.580     1034.882      310.883        1.703        0.124      177.427       13.141        0.005      341.095       15.570      863.084
08/29/2013  06:03:00     -118.493      -19.945       -0.735       53.840       29.536       19.811     2898.696      872.375      392.464        0.930        0.208      120.160       19.916        0.027      341.051       15.495      863.109
08/29/2013  06:04:00      -45.272        1.280       -2.181       56.919       30.140       16.209     3239.726      908.393      262.716        0.323        0.221       45.290       22.894        0.256      341.129       15.628      863.089
08/29/2013  06:05:00      -26.568       78.412       -4.766       29.076       30.853       19.180      845.409      951.915      367.862        0.452        0.108       82.791       15.357        0.034      341.378       16.048      863.042
08/29/2013  06:06:00       30.892      112.079       -7.442       27.975       46.983       26.542      782.619     2207.359      704.503        0.863        0.185      116.259       26.917        0.054      341.404       16.093      862.986
08/29/2013  06:07:00       31.862       37.860        0.787       29.779       34.379       17.484      886.759     1181.919      305.687        0.241        0.119       49.483        6.696        0.018      341.207       15.758      862.954
08/29/2013  06:08:00        9.917       22.561       -0.857       34.975       17.156       14.540     1223.219      294.321      211.424        0.117        0.086       24.645        6.196        0.063      341.174       15.703      862.976
08/29/2013  06:09:00     -119.054      -46.557       -6.716       70.532       46.564       23.887     4974.711     2168.231      570.583        1.205        0.386      127.834       14.862        0.014      341.233       15.805      863.029
08/29/2013  06:10:00     -119.169      -84.612        8.419      106.541       90.151       47.358    11350.904     8127.233     2242.747        2.157        1.086      146.153       55.964        0.147      341.129       15.627      863.094
08/29/2013  06:11:00     -127.136     -127.381       -3.723       65.768       59.626       42.098     4325.476     3555.299     1772.255        2.103        0.483      179.971       33.906        0.035      341.185       15.721      863.153
08/29/2013  06:12:00     -170.829     -152.079       -8.134       80.643       73.187       44.859     6503.263     5356.268     2012.369        3.312        0.694      228.715       46.056        0.041      341.220       15.781      863.210
08/29/2013  06:13:00     -244.493     -162.705      -12.813       80.348       94.074       47.517     6455.818     8849.951     2257.884        5.199        0.878      293.683       46.704        0.025      341.288       15.893      863.241
08/29/2013  06:14:00     -144.906      -64.624       -7.167       67.084       72.434       32.541     4500.290     5246.672     1058.938        1.801        0.540      158.663       26.166        0.027      341.452       16.172      863.226
08/29/2013  06:15:00      -90.321       14.608       -8.570       41.755       26.797       17.451     1743.475      718.055      304.536        0.560        0.138       91.495       12.559        0.019      341.425       16.129      863.183
08/29/2013  06:16:00      -23.045      -39.653        1.672       21.563       19.233       14.685      464.973      369.899      215.659        0.158        0.053       45.864       11.311        0.061      341.518       16.285      863.177
08/29/2013  06:17:00      -87.058      -54.580       -4.856       42.727       33.049       23.901     1825.614     1092.237      571.238        0.703        0.174      102.752       21.009        0.042      341.503       16.260      863.224
08/29/2013  06:18:00      -48.729      -85.604       -1.623       36.378       31.788       21.372     1323.349     1010.494      456.771        0.625        0.140       98.502       19.637        0.040      341.567       16.368      863.269
08/29/2013  06:19:00       -7.132       -9.667       10.068       28.027       26.860       18.070      785.536      721.445      326.516        0.104        0.092       12.013       14.534        1.464      341.723       16.632      863.279
08/29/2013  06:20:00       24.232       -6.547       -6.005       28.056       23.478       22.330      787.165      551.230      498.626        0.125        0.092       25.101       15.521        0.382      341.411       16.104      863.296
08/29/2013  06:21:00       24.549      -39.661       -2.983       20.576       28.955       20.886      423.376      838.378      436.210        0.194        0.085       46.644       15.181        0.106      341.367       16.030      863.317
08/29/2013  06:22:00       32.956      -63.884       -8.839       32.121       29.500       24.950     1031.788      870.254      622.501        0.388        0.126       71.883       13.109        0.033      341.793       16.753      863.340
08/29/2013  06:23:00        3.826      -73.596       18.592       71.937       57.327       23.813     5174.941     3286.436      567.076        0.740        0.451       73.695       34.187        0.215      341.739       16.659      863.396
08/29/2013  06:24:00     -182.761     -102.393      -11.472       53.656       47.351       36.130     2878.942     2242.137     1305.360        2.522        0.321      209.490       16.249        0.006      341.533       16.309      863.439
08/29/2013  06:25:00     -134.137      -21.680      -14.015       42.769       48.589       19.916     1829.188     2360.905      396.648        1.162        0.229      135.878       22.827        0.028      341.455       16.180      863.427
08/29/2013  06:26:00     -143.116       -3.463      -17.585       20.583       23.312       18.244      423.661      543.449      332.857        1.105        0.065      143.158       14.369        0.010      341.430       16.136      863.392
08/29/2013  06:27:00     -126.620      -32.009       -9.647       43.475       30.823       19.052     1890.105      950.073      362.962        1.018        0.160      130.603       20.898        0.026      341.341       15.987      863.403
08/29/2013  06:28:00     -133.147       -1.971       -8.369       35.807       33.221       19.160     1282.142     1103.624      367.107        1.028        0.138      133.161       19.715        0.022      341.390       16.070      863.397
08/29/2013  06:29:00      -29.798       23.775        5.803       34.111       30.427       19.683     1163.542      925.831      387.401        0.198        0.124       38.121       15.998        0.176      341.376       16.045      863.365
08/29/2013  06:30:00      -37.807       15.194       -5.040       17.669       18.786       12.143      312.207      352.926      147.444        0.125        0.041       40.746       10.128        0.062      341.636       16.486      863.353
08/29/2013  06:31:00        4.805      -40.742       10.510       42.621       39.091       30.085     1816.576     1528.125      905.097        0.302        0.212       41.025       25.050        0.373      341.554       16.346      863.421
08/29/2013  06:32:00     -169.105     -114.123        5.613       78.539       68.523       44.790     6168.406     4695.383     2006.116        2.726        0.643      204.011       39.537        0.038      341.411       16.102      863.490
08/29/2013  06:33:00     -149.535      -48.868       -5.566       64.671       48.122       30.233     4182.362     2315.719      914.062        1.609        0.371      157.317       28.982        0.034      341.585       16.398      863.496
08/29/2013  06:34:00      -86.509       36.602       -2.366       46.069       57.380       27.247     2122.351     3292.471      742.418        0.749        0.308       93.934       20.456        0.047      341.697       16.589      863.457
08/29/2013  06:35:00      -49.731      161.114      -22.318       59.120       53.776       23.287     3495.150     2891.863      542.269        1.793        0.346      168.615       21.297        0.016      341.967       17.047      863.429
08/29/2013  06:36:00      -95.911       59.433      -16.188       28.230       50.190       21.822      796.923     2519.081      476.185        0.839        0.190      112.833       20.452        0.033      341.772       16.717      863.462
08/29/2013  06:37:00      -90.147       -2.640      -15.154       28.358       44.270       20.637      804.163     1959.803      425.871        0.578        0.159       90.186       12.441        0.019      341.680       16.561      863.516
08/29/2013  06:38:00     -105.553      -14.408       -8.059       47.138       27.661       21.356     2222.005      765.147      456.090        0.743        0.172      106.532       20.945        0.039      341.706       16.605      863.568
08/29/2013  06:39:00      -66.459      -35.974       -1.533       36.008       40.179       18.642     1296.596     1614.342      347.518        0.449        0.163       75.571        7.588        0.010      341.573       16.377      863.589
08/29/2013  06:40:00      -33.333      -10.390        9.522       37.019       22.748       17.932     1370.396      517.465      321.567        0.176        0.110       34.915       17.401        0.248      341.473       16.209      863.592
08/29/2013  06:41:00      -62.922       -6.563      -10.290       26.595       11.249        9.561      707.295      126.529       91.422        0.252        0.046       63.264       10.662        0.028      341.521       16.289      863.608
08/29/2013  06:42:00     -131.825      -38.352      -17.002       51.160       33.305       19.761     2617.303     1109.256      390.508        1.163        0.206      137.290       20.342        0.022      341.497       16.248      863.630
08/29/2013  06:43:00     -176.831      -21.273      -14.067       38.951       51.357       27.069     1517.158     2637.576      732.731        1.840        0.244      178.106       18.736        0.011      341.409       16.100      863.655
08/29/2013  06:44:00     -108.492        9.235      -13.867       37.864       30.709       17.391     1433.706      943.066      302.462        0.736        0.134      108.884       14.571        0.018      341.436       16.147      863.664
08/29/2013  06:45:00      -12.927       -5.169       -4.832       43.571       29.567       17.451     1898.457      874.222      304.546        0.165        0.154       13.923       11.147        0.641      341.418       16.116      863.637
08/29/2013  06:46:00       93.769       46.285        8.666       38.526       28.091       30.739     1484.258      789.130      944.879        0.711        0.161      104.570       22.923        0.048      341.393       16.073      863.594
08/29/2013  06:47:00       19.417       20.948        8.809       31.360       11.611       19.448      983.478      134.822      378.241        0.119        0.075       28.563       14.552        0.260      341.479       16.219      863.589
08/29/2013  06:48:00      -93.913        0.068      -10.238       24.236       26.818       14.355      587.388      719.213      206.078        0.522        0.076       93.913        8.350        0.008      341.395       16.078      863.603
08/29/2013  06:49:00     -146.155      -74.012       -7.071       43.559       43.612       24.904     1897.420     1902.037      620.206        1.565        0.221      163.826       14.861        0.008      341.248       15.830      863.643
08/29/2013  06:50:00     -185.245     -110.302        0.090       56.919       41.108       29.871     3239.724     1689.861      892.303        2.615        0.291      215.597       28.051        0.017      341.356       16.009      863.695
08/29/2013  06:51:00     -190.907      -86.501       -5.734       56.224       72.792       29.804     3161.097     5298.646      888.289        2.665        0.467      209.590       24.377        0.014      341.411       16.100      863.738
08/29/2013  06:52:00     -193.002      -63.834       -7.561       63.659       59.818       33.728     4052.471     3578.214     1137.551        2.507        0.438      203.284       22.696        0.012      341.422       16.121      863.764
08/29/2013  06:53:00     -159.969       -8.339      -12.312       53.490       52.989       26.931     2861.178     2807.821      725.288        1.610        0.320      160.186       28.004        0.031      341.400       16.083      863.767
08/29/2013  06:54:00     -105.155       58.947      -12.457       37.239       41.301       26.745     1386.726     1705.765      715.291        0.925        0.190      120.550       23.621        0.038      341.716       16.622      863.760
08/29/2013  06:55:00        7.702      -39.354       -4.107       52.943       52.060       25.856     2802.952     2710.238      668.546        0.390        0.309       40.101       14.052        0.123      341.701       16.596      863.774
08/29/2013  06:56:00       12.872      -39.234        5.161       52.430       62.256       48.083     2748.938     3875.856     2311.969        0.533        0.447       41.291       40.820        0.977      341.514       16.278      863.793
08/29/2013  06:57:00       55.036      -29.386       29.786       64.442       67.808       39.716     4152.764     4597.891     1577.368        0.755        0.516       62.390       39.353        0.398      341.361       16.020      863.804
08/29/2013  06:58:00       18.071       -7.366       25.962       30.747       40.693       25.446      945.389     1655.927      647.509        0.215        0.162       19.514       19.380        0.986      341.382       16.057      863.794
08/29/2013  06:59:00        3.814      -29.565      -11.763       20.920       17.019       12.576      437.658      289.653      158.157        0.096        0.044       29.810        8.204        0.076      341.473       16.210      863.769
08/29/2013  07:00:00      -84.790      -43.633       -1.123       41.248       25.503       18.782     1701.399      650.381      352.752        0.590        0.135       95.358       13.220        0.019      341.563       16.362      863.789
08/29/2013  07:01:00     -142.444      -63.124       -4.174       41.118       28.408       25.561     1690.704      807.003      653.349        1.372        0.158      155.805       12.108        0.006      341.526       16.299      863.844
08/29/2013  07:02:00     -137.181      -31.374      -10.320       32.131       39.908       19.958     1032.385     1592.635      398.323        1.147        0.151      140.723       17.525        0.016      341.561       16.359      863.875
08/29/2013  07:03:00     -239.482       11.687      -22.714       54.943       39.193       23.716     3018.688     1536.077      562.460        3.156        0.256      239.767       23.747        0.010      341.424       16.123      863.897
08/29/2013  07:04:00     -146.884      -48.619       -8.644       89.274       59.039       32.283     7969.854     3485.600     1042.181        1.825        0.625      154.721       32.593        0.044      341.475       16.212      863.971
08/29/2013  07:05:00      -72.004      -67.582        2.291       57.690       47.320       25.242     3328.108     2239.178      637.159        0.798        0.310       98.751       25.403        0.066      341.493       16.243      864.017
08/29/2013  07:06:00      -28.580     -126.216        4.974       24.760       16.454       16.971      613.079      270.746      288.000        0.897        0.059      129.411        4.549        0.001      341.709       16.610      864.039
08/29/2013  07:07:00       -5.329      -41.181       26.047       25.540       39.330       23.205      652.297     1546.829      538.485        0.257        0.137       41.524       14.576        0.123      341.702       16.598      864.027
08/29/2013  07:08:00       -5.852       11.670       35.123       23.523       31.699       23.732      553.311     1004.822      563.192        0.176        0.106       13.055       10.888        0.696      341.440       16.153      863.977
08/29/2013  07:09:00      -26.712       36.460        7.146       17.437       25.749       21.573      304.065      662.991      465.392        0.176        0.072       45.198       17.739        0.154      341.444       16.160      863.926
08/29/2013  07:10:00      -45.930       58.669       -6.498       22.267       31.891       20.060      495.815     1017.021      402.399        0.375        0.096       74.509       20.225        0.074      341.575       16.383      863.913
08/29/2013  07:11:00       39.414       19.150       12.330       28.814       21.042       12.778      830.227      442.779      163.288        0.175        0.072       43.820       10.823        0.061      341.634       16.481      863.957
08/29/2013  07:12:00       52.683       64.892       45.732       25.914       22.966       25.379      671.553      527.445      644.087        0.546        0.092       83.585        9.182        0.012      341.562       16.359      864.017
08/29/2013  07:13:00       28.294       33.101       15.247       33.112       19.597       24.787     1096.437      384.040      614.380        0.211        0.105       43.545       20.203        0.215      341.676       16.553      864.049
08/29/2013  07:14:00       19.871       60.804      -15.148       18.337       24.333       11.017      336.264      592.088      121.379        0.269        0.052       63.968       12.088        0.036      341.617       16.455      864.043
08/29/2013  07:15:00       11.760       75.136       -9.509       15.842       18.038        9.755      250.969      325.368       95.163        0.327        0.034       76.051       10.448        0.019      341.614       16.451      864.038
08/29/2013  07:16:00      -10.153       28.388       -3.564       13.542       10.689       12.161      183.382      114.253      147.879        0.068        0.022       30.149        7.068        0.055      341.708       16.607      864.034
08/29/2013  07:17:00      -88.293        5.463       -5.148       36.029       21.960       12.394     1298.098      482.256      153.612        0.489        0.097       88.462        9.236        0.011      341.571       16.376      864.034
08/29/2013  07:18:00     -187.612        9.782      -19.500       59.459       26.725       28.700     3535.335      714.226      823.677        2.037        0.254      187.867       31.426        0.028      341.434       16.142      864.028
08/29/2013  07:19:00     -277.758        1.848      -32.293       68.063       60.925       35.766     4632.616     3711.805     1279.181        4.391        0.481      277.764       35.722        0.017      341.513       16.274      864.003
08/29/2013  07:20:00     -199.711      -12.461       -1.798       80.304       61.885       41.992     6448.717     3829.800     1763.366        2.604        0.602      200.100       38.925        0.038      341.502       16.257      863.996
08/29/2013  07:21:00     -184.716      -67.045      -17.453       72.709       54.080       32.511     5286.659     2924.677     1056.960        2.409        0.463      196.507       30.094        0.023      341.596       16.415      864.018
08/29/2013  07:22:00     -173.068      -65.214      -21.829       45.844       37.823       26.510     2101.656     1430.575      702.777        1.946        0.212      184.947       18.899        0.010      341.601       16.424      864.042
08/29/2013  07:23:00      -66.293      -19.084        4.211       57.138       41.877       24.806     3264.777     1753.719      615.319        0.520        0.282       68.985       23.694        0.118      341.667       16.540      864.067
08/29/2013  07:24:00      -26.525      -17.840       16.252       28.295       34.449       19.838      800.585     1186.751      393.562        0.183        0.119       31.966       13.285        0.173      341.760       16.696      864.047
08/29/2013  07:25:00        5.593       11.336       22.782       11.590       17.147       12.992      134.321      294.023      168.797        0.064        0.030       12.640        4.175        0.109      341.909       16.950      864.025
08/29/2013  07:26:00      -52.216       68.579      -15.757       38.058       30.747       18.377     1448.382      945.349      337.720        0.520        0.137       86.195       20.551        0.057      341.763       16.702      864.007
08/29/2013  07:27:00      -30.160        8.239       13.012       33.272       14.249       12.726     1107.006      203.031      161.946        0.131        0.074       31.265       13.318        0.181      341.850       16.849      864.030
08/29/2013  07:28:00       34.162       21.837      -16.171       20.792       32.748       23.203      432.307     1072.416      538.390        0.197        0.102       40.545       11.372        0.079      341.754       16.686      864.077
08/29/2013  07:29:00       36.369      -49.062       -9.460       21.158       34.031       19.044      447.646     1158.101      362.693        0.289        0.098       61.072       13.571        0.049      341.550       16.340      864.119
08/29/2013  07:30:00       38.422      -27.871       -1.019       19.010       17.750       24.928      361.396      315.049      621.415        0.178        0.065       47.466       13.573        0.082      341.640       16.493      864.170
08/29/2013  07:31:00      -36.811        7.293        4.343       28.168       16.243       17.946      793.452      263.840      322.060        0.140        0.069       37.526       17.753        0.224      341.691       16.579      864.198
08/29/2013  07:32:00     -102.888       20.963      -11.631       29.106       19.413       13.368      847.141      376.852      178.711        0.628        0.070      105.002       10.824        0.011      341.746       16.671      864.229
08/29/2013  07:33:00      -82.531      -17.318       -8.035       26.432       21.642       15.223      698.656      468.356      231.739        0.429        0.070       84.328       15.918        0.036      341.695       16.586      864.264
08/29/2013  07:34:00       -5.532      -57.581       -6.613       27.996       34.608       19.924      783.796     1197.710      396.962        0.288        0.119       57.846        5.967        0.011      341.874       16.889      864.277
08/29/2013  07:35:00       18.262      -30.195        1.546       42.178       31.343       26.547     1778.946      982.398      704.738        0.236        0.173       35.288       24.633        0.487      342.068       17.219      864.272
08/29/2013  07:36:00       38.444      -13.460        9.039       43.947       46.645       39.727     1931.318     2175.745     1578.264        0.371        0.284       40.732       31.299        0.590      342.109       17.288      864.257
08/29/2013  07:37:00       30.333       30.456       27.775       41.042       38.543       29.291     1684.471     1485.562      857.984        0.332        0.201       42.985       14.080        0.107      342.086       17.249      864.216
08/29/2013  07:38:00       41.005       90.464      -11.756       31.170       31.556       17.809      971.586      995.802      317.175        0.614        0.114       99.323       13.869        0.019      342.009       17.120      864.162
08/29/2013  07:39:00       19.215       83.565       -5.474       29.736       30.922       24.550      884.229      956.193      602.689        0.491        0.122       85.746       23.031        0.072      342.221       17.478      864.139
08/29/2013  07:40:00       12.984       27.838        6.342       18.917       20.247       18.505      357.852      409.926      342.418        0.105        0.056       30.717       14.664        0.228      342.428       17.830      864.168
08/29/2013  07:41:00       36.472      -52.082        2.444       35.931       22.824       16.016     1291.032      520.941      256.507        0.306        0.103       63.583       10.999        0.030      342.015       17.129      864.205
08/29/2013  07:42:00      -28.081        1.641       24.660       45.016       20.377       22.482     2026.415      415.234      505.457        0.217        0.147       28.129       25.127        0.798      342.296       17.607      864.217
08/29/2013  07:43:00      -92.410      -23.130       -6.885       33.117       24.430       14.723     1096.764      596.813      216.757        0.552        0.096       95.261       13.406        0.020      342.052       17.192      864.205
08/29/2013  07:44:00      -77.495      -35.668       -8.274       27.663       27.441       14.156      765.240      753.012      200.386        0.453        0.086       85.309       10.269        0.014      342.154       17.362      864.204
08/29/2013  07:45:00       -3.896      -14.441        8.652       16.943       14.504       10.301      287.077      210.371      106.117        0.045        0.030       14.957        6.114        0.167      342.374       17.739      864.214
08/29/2013  07:46:00       25.423      -64.488       -7.962       32.104       44.374       34.058     1030.692     1969.031     1159.980        0.451        0.208       69.318       32.199        0.216      342.017       17.133      864.237
08/29/2013  07:47:00       26.108      -64.403        1.888       30.937       33.723       24.972      957.069     1137.231      623.584        0.377        0.136       69.493       21.929        0.100      342.038       17.168      864.274
08/29/2013  07:48:00       42.851      -32.038        7.144       37.351       38.714       25.896     1395.071     1498.805      670.606        0.324        0.178       53.503       28.584        0.285      342.491       17.938      864.290
08/29/2013  07:49:00       14.904       -7.810       14.972       30.219       20.177       18.027      913.194      407.123      324.977        0.108        0.082       16.826       19.070        1.285      342.727       18.339      864.298
08/29/2013  07:50:00       -1.750        3.264       33.564       17.011       12.491        8.983      289.374      156.027       80.687        0.083        0.026        3.704        5.211        1.979      342.992       18.790      864.299
08/29/2013  07:51:00       13.966       10.729       25.183       21.741       22.704       16.030      472.650      515.458      256.949        0.109        0.062       17.611       13.819        0.616      342.575       18.080      864.286
08/29/2013  07:52:00       25.221        5.621       22.354       23.924       30.436       22.314      572.337      926.323      497.921        0.158        0.100       25.839       16.662        0.416      342.504       17.960      864.267
08/29/2013  07:53:00       53.739       52.397        0.652       21.538       26.053       20.749      463.892      678.770      430.532        0.360        0.079       75.055       18.141        0.058      342.432       17.839      864.246
08/29/2013  07:54:00       20.998       81.785        1.372       36.655       60.633       36.052     1343.557     3676.378     1299.742        0.672        0.316       84.438       40.008        0.225      342.570       18.071      864.199
08/29/2013  07:55:00       26.486       82.599        2.829       37.559       57.609       35.464     1410.682     3318.843     1257.671        0.676        0.299       86.741       35.070        0.163      342.652       18.212      864.167
08/29/2013  07:56:00       49.370       40.422       12.687       42.974       22.743       30.053     1846.806      517.258      903.210        0.375        0.163       63.807        9.464        0.022      342.557       18.051      864.195
08/29/2013  07:57:00       66.897       39.455       45.401       20.072       21.243       19.411      402.875      451.269      376.773        0.466        0.062       77.665        6.886        0.008      342.464       17.893      864.237
08/29/2013  07:58:00       13.011       -5.228        2.432       16.080       21.288       17.599      258.566      453.163      309.731        0.061        0.051       14.022       12.617        0.810      342.468       17.899      864.278
08/29/2013  07:59:00        6.019       -4.724       18.652       20.374       13.792       16.256      415.108      190.219      264.250        0.064        0.043        7.651        7.200        0.886      342.804       18.471      864.305
08/29/2013  08:00:00       -5.021       11.596       20.725       10.466       16.544       14.443      109.528      273.697      208.591        0.059        0.030       12.637        9.978        0.623      343.164       19.084      864.329
08/29/2013  08:01:00       24.076      -27.490       -1.296       26.196       48.005       24.253      686.208     2304.476      588.203        0.246        0.179       36.542       24.813        0.461      342.413       17.805      864.351
08/29/2013  08:02:00      -11.546      -12.162       -6.973       25.459       28.738       16.691      648.140      825.880      278.578        0.104        0.088       16.770       20.891        1.552      342.164       17.381      864.366
08/29/2013  08:03:00      -58.555       21.186      -10.317       23.159       10.497        9.256      536.332      110.177       85.681        0.236        0.037       62.270        7.248        0.014      342.386       17.757      864.362
08/29/2013  08:04:00      -95.032        7.869       -5.054       29.718       30.309       18.136      883.164      918.620      328.920        0.562        0.107       95.357       13.982        0.022      342.522       17.989      864.339
08/29/2013  08:05:00      -21.584      -33.319       -3.090       32.893       24.878       14.978     1081.945      618.927      224.347        0.176        0.096       39.699       12.204        0.095      342.744       18.368      864.334
08/29/2013  08:06:00        4.363      -48.249        9.121       18.308       24.302       19.937      335.171      590.581      397.466        0.188        0.066       48.446       11.028        0.052      342.814       18.485      864.350
08/29/2013  08:07:00       19.568       -3.829       25.267       27.723       28.728       21.765      768.575      825.278      473.728        0.155        0.103       19.939       19.139        0.921      342.949       18.718      864.362
08/29/2013  08:08:00       26.993      -20.775        2.628       26.894       20.818       28.223      723.301      433.374      796.526        0.156        0.098       34.062       18.154        0.284      342.840       18.531      864.368
08/29/2013  08:09:00       -2.164        4.143       27.865       14.776       13.498       12.975      218.338      182.209      168.356        0.068        0.028        4.674        9.576        4.198      343.342       19.386      864.358
08/29/2013  08:10:00       -1.349       -2.473       15.143        9.848        7.119       12.837       96.989       50.673      164.801        0.027        0.016        2.817        7.679        7.431      343.299       19.315      864.345
08/29/2013  08:11:00       -3.971       -8.137        8.731       14.291       11.731       15.639      204.222      137.606      244.589        0.037        0.029        9.054       11.034        1.485      343.172       19.096      864.351
08/29/2013  08:12:00       37.464      -36.105        7.154       54.159       45.927       32.957     2933.145     2109.281     1086.169        0.444        0.306       52.030       26.125        0.252      342.677       18.254      864.360
08/29/2013  08:13:00       43.185       -6.180        1.597       38.107       38.329       28.335     1452.149     1469.134      802.894        0.281        0.186       43.625       17.752        0.166      342.669       18.240      864.364
08/29/2013  08:14:00       17.340      -10.342        4.554       20.513       23.404       21.894      420.785      547.751      479.346        0.094        0.072       20.190       10.504        0.271      343.006       18.814      864.362
08/29/2013  08:15:00       38.498       28.430       26.469       30.466       24.263       24.797      928.206      588.679      614.875        0.256        0.107       47.858       21.113        0.195      343.268       19.261      864.345
08/29/2013  08:16:00       42.448       45.847       -1.464       24.537       36.189       20.270      602.042     1309.674      410.893        0.311        0.116       62.480       15.570        0.062      342.922       18.671      864.331
08/29/2013  08:17:00       87.566       42.290        5.266       19.458       19.548       16.679      378.622      382.121      278.187        0.526        0.052       97.243       10.005        0.011      343.055       18.897      864.318
08/29/2013  08:18:00       44.400       37.390       11.644       21.370       23.188       20.350      456.682      537.702      414.116        0.246        0.070       58.047       15.989        0.076      343.184       19.118      864.329
08/29/2013  08:19:00       16.275      -36.265       14.134       38.220       18.391       19.520     1460.747      338.246      381.050        0.198        0.109       39.749       14.747        0.138      342.923       18.673      864.349
08/29/2013  08:20:00       15.516       -9.106       16.896       26.646       12.447       18.425      710.001      154.931      339.468        0.091        0.060       17.991       11.926        0.439      343.286       19.291      864.360
08/29/2013  08:21:00      -33.451      -10.523       -0.235       22.606       14.747       11.758      511.023      217.475      138.250        0.105        0.043       35.067        5.516        0.025      343.190       19.129      864.378
08/29/2013  08:22:00      -13.507      -42.258       -6.905       13.725       10.055        8.798      188.367      101.097       77.404        0.119        0.018       44.364        5.127        0.013      343.082       18.942      864.405
08/29/2013  08:23:00      -10.901      -43.327       -7.927       20.946       14.745       10.498      438.743      217.407      110.198        0.141        0.038       44.677        4.602        0.011      343.204       19.152      864.403
08/29/2013  08:24:00      -24.952      -28.989       -3.061       12.297       20.738        9.297      151.217      430.073       86.437        0.107        0.033       38.249        2.891        0.006      343.273       19.268      864.381
08/29/2013  08:25:00      -22.767        7.288       -3.779       12.196       10.072        8.623      148.741      101.455       74.360        0.046        0.016       23.905        6.080        0.065      343.358       19.414      864.349
08/29/2013  08:26:00        2.658       10.990        0.963       15.580       23.240       15.806      242.722      540.093      249.821        0.058        0.052       11.307       13.297        1.383      343.605       19.834      864.332
08/29/2013  08:27:00       -0.789      -24.008       10.280       13.794       34.261       20.317      190.266     1173.845      412.765        0.123        0.089       24.020       22.416        0.871      343.755       20.092      864.339
08/29/2013  08:28:00        0.705      -15.667       12.604       28.322       23.384       26.078      802.157      546.788      680.073        0.122        0.101       15.683       22.890        2.130      343.838       20.233      864.347
08/29/2013  08:29:00       29.128        1.626       26.432       31.653       25.102       28.168     1001.895      630.101      793.443        0.199        0.121       29.174       21.158        0.526      343.598       19.823      864.355
08/29/2013  08:30:00       -1.879        0.121       16.586       13.251       15.095       14.221      175.593      227.856      202.230        0.044        0.030        1.883       10.431       30.691      343.803       20.173      864.349
08/29/2013  08:31:00       -7.307       20.330       10.278       15.583       18.049       11.763      242.838      325.753      138.358        0.064        0.035       21.603       10.331        0.229      343.740       20.065      864.333
08/29/2013  08:32:00       20.481       28.798       10.182       25.220       20.865       15.871      636.045      435.344      251.874        0.134        0.066       35.338       14.473        0.168      344.009       20.524      864.323
08/29/2013  08:33:00       45.816       33.797       30.198       28.275       36.003       29.185      799.484     1296.208      851.770        0.355        0.147       56.933       21.834        0.147      343.830       20.219      864.344
08/29/2013  08:34:00       23.977      -50.700        4.830       29.707       45.286       30.058      882.495     2050.786      903.487        0.350        0.192       56.084       20.506        0.134      343.430       19.536      864.369
08/29/2013  08:35:00       10.326      -16.972       18.914       33.436       34.236       28.266     1117.988     1172.081      798.950        0.192        0.154       19.867       23.847        1.441      343.931       20.392      864.376
08/29/2013  08:36:00       17.204       10.560       35.860       31.649       46.616       24.091     1001.630     2173.029      580.385        0.272        0.188       20.186       27.166        1.811      343.717       20.025      864.370
08/29/2013  08:37:00        2.521      -10.728        4.862       23.911       22.165       20.979      571.717      491.304      440.129        0.082        0.075       11.020       18.083        2.693      343.747       20.077      864.346
08/29/2013  08:38:00      -19.066        8.007        4.135       22.499       14.678       13.268      506.209      215.430      176.045        0.067        0.045       20.679       14.311        0.479      343.845       20.244      864.317
08/29/2013  08:39:00      -46.044       -1.175       -0.617        7.201        9.188        8.926       51.855       84.425       79.680        0.117        0.011       46.059        5.000        0.012      343.570       19.773      864.300
08/29/2013  08:40:00       -9.439      -13.691       -7.777       11.323       13.715       10.959      128.203      188.106      120.096        0.039        0.022       16.629        7.693        0.214      343.865       20.278      864.296
08/29/2013  08:41:00       38.730      -18.524       13.014       44.322       27.511       26.478     1964.432      756.847      701.101        0.272        0.171       42.932       24.594        0.328      343.691       19.983      864.283
08/29/2013  08:42:00       -4.889       35.600       22.822       14.637       21.732       32.673      214.231      472.274     1067.509        0.178        0.088       35.934        4.443        0.015      343.947       20.419      864.251
08/29/2013  08:43:00      -14.115       -6.005        2.150        5.998       12.008       10.820       35.973      144.195      117.081        0.027        0.015       15.339        9.476        0.382      343.806       20.178      864.220
08/29/2013  08:44:00       -4.475       -0.052       15.411        8.295       12.666       15.953       68.811      160.430      254.486        0.037        0.024        4.475        8.676        3.758      344.357       21.119      864.200
08/29/2013  08:45:00       10.304       44.527       10.763       13.972       27.961       21.337      195.230      781.799      455.256        0.182        0.072       45.704       18.414        0.162      344.148       20.760      864.195
08/29/2013  08:46:00       42.601       -4.982       -5.674       33.198       65.014       21.201     1102.102     4226.758      449.493        0.382        0.289       42.892       12.586        0.086      343.916       20.367      864.197
08/29/2013  08:47:00       35.805      -32.979       16.015       43.977       49.339       34.106     1934.003     2434.353     1163.197        0.408        0.277       48.679       33.616        0.477      343.911       20.358      864.223
08/29/2013  08:48:00       71.429      -59.225       22.954       66.170       69.834       47.513     4378.471     4876.854     2257.476        1.032        0.576       92.788       40.410        0.190      343.799       20.167      864.229
08/29/2013  08:49:00       46.008      -10.612        9.859       37.157       64.093       32.340     1380.646     4107.874     1045.851        0.443        0.327       47.216       28.034        0.353      343.913       20.359      864.239
08/29/2013  08:50:00       76.630       41.912       15.516       26.479       30.722       23.187      701.112      943.845      537.629        0.503        0.109       87.343       10.506        0.014      343.990       20.491      864.233
08/29/2013  08:51:00       26.630       15.953       19.096       28.212       31.634       24.815      795.908     1000.700      615.805        0.187        0.121       31.042       16.811        0.293      344.138       20.745      864.247
08/29/2013  08:52:00        5.049      -42.638       -4.406       27.025       29.238       24.893      730.374      854.839      619.658        0.203        0.110       42.936       12.064        0.079      343.644       19.900      864.262
08/29/2013  08:53:00       -3.120       -2.807       27.386       15.231       15.705       14.268      231.990      246.660      203.587        0.072        0.034        4.197       11.426        7.412      344.473       21.317      864.265
08/29/2013  08:54:00        6.707       14.786       22.670       13.935       18.314       14.141      194.177      335.404      199.962        0.075        0.036       16.236       11.739        0.523      344.687       21.682      864.257
08/29/2013  08:55:00       17.197        6.753       21.025       18.521       16.770       20.929      343.039      281.238      438.029        0.092        0.053       18.476       12.375        0.449      344.654       21.627      864.256
08/29/2013  08:56:00        2.849       14.644       26.054       25.085       23.268       31.109      629.272      541.395      967.787        0.152        0.107       14.918       17.445        1.367      344.764       21.815      864.270
08/29/2013  08:57:00       38.554       23.091       20.318       25.666       23.947       25.533      658.749      573.459      651.943        0.216        0.094       44.940       13.292        0.087      344.240       20.920      864.281
08/29/2013  08:58:00       -2.479       27.465        7.108       17.343       16.489       18.327      300.779      271.896      335.893        0.086        0.045       27.577       11.802        0.183      344.503       21.367      864.272
08/29/2013  08:59:00        0.268       18.786       18.021       15.498       20.886       14.354      240.180      436.215      206.044        0.078        0.044       18.788        8.473        0.203      344.920       22.083      864.248
08/29/2013  09:00:00        2.607       11.035       28.226       19.737       13.758       18.909      389.567      189.278      357.562        0.093        0.047       11.339       14.731        1.688      345.530       23.127      864.232
08/29/2013  09:01:00       55.589       46.221       -0.154       41.190       34.669       27.793     1696.625     1201.957      772.465        0.445        0.184       72.295       19.567        0.073      344.660       21.636      864.220
08/29/2013  09:02:00        6.778       42.209       17.593       27.623       43.220       19.935      763.024     1867.935      397.416        0.258        0.151       42.750       24.895        0.339      344.888       22.027      864.223
08/29/2013  09:03:00      -26.326       24.518       -2.521       18.685       27.793       17.449      349.139      772.446      304.480        0.136        0.071       35.975       10.799        0.090      344.464       21.302      864.241
08/29/2013  09:04:00      -19.793      -13.263        5.111       17.864       10.937        8.596      319.116      119.612       73.893        0.055        0.026       23.826        7.969        0.112      344.386       21.168      864.248
08/29/2013  09:05:00      -24.174       10.779        2.115        8.855        9.772       11.518       78.403       95.489      132.668        0.051        0.015       26.468        7.540        0.081      344.392       21.178      864.253
08/29/2013  09:06:00       -3.532       34.904       21.880       34.960       40.823       19.677     1222.177     1666.524      387.177        0.249        0.164       35.082       21.544        0.377      344.911       22.067      864.245
08/29/2013  09:07:00       56.388       45.984       16.581       36.507       37.125       27.557     1332.741     1378.275      759.376        0.452        0.174       72.761       17.985        0.061      344.907       22.058      864.240
08/29/2013  09:08:00       -1.190       23.424       49.616       53.186       45.688       28.264     2828.747     2087.376      798.844        0.436        0.286       23.454       30.683        1.711      344.946       22.125      864.254
08/29/2013  09:09:00        1.025       53.356       42.617       42.170       45.313       43.069     1778.318     2053.252     1854.898        0.517        0.284       53.366       13.864        0.067      344.819       21.909      864.264
08/29/2013  09:10:00       98.784       90.394       52.186       28.717       30.452       34.075      824.669      927.325     1161.100        1.178        0.146      133.900       22.653        0.029      344.264       20.960      864.268
08/29/2013  09:11:00       39.290       40.257        2.743       27.397       20.439       22.739      750.610      417.751      517.059        0.243        0.084       56.252       14.345        0.065      344.510       21.381      864.273
08/29/2013  09:12:00       19.790       37.280       14.028       27.188       32.029       19.851      739.187     1025.874      394.076        0.207        0.108       42.207       18.084        0.184      344.826       21.921      864.277
08/29/2013  09:13:00       59.835       76.545        5.229       38.205       32.821       26.852     1459.660     1077.199      721.054        0.636        0.163       97.156       20.438        0.044      344.774       21.833      864.279
08/29/2013  09:14:00       91.758       62.418       10.153       29.025       21.009       24.184      842.471      441.366      584.858        0.714        0.093      110.975       12.080        0.012      344.640       21.601      864.281
08/29/2013  09:15:00       76.021       68.844       43.473       44.136       31.191       32.687     1948.018      972.861     1068.464        0.820        0.199      102.561       24.670        0.058      344.798       21.874      864.295
08/29/2013  09:16:00       53.502       69.641        2.793       41.393       54.938       34.854     1713.379     3018.164     1214.800        0.683        0.297       87.820       24.387        0.077      344.586       21.509      864.305
08/29/2013  09:17:00       47.056       51.648        9.853       23.225       40.440       25.738      539.417     1635.413      662.463        0.391        0.142       69.869       23.267        0.111      344.728       21.754      864.296
08/29/2013  09:18:00       22.128       11.885       26.123       33.142       13.270       18.120     1098.369      176.088      328.330        0.146        0.080       25.118       14.934        0.353      345.261       22.667      864.302
08/29/2013  09:19:00       22.568       34.584       31.812       24.278       25.899       23.127      589.418      670.760      534.840        0.226        0.090       41.297       13.165        0.102      345.159       22.491      864.312
08/29/2013  09:20:00       23.433       27.844       22.223       26.763       28.509       23.193      716.285      812.791      537.929        0.194        0.103       36.392       17.776        0.239      345.272       22.684      864.319
08/29/2013  09:21:00       37.869       31.282       -2.461       25.706       29.059       25.111      660.818      844.436      630.581        0.228        0.107       49.119       17.597        0.128      344.849       21.960      864.305
08/29/2013  09:22:00       -3.453       20.820       -1.029       20.441       35.240       18.467      417.839     1241.838      341.013        0.122        0.100       21.105       11.244        0.284      345.006       22.228      864.288
08/29/2013  09:23:00       -5.427       33.115        3.017       20.306       31.203       25.784      412.331      973.649      664.820        0.159        0.103       33.557       25.791        0.591      345.267       22.676      864.282
08/29/2013  09:24:00       47.332       40.936       16.886       28.514       34.400       24.265      813.049     1183.394      588.779        0.339        0.129       62.579       18.393        0.086      345.270       22.680      864.285
08/29/2013  09:25:00        8.018       81.348       -7.750       33.417       33.214       29.563     1116.725     1103.160      873.963        0.492        0.155       81.742       19.531        0.057      345.213       22.584      864.300
08/29/2013  09:26:00       -0.586       38.334       17.972       25.429       38.280       27.433      646.620     1465.329      752.553        0.233        0.143       38.339       26.357        0.473      345.554       23.167      864.301
08/29/2013  09:27:00        4.556       43.226       17.470       28.642       37.399       26.156      820.375     1398.722      684.122        0.255        0.145       43.465       18.057        0.173      345.587       23.223      864.298
08/29/2013  09:28:00       68.816       75.867       -2.339       53.754       46.589       29.999     2889.461     2170.552      899.915        0.823        0.298      102.427       26.187        0.065      345.255       22.654      864.293
08/29/2013  09:29:00       94.708       55.416       15.302       27.155       23.526       24.671      737.381      553.454      608.676        0.709        0.095      109.729       18.273        0.028      344.987       22.195      864.291
08/29/2013  09:30:00       98.880       50.062       10.991       33.376       30.112       29.829     1113.930      906.737      889.768        0.766        0.146      110.831       13.151        0.014      344.980       22.184      864.306
08/29/2013  09:31:00       52.997       41.223       10.015       32.639       25.466       26.335     1065.275      648.495      693.514        0.351        0.120       67.142       17.411        0.067      345.264       22.672      864.314
08/29/2013  09:32:00       30.400       65.407       -5.408       24.030       33.823       27.924      577.457     1144.025      779.768        0.387        0.125       72.126       26.352        0.133      345.340       22.800      864.323
08/29/2013  09:33:00       14.183       88.565        2.844       25.178       44.960       28.757      633.936     2021.420      826.976        0.577        0.174       89.693       28.189        0.099      345.562       23.181      864.329
08/29/2013  09:34:00      -20.835      120.230      -11.299       43.502       55.962       30.568     1892.401     3131.699      934.429        1.049        0.298      122.022       29.218        0.057      345.319       22.765      864.316
08/29/2013  09:35:00      -56.920       20.820       -8.065       26.442       45.770       21.808      699.201     2094.898      475.569        0.350        0.163       60.608       24.056        0.158      345.248       22.642      864.343
08/29/2013  09:36:00      -42.635      -16.920      -11.183       34.513       26.090       18.367     1191.118      680.700      337.351        0.222        0.110       45.869       17.107        0.139      345.344       22.806      864.354
08/29/2013  09:37:00      -22.148      -10.973       11.346       24.116       14.952       20.965      581.573      223.567      439.536        0.099        0.062       24.717       19.749        0.638      345.860       23.693      864.361
08/29/2013  09:38:00      -27.803      -26.909       -1.345       43.670       30.384       19.696     1907.095      923.175      387.945        0.236        0.161       38.692       15.102        0.152      345.637       23.310      864.371
08/29/2013  09:39:00      -66.282      -31.731       -1.989       49.707       24.071       19.618     2470.808      579.391      384.861        0.442        0.172       73.486        5.342        0.005      345.510       23.091      864.397
08/29/2013  09:40:00      -92.414      -23.804       -9.333       42.777       28.244       18.427     1829.907      797.727      339.562        0.608        0.148       95.430       15.077        0.025      345.475       23.034      864.413
08/29/2013  09:41:00      -33.363      -49.304        6.626       23.250       38.972       15.354      540.575     1518.829      235.756        0.294        0.115       59.531        9.796        0.027      345.531       23.129      864.418
08/29/2013  09:42:00      -52.304      -11.278       -0.549       17.767       20.531       13.735      315.658      421.539      188.639        0.189        0.046       53.506       11.958        0.050      345.560       23.177      864.406
08/29/2013  09:43:00      -63.394       23.209       -7.285       14.880       16.613       14.621      221.414      275.995      213.787        0.266        0.036       67.509        9.962        0.022      345.605       23.255      864.404
08/29/2013  09:44:00      -56.322       13.466       -5.154        9.921        9.173       10.271       98.424       84.145      105.498        0.183        0.014       57.909        4.901        0.007      345.544       23.150      864.397
08/29/2013  09:45:00      -28.665        4.007        5.460       22.538       13.010       16.073      507.982      169.251      258.331        0.090        0.047       28.944       10.495        0.131      345.959       23.862      864.400
08/29/2013  09:46:00      -42.669        0.395       -0.575       19.762       21.224       23.727      390.545      450.448      562.953        0.161        0.070       42.671       17.717        0.172      345.877       23.724      864.404
08/29/2013  09:47:00      -45.405       -6.195        3.875       16.491       16.717       16.812      271.956      279.448      282.653        0.147        0.042       45.826       12.388        0.073      345.762       23.524      864.407
08/29/2013  09:48:00      -41.250        6.548       16.476       25.556       18.154       17.603      653.097      329.572      309.857        0.165        0.065       41.766       16.896        0.164      346.070       24.054      864.399
08/29/2013  09:49:00       -3.994        6.142       27.360       15.737       13.883       11.178      247.644      192.751      124.941        0.068        0.028        7.326        6.919        0.892      346.861       25.413      864.397
08/29/2013  09:50:00       -9.516        6.646       30.984       10.240       15.371       15.944      104.855      236.275      254.197        0.084        0.030       11.607        8.576        0.546      347.048       25.736      864.375
08/29/2013  09:51:00       -0.303       -4.757       24.817       20.223       29.087       20.821      408.970      846.075      433.516        0.116        0.084        4.767       14.157        8.822      346.578       24.925      864.364
08/29/2013  09:52:00        5.391      -11.928       20.595       21.398       22.040       22.193      457.863      485.760      492.508        0.102        0.072       13.090       11.713        0.801      346.479       24.756      864.354
08/29/2013  09:53:00       44.824        5.546       11.033       58.595       68.269       30.868     3433.390     4660.628      952.804        0.560        0.452       45.165       21.266        0.222      346.009       23.950      864.353
08/29/2013  09:54:00      103.117       59.506       33.565       63.701       42.872       37.834     4057.876     1838.026     1431.398        1.131        0.366      119.055       36.879        0.096      346.154       24.198      864.352
08/29/2013  09:55:00       12.546      -12.036       34.417       46.970       86.504       41.968     2206.136     7482.975     1761.304        0.647        0.573       17.386       49.441        8.087      345.991       23.918      864.367
08/29/2013  09:56:00       51.666       -1.968       32.638       32.302       28.921       26.277     1043.426      836.453      690.475        0.315        0.129       51.703       21.811        0.178      346.136       24.168      864.390
08/29/2013  09:57:00        6.478      -17.623       -3.787       26.401       52.659       26.317      697.005     2772.925      692.587        0.226        0.208       18.776       25.729        1.878      345.898       23.758      864.395
08/29/2013  09:58:00        4.873       14.365       11.467       21.032       27.900       21.840      442.357      778.426      477.006        0.103        0.085       15.169       19.521        1.656      346.487       24.770      864.388
08/29/2013  09:59:00       13.460       12.127       23.815       17.307       29.247       20.346      299.528      855.375      413.972        0.123        0.078       18.117       18.234        1.013      346.569       24.910      864.380
08/29/2013  10:00:00        0.617       16.836        2.577       24.528       21.301       30.162      601.613      453.713      909.747        0.113        0.098       16.847       20.663        1.504      346.495       24.784      864.365
08/29/2013  10:01:00       71.015       47.708      -13.720       37.845       42.553       30.475     1432.246     1810.762      928.743        0.584        0.209       85.552       15.747        0.034      346.214       24.300      864.360
08/29/2013  10:02:00       67.517       42.608        3.974       31.415       23.787       27.087      986.892      565.803      733.729        0.434        0.114       79.837       16.019        0.040      346.453       24.712      864.344
08/29/2013  10:03:00       11.584       23.343       34.846       28.970       31.178       20.026      839.242      972.044      401.052        0.205        0.111       26.059       15.558        0.356      347.147       25.905      864.345
08/29/2013  10:04:00       25.874       30.635       26.551       30.248       24.673       26.672      914.970      608.778      711.390        0.227        0.112       40.099       23.992        0.358      346.975       25.609      864.335
08/29/2013  10:05:00       32.692       38.184       12.622       24.353       17.675       22.901      593.079      312.414      524.451        0.206        0.071       50.268       12.290        0.060      346.595       24.956      864.335
08/29/2013  10:06:00       37.768       68.908        3.051       33.097       59.733       32.045     1095.380     3568.082     1026.895        0.594        0.285       78.579       33.041        0.177      346.620       24.998      864.320
08/29/2013  10:07:00       50.348       46.775       10.420       23.464       28.837       33.459      550.548      831.589     1119.510        0.367        0.125       68.723       22.964        0.112      346.429       24.672      864.323
08/29/2013  10:08:00       26.742       54.800       19.181       41.008       41.212       35.735     1681.681     1698.437     1276.972        0.437        0.233       60.977       27.360        0.201      346.735       25.197      864.331
08/29/2013  10:09:00       37.860       42.622        8.875       27.904       19.364       25.189      778.613      374.980      634.462        0.256        0.089       57.009       13.805        0.059      346.695       25.128      864.332
08/29/2013  10:10:00      -29.224       12.780       20.919       24.847       27.796       22.312      617.362      772.612      497.813        0.167        0.094       31.896       16.739        0.275      347.057       25.752      864.352
08/29/2013  10:11:00      -64.160       23.523       -8.221       27.208       24.104       30.248      740.265      581.015      914.954        0.349        0.112       68.336        6.027        0.008      346.717       25.166      864.359
08/29/2013  10:12:00       -9.008       15.547       14.971       27.847       21.214       25.243      775.441      450.022      637.231        0.120        0.093       17.968       15.402        0.735      347.218       26.027      864.364
08/29/2013  10:13:00      -36.244       18.223       22.541       21.573       17.496       13.931      465.416      306.127      194.075        0.156        0.048       40.567       14.885        0.135      346.801       25.311      864.369
08/29/2013  10:14:00        9.660       41.214       15.662       21.741       45.131       27.830      472.687     2036.768      774.521        0.266        0.164       42.330       18.190        0.185      346.987       25.631      864.363
08/29/2013  10:15:00       16.041       82.805      -12.090       34.140       42.655       27.247     1165.563     1819.459      742.424        0.549        0.186       84.344       22.609        0.072      346.851       25.396      864.362
08/29/2013  10:16:00      -36.264       41.508       -8.116       17.526       21.498       28.283      307.156      462.150      799.930        0.234        0.078       55.118       15.503        0.079      346.925       25.523      864.358
08/29/2013  10:17:00        6.392       36.785       16.237       15.886       25.638       29.851      252.364      657.318      891.064        0.173        0.090       37.336       20.718        0.308      347.155       25.922      864.347
08/29/2013  10:18:00       25.431       11.406        4.154       22.843       28.932       19.118      521.780      837.062      365.479        0.126        0.086       27.872       14.014        0.253      346.840       25.377      864.340
08/29/2013  10:19:00       15.980       21.222       27.292       23.301       28.438       19.322      542.939      808.720      373.355        0.159        0.086       26.566        9.310        0.123      347.011       25.672      864.330
08/29/2013  10:20:00       20.705      -15.910       13.131       33.450       42.989       33.446     1118.898     1848.057     1118.659        0.247        0.204       26.111       27.075        1.075      346.990       25.635      864.339
08/29/2013  10:21:00       48.380      -73.598       15.720       55.250       75.177       45.806     3052.535     5651.557     2098.145        0.940        0.540       88.076       45.387        0.266      347.278       26.131      864.336
08/29/2013  10:22:00       20.928      -67.603       13.002       45.848       70.308       40.360     2102.009     4943.223     1628.927        0.692        0.434       70.768       42.430        0.359      347.256       26.095      864.351
08/29/2013  10:23:00       53.855      -49.996       30.376       47.524       94.797       44.286     2258.572     8986.400     1961.264        0.976        0.660       73.484       50.793        0.478      347.319       26.201      864.359
08/29/2013  10:24:00       78.967      -21.812       36.372       87.883       97.306       63.634     7723.357     9468.419     4049.261        1.463        1.062       81.924       75.364        0.846      347.187       25.973      864.358
08/29/2013  10:25:00       42.553      -15.386       59.781       53.845       72.480       55.266     2899.321     5253.366     3054.374        0.841        0.560       45.249       46.600        1.061      347.112       25.846      864.375
08/29/2013  10:26:00       78.480      -24.586       26.118       75.925       69.305       43.146     5764.569     4803.219     1861.584        0.994        0.621       82.241       41.863        0.259      347.078       25.786      864.372
08/29/2013  10:27:00       91.966      -11.595       28.025       66.723       50.328       48.723     4452.025     2532.871     2373.942        0.937        0.468       92.694       41.702        0.202      346.831       25.364      864.371
08/29/2013  10:28:00       48.704       19.003       -4.560       46.084       37.431       26.556     2123.717     1401.099      705.215        0.349        0.212       52.280       14.807        0.080      346.839       25.377      864.374
08/29/2013  10:29:00       -0.113       38.374       56.326       50.863       37.343       50.883     2587.035     1394.497     2589.039        0.561        0.329       38.374       33.162        0.747      347.348       26.253      864.349
08/29/2013  10:30:00       19.653       -8.231       30.486       43.814       50.686       36.359     1919.632     2569.059     1321.985        0.360        0.291       21.307       30.360        2.030      347.090       25.807      864.364
08/29/2013  10:31:00       52.567       -4.196       31.064       56.603       65.175       46.971     3203.951     4247.749     2206.300        0.670        0.483       52.734       50.920        0.932      346.952       25.571      864.361
08/29/2013  10:32:00      -56.057      -42.536       25.102       94.246       61.723       37.587     8882.332     3809.788     1412.773        0.984        0.705       70.368       39.090        0.309      347.124       25.866      864.353
08/29/2013  10:33:00      -23.549      -73.352       -0.191       49.879       48.115       28.842     2487.891     2315.044      831.872        0.578        0.282       77.039       21.583        0.078      347.015       25.680      864.352
08/29/2013  10:34:00     -135.297      -84.061       -3.572       53.491       35.548       27.824     2861.322     1263.667      774.180        1.514        0.245      159.284       22.818        0.021      346.808       25.322      864.354
08/29/2013  10:35:00      -52.691      -25.240        8.914       32.342       30.665       15.096     1046.020      940.318      227.898        0.285        0.111       58.424        7.271        0.015      346.947       25.561      864.341
08/29/2013  10:36:00       31.249        5.186       36.257       34.237       45.117       36.253     1172.151     2035.512     1314.296        0.342        0.226       31.677       31.797        1.008      347.624       26.729      864.331
08/29/2013  10:37:00       16.560       -7.899       51.090       49.280       60.542       40.951     2428.519     3665.393     1676.984        0.536        0.389       18.347       41.939        5.225      347.452       26.432      864.310
08/29/2013  10:38:00      -15.907      -97.323       -8.297       87.034       67.496       43.683     7574.857     4555.742     1908.203        1.191        0.702       98.614       35.177        0.127      347.179       25.960      864.323
08/29/2013  10:39:00        3.133      -68.043       16.601       54.616       72.721       37.825     2982.895     5288.315     1430.761        0.731        0.485       68.116       40.351        0.351      347.458       26.443      864.318
08/29/2013  10:40:00       53.746      -47.748       26.121       48.318      100.851       47.255     2334.629    10170.988     2233.052        1.029        0.737       71.892       60.445        0.707      347.434       26.400      864.323
08/29/2013  10:41:00       58.639        9.513       38.624       45.644       52.885       34.787     2083.360     2796.832     1210.139        0.555        0.305       59.406       35.563        0.358      347.105       25.835      864.307
08/29/2013  10:42:00       61.156      -67.080       -5.506       62.503      104.358       47.031     3906.654    10890.630     2211.892        1.264        0.850       90.773       55.568        0.375      347.141       25.895      864.307
08/29/2013  10:43:00       62.767      -67.072       28.622       69.591      121.050       83.294     4842.855    14653.124     6937.821        1.784        1.322       91.861       85.215        0.861      347.511       26.532      864.292
08/29/2013  10:44:00        3.814      -33.368        3.174       65.762       65.965       27.790     4324.577     4351.339      772.279        0.529        0.472       33.585       27.443        0.668      347.387       26.319      864.311
08/29/2013  10:45:00      -20.368      -10.585       28.002       28.493       33.884       23.001      811.867     1148.110      529.066        0.190        0.124       22.954       14.083        0.376      347.834       27.091      864.300
08/29/2013  10:46:00        9.791      -20.150       24.298       35.654       36.641       29.194     1271.237     1342.552      852.297        0.228        0.173       22.402       25.908        1.337      347.715       26.886      864.295
08/29/2013  10:47:00       53.318       -1.209       65.476       65.666       97.473       79.945     4311.963     9501.047     6391.132        1.366        1.010       53.331       74.328        1.942      347.626       26.731      864.282
08/29/2013  10:48:00       72.097       56.326       96.973       80.945       87.707       50.822     6552.014     7692.544     2582.863        1.730        0.841       91.491       45.785        0.250      347.425       26.384      864.260
08/29/2013  10:49:00       62.286       20.287       47.344       86.179       72.346       59.998     7426.856     5233.987     3599.810        1.139        0.813       65.507       50.712        0.599      347.524       26.556      864.258
08/29/2013  10:50:00       20.619       59.242       87.295       48.793       68.757       41.204     2380.718     4727.497     1697.781        1.018        0.440       62.728       39.172        0.390      347.500       26.514      864.269
08/29/2013  10:51:00       26.275       13.376       17.683       32.104       37.373       37.942     1030.635     1396.763     1439.606        0.252        0.193       29.484       26.233        0.792      347.345       26.248      864.247
08/29/2013  10:52:00       -5.800       16.197       40.252       24.665       29.372       27.147      608.367      862.742      736.944        0.206        0.110       17.204       20.349        1.399      347.760       26.965      864.236
08/29/2013  10:53:00       19.041      -10.921       60.702       52.936       72.931       51.889     2802.267     5318.938     2692.508        0.749        0.541       21.951       55.634        6.424      347.867       27.148      864.216
08/29/2013  10:54:00       94.801      -52.086       35.971      100.156      142.817       79.674    10031.204    20396.612     6347.960        2.488        1.839      108.167       99.633        0.848      347.375       26.298      864.202
08/29/2013  10:55:00      101.653      -54.042       43.516      107.217      199.176       95.691    11495.420    39671.099     9156.674        3.772        3.016      115.125      132.690        1.328      347.432       26.394      864.228
08/29/2013  10:56:00       19.917       30.183       51.323       33.581       36.782       29.304     1127.670     1352.952      858.710        0.364        0.167       36.163       26.882        0.553      347.620       26.722      864.236
08/29/2013  10:57:00        1.801      -54.332        3.964       26.817       53.150       28.887      719.164     2824.973      834.436        0.367        0.219       54.362       17.947        0.109      347.377       26.302      864.233
08/29/2013  10:58:00       37.189      -81.320       13.472       49.931       60.287       38.001     2493.122     3634.471     1444.057        0.787        0.379       89.420       18.774        0.044      347.281       26.138      864.225
08/29/2013  10:59:00       81.027       13.926       88.852       94.800       97.232       67.012     8987.001     9454.064     4490.657        1.879        1.147       82.215       65.123        0.627      347.665       26.798      864.201
08/29/2013  11:00:00        4.708       93.678      142.266       50.247       75.838       54.391     2524.720     5751.372     2958.401        2.013        0.562       93.796       50.543        0.290      347.702       26.861      864.208
08/29/2013  11:01:00      163.435     -124.670       10.382      161.255      205.159      101.324    26003.103    42090.243    10266.571        6.034        3.918      205.557      140.068        0.464      347.303       26.172      864.169
08/29/2013  11:02:00      134.543     -117.653       38.942      104.326      170.074       92.040    10883.868    28925.066     8471.421        4.086        2.414      178.729      117.622        0.433      347.545       26.591      864.156
08/29/2013  11:03:00      128.819     -191.057      -34.109       88.732       96.097       61.575     7873.348     9234.607     3791.518        3.758        1.045      230.428       49.822        0.047      347.439       26.406      864.188
08/29/2013  11:04:00      136.011     -193.222       -8.794      117.844      110.101       63.421    13887.147    12122.138     4022.280        4.297        1.502      236.292       54.238        0.053      347.239       26.060      864.171
08/29/2013  11:05:00       67.656       79.290      124.671      105.919      143.582       99.725    11218.772    20615.809     9945.036        3.409        2.089      104.231      102.709        0.971      347.587       26.661      864.154
08/29/2013  11:06:00       81.845       74.990       70.189       60.290       56.536       46.314     3634.871     3196.302     2144.985        1.311        0.449      111.005       29.004        0.068      347.583       26.657      864.163
08/29/2013  11:07:00       65.549       64.189       88.238       96.591      100.498       72.297     9329.872    10099.846     5226.823        2.042        1.233       91.744       65.523        0.510      347.800       27.029      864.161
08/29/2013  11:08:00      164.807      191.815      169.217      142.663       96.325       97.782    20352.599     9278.516     9561.338        6.588        1.960      252.892       93.419        0.136      347.726       26.901      864.129
08/29/2013  11:09:00       77.870       98.300      136.853       97.101       99.785       68.623     9428.646     9957.060     4709.105        2.927        1.205      125.406       67.443        0.289      347.764       26.966      864.142
08/29/2013  11:10:00       88.230       13.156       89.462      105.555      136.370       77.665    11141.853    18596.749     6031.863        2.586        1.789       89.206       89.768        1.013      347.595       26.676      864.150
08/29/2013  11:11:00       48.394       40.342       79.754       78.861       76.916       55.550     6218.997     5916.141     3085.850        1.277        0.761       63.003       57.882        0.844      347.710       26.877      864.166
08/29/2013  11:12:00       70.713       96.869      106.817       94.518      107.648       75.664     8933.621    11588.031     5725.009        2.602        1.312      119.933       79.610        0.441      347.706       26.868      864.132
08/29/2013  11:13:00       86.734      137.195      157.977       72.701       97.070       59.084     5285.501     9422.505     3490.962        3.475        0.910      162.312       58.060        0.128      347.352       26.258      864.110
08/29/2013  11:14:00       46.086       24.461       86.994       85.031      141.584       80.774     7230.220    20046.139     6524.518        2.204        1.690       52.175       98.156        3.539      347.785       27.004      864.143
08/29/2013  11:15:00      100.237     -183.237      -17.234       85.798      104.503       64.595     7361.231    10920.960     4172.503        3.318        1.123      208.862       67.809        0.105      347.658       26.785      864.120
08/29/2013  11:16:00      147.332     -156.645      -19.643      106.850      159.076       85.873    11416.964    25305.215     7374.165        4.535        2.205      215.045      101.182        0.221      348.011       27.392      864.092
08/29/2013  11:17:00       84.159       27.111      115.335      116.442      169.676      116.143    13558.688    28790.010    13489.089        3.847        2.792       88.418      120.344        1.853      347.931       27.256      864.091
08/29/2013  11:18:00      142.131     -134.921       -1.453      117.930      134.846       94.305    13907.529    18183.466     8893.344        3.969        2.049      195.971       96.727        0.244      347.741       26.928      864.080
08/29/2013  11:19:00      200.852     -140.749       -4.706      145.804      175.881      102.133    21258.704    30934.146    10431.189        6.139        3.131      245.259      130.834        0.285      347.756       26.954      864.089
08/29/2013  11:20:00       43.939      -68.314       54.298       73.149      110.315       77.196     5350.736    12169.395     5959.208        1.651        1.174       81.225       72.921        0.806      347.895       27.195      864.092
08/29/2013  11:21:00       27.343      -17.628       67.856       48.646      114.019       64.840     2366.425    13000.263     4204.260        1.261        0.979       32.533       77.301        5.646      347.544       26.590      864.088
08/29/2013  11:22:00       35.393      -59.196       39.073       61.367      117.235       67.486     3765.884    13744.161     4554.412        1.417        1.103       68.970       64.989        0.888      347.919       27.237      864.098
08/29/2013  11:23:00       21.269        8.113       70.732       66.319      116.172       68.815     4398.206    13495.977     4735.492        1.407        1.131       22.764       81.011       12.665      348.050       27.461      864.105
08/29/2013  11:24:00      -41.162      -17.464       29.767       48.816       71.434       55.654     2383.022     5102.869     3097.318        0.673        0.529       44.714       44.300        0.982      348.158       27.648      864.094
08/29/2013  11:25:00       38.039     -119.041       -8.133      119.172      145.217       44.415    14201.882    21087.986     1972.717        2.647        1.863      124.971       47.974        0.147      347.859       27.134      864.093
08/29/2013  11:26:00      106.767     -198.928      -17.165      105.333       82.567       51.409    11095.127     6817.381     2642.850        3.591        1.028      225.769       47.729        0.045      347.577       26.646      864.089
08/29/2013  11:27:00       54.791      -76.180       14.223       85.447      127.507       80.254     7301.166    16257.965     6440.717        1.950        1.500       93.837       82.941        0.781      347.926       27.248      864.075
08/29/2013  11:28:00       39.454       45.460       70.873       59.439       61.342       50.962     3532.971     3762.881     2597.138        0.927        0.495       60.193       40.428        0.451      347.712       26.880      864.062
08/29/2013  11:29:00       49.315      -33.831       31.281       76.936       99.860       45.488     5919.095     9971.943     2069.115        1.125        0.898       59.803       62.274        1.084      347.987       27.353      864.078
08/29/2013  11:30:00       23.595       24.441       17.948       40.475       32.813       32.575     1638.248     1076.670     1061.136        0.263        0.189       33.972       21.126        0.387      347.657       26.784      864.085
08/29/2013  11:31:00       43.706       -9.120       30.193       54.568       65.247       37.846     2977.721     4257.199     1432.353        0.578        0.433       44.647       42.129        0.890      347.856       27.129      864.071
08/29/2013  11:32:00       90.764       20.813       90.048       88.123      121.760       72.097     7765.693    14825.431     5197.926        2.228        1.389       93.119       81.600        0.768      347.718       26.888      864.044
08/29/2013  11:33:00      141.387       76.912       80.426       99.422       75.932       64.999     9884.696     5765.671     4224.907        2.612        0.994      160.952       50.782        0.100      347.518       26.544      864.034
08/29/2013  11:34:00       39.201      -41.130       23.300       51.301       85.301       40.938     2631.778     7276.264     1675.885        0.768        0.579       56.819       47.623        0.703      347.952       27.294      864.019
08/29/2013  11:35:00       84.543       11.165       66.067      126.999      104.820       78.093    16128.860    10987.260     6098.543        2.242        1.661       85.277       69.691        0.668      347.942       27.276      864.000
08/29/2013  11:36:00       58.701       21.435       62.645       61.404       74.336       48.708     3770.437     5525.859     2372.473        0.975        0.583       62.492       31.445        0.253      348.081       27.516      864.023
08/29/2013  11:37:00       45.200       -2.864       10.904       63.103       50.528       32.355     3981.978     2553.064     1046.842        0.487        0.379       45.291       32.672        0.520      347.869       27.150      864.043
08/29/2013  11:38:00       61.154       52.535       29.779       40.248       28.696       23.944     1619.895      823.472      573.337        0.520        0.151       80.621       19.007        0.056      347.770       26.981      864.044
08/29/2013  11:39:00       15.333       33.579       13.825       34.756       55.588       34.155     1207.965     3090.031     1166.537        0.351        0.273       36.914       38.202        1.071      348.275       27.853      864.046
08/29/2013  11:40:00      127.680       88.455       35.572       49.908       39.245       37.600     2490.777     1540.174     1413.764        1.542        0.272      155.326       11.242        0.005      347.727       26.906      864.040
08/29/2013  11:41:00      113.197       69.725       42.847       56.317       51.354       50.320     3171.623     2637.253     2532.072        1.392        0.417      132.947       28.623        0.046      348.065       27.488      864.021
08/29/2013  11:42:00       47.482       11.142        9.694       48.903       62.082       39.323     2391.499     3854.193     1546.329        0.513        0.390       48.772       21.401        0.193      348.184       27.696      864.025
08/29/2013  11:43:00      -21.398      -55.819        0.318       66.658       61.125       37.975     4443.280     3736.314     1442.082        0.660        0.481       59.780       22.178        0.138      348.358       27.995      864.030
08/29/2013  11:44:00      -20.137      -91.394       -6.006       77.391       87.883       42.268     5989.364     7723.393     1786.556        1.214        0.775       93.586       47.240        0.255      348.299       27.894      864.049
08/29/2013  11:45:00       34.120       56.958       96.107       71.004       68.911       67.762     5041.595     4748.701     4591.666        1.401        0.719       66.396       35.850        0.292      348.598       28.410      864.027
08/29/2013  11:46:00       -1.165     -146.902       -3.538       74.278      105.044       76.671     5517.228    11034.241     5878.397        2.201        1.121      146.907       73.054        0.247      348.052       27.466      864.043
08/29/2013  11:47:00       40.765     -191.911      -26.587      108.327       96.266       66.102    11734.788     9267.217     4369.471        3.228        1.269      196.193       62.558        0.102      347.744       26.931      864.072
08/29/2013  11:48:00      -51.228       10.758       26.388       48.892       29.598       30.166     2390.412      876.019      909.990        0.381        0.209       52.345       27.399        0.274      348.337       27.960      864.072
08/29/2013  11:49:00      -48.713       -2.047      -11.264       35.924       25.060       23.801     1290.515      627.991      566.470        0.249        0.124       48.756       21.281        0.191      347.817       27.061      864.070
08/29/2013  11:50:00       20.594       -3.173       32.996       39.000       24.560       18.382     1520.983      603.188      337.899        0.199        0.123       20.837        6.025        0.084      348.104       27.558      864.051
08/29/2013  11:51:00      -11.759        1.708       16.592       34.958       15.597       21.700     1222.071      243.276      470.906        0.118        0.097       11.882       15.588        1.721      348.373       28.022      864.052
08/29/2013  11:52:00      -28.221      -11.765       14.237       47.206       37.199       23.729     2228.436     1383.779      563.079        0.266        0.209       30.575       17.827        0.340      348.070       27.499      864.044
08/29/2013  11:53:00      -74.748      -51.767        2.560       39.072       35.915       26.024     1526.634     1289.882      677.236        0.588        0.175       90.924       24.414        0.072      347.916       27.233      864.028
08/29/2013  11:54:00      -18.984      -30.659       -1.651       26.811       42.594       22.638      718.806     1814.221      512.471        0.217        0.152       36.060       11.342        0.099      347.905       27.214      864.012
08/29/2013  11:55:00       -9.209       -7.092       22.400       25.279       43.472       27.247      639.027     1889.825      742.384        0.195        0.164       11.624       19.388        2.782      348.477       28.202      864.000
08/29/2013  11:56:00      -88.542      -37.250        7.770       81.611       45.093       29.634     6660.326     2033.388      878.175        0.943        0.479       96.059       29.736        0.096      347.971       27.328      863.981
08/29/2013  11:57:00      -76.501      -28.831        1.206       47.574       28.251       22.220     2263.274      798.141      493.724        0.512        0.178       81.754       18.243        0.050      347.912       27.225      863.994
08/29/2013  11:58:00       -6.645      -43.554       -0.056       64.198       47.381       31.773     4121.340     2244.971     1009.547        0.466        0.369       44.058       23.128        0.276      347.968       27.322      863.999
08/29/2013  11:59:00      103.161      -89.192       45.804       90.225      127.576       67.247     8140.548    16275.611     4522.137        2.481        1.447      136.373       72.305        0.281      348.303       27.900      863.980
08/29/2013  12:00:00       51.730     -122.118       20.089       81.611       94.926       54.686     6660.362     9010.956     2990.562        1.832        0.933      132.623       49.284        0.138      348.250       27.807      863.994
08/29/2013  12:01:00      108.656      -45.101       34.131      111.783      142.916       73.769    12495.509    20424.982     5441.865        2.668        1.918      117.645       76.928        0.428      348.476       28.198      864.007
08/29/2013  12:02:00       97.547     -120.473       11.210      127.066      165.050       92.551    16145.773    27241.647     8565.617        3.804        2.598      155.013      100.541        0.421      348.222       27.759      863.993
08/29/2013  12:03:00      115.049     -237.489      -17.592       79.894      103.479       59.875     6383.047    10707.947     3585.069        4.531        1.034      263.889       54.551        0.043      348.085       27.521      863.956
08/29/2013  12:04:00       40.730       13.970       62.923       69.480       94.058       48.442     4827.516     8846.860     2346.656        1.091        0.801       43.060       46.695        1.176      348.472       28.192      863.938
08/29/2013  12:05:00      158.562     -227.792        2.831      122.685      177.787       83.327    15051.512    31608.303     6943.410        6.531        2.680      277.544       87.650        0.100      348.215       27.744      863.920
08/29/2013  12:06:00      162.340     -216.512       10.114      172.913      103.718       62.866    29898.967    10757.457     3952.186        5.896        2.230      270.613       42.600        0.025      348.340       27.962      863.871
08/29/2013  12:07:00      112.662     -102.744       79.159      166.541      298.130      181.860    27735.755    88881.264    33073.225        8.957        7.485      152.476      226.945        2.215      348.343       27.967      863.803
08/29/2013  12:08:00       87.949     -251.693      -37.798      135.935      138.137       78.919    18478.192    19081.755     6228.227        5.814        2.189      266.617       85.667        0.103      348.312       27.915      863.896
08/29/2013  12:09:00       11.465     -103.102       35.107       84.775      151.742       78.002     7186.722    23025.731     6084.374        2.414        1.815      103.738       99.658        0.923      348.662       28.521      863.912
08/29/2013  12:10:00       54.155     -127.414       34.297      107.255      188.760       92.032    11503.666    35630.288     8469.898        3.796        2.780      138.445      115.074        0.691      348.436       28.128      863.917
08/29/2013  12:11:00      111.322      -11.605      125.789      147.549      199.330      141.562    21770.777    39732.331    20039.697        5.493        4.077      111.925      167.587        2.242      348.530       28.290      863.888
08/29/2013  12:12:00       85.834       18.456      124.134      122.297      114.629       91.733    14956.531    13139.903     8414.872        2.981        1.826       87.796       85.665        0.952      348.574       28.368      863.884
08/29/2013  12:13:00       40.384     -106.371      -15.904      115.016      115.005       72.313    13228.781    13226.239     5229.113        2.243        1.584      113.779       69.590        0.374      348.507       28.250      863.901
08/29/2013  12:14:00       70.633      -45.647       88.967      146.561      171.775       97.105    21480.073    29506.722     9429.300        3.769        3.021       84.099      102.032        1.472      348.734       28.646      863.913
08/29/2013  12:15:00      226.295      -93.606       53.772      192.608      216.678      116.560    37097.708    46949.211    13586.238        8.023        4.882      244.890      152.724        0.389      348.370       28.015      863.868
08/29/2013  12:16:00      197.807      -22.405      136.605      203.179      184.902      139.202    41281.576    34188.603    19377.179        7.655        4.742      199.072      160.000        0.646      348.487       28.214      863.791
08/29/2013  12:17:00       61.480      -86.995       69.834      101.821      171.528       86.133    10367.591    29421.693     7418.927        3.171        2.360      106.527       89.533        0.706      348.542       28.311      863.814
08/29/2013  12:18:00       91.834      -31.341      115.762      126.614      166.102      128.616    16031.048    27589.792    16542.148        4.148        3.008       97.034      106.976        1.215      348.809       28.775      863.786
08/29/2013  12:19:00      -25.357     -160.655       -4.667      145.815      128.526       87.309    21261.939    16519.031     7622.857        3.593        2.270      162.643       62.427        0.147      348.735       28.645      863.803
08/29/2013  12:20:00      -85.590      -55.113       19.456       71.587       71.345       41.819     5124.710     5090.076     1748.853        1.135        0.598      101.799       47.531        0.218      348.741       28.658      863.893
08/29/2013  12:21:00      100.340     -210.430       13.567      108.767      221.555      105.288    11830.364    49086.675    11085.659        6.325        3.600      233.128      112.267        0.232      348.643       28.486      863.887
08/29/2013  12:22:00      137.886     -204.369       15.702      143.598      192.647       95.077    20620.321    37113.028     9039.650        6.389        3.339      246.535      114.075        0.214      348.617       28.441      863.848
08/29/2013  12:23:00       69.281     -124.366       35.915      160.614      142.143       78.724    25796.938    20204.700     6197.521        3.687        2.610      142.361       85.229        0.358      348.529       28.290      863.872
08/29/2013  12:24:00      108.710     -154.086       33.224      159.902      197.374      119.109    25568.518    38956.652    14187.038        5.767        3.936      188.575      131.322        0.485      348.737       28.648      863.845
08/29/2013  12:25:00       87.818     -192.410       -8.256      102.145      115.339       66.053    10433.537    13303.111     4362.959        3.645        1.405      211.503       55.248        0.068      348.477       28.199      863.881
08/29/2013  12:26:00      121.702      -61.541       80.769      163.384      198.937      109.899    26694.205    39576.074    12077.722        5.172        3.917      136.377      132.243        0.940      348.806       28.769      863.830
08/29/2013  12:27:00      166.456     -113.203       66.085      173.990      219.531      126.031    30272.667    48194.025    15883.760        6.960        4.718      201.302      155.502        0.597      348.580       28.378      863.805
08/29/2013  12:28:00      190.945      -89.568       92.293      181.240      240.142      195.383    32847.914    57668.402    38174.693        9.082        6.435      210.909      206.911        0.962      348.527       28.285      863.785
08/29/2013  12:29:00      250.078     -316.562      -37.419      133.651      168.491       83.321    17862.703    28389.227     6942.380       10.866        2.660      403.423       93.682        0.054      348.228       27.768      863.814
08/29/2013  12:30:00      103.020      -44.631       93.537      140.871      162.597      102.434    19844.544    26437.750    10492.628        3.905        2.839      112.273       99.999        0.793      348.637       28.477      863.799
08/29/2013  12:31:00      165.266      114.582      162.605      158.892      231.028      140.559    25246.572    53374.045    19756.707        8.261        4.919      201.102      139.220        0.479      348.460       28.169      863.717
08/29/2013  12:32:00      -47.055     -277.939       -6.268      133.007      182.758       72.969    17690.937    33400.317     5324.430        6.795        2.821      281.894       56.416        0.040      348.536       28.300      863.772
08/29/2013  12:33:00      -56.432      -75.481       39.259       78.077      100.893       57.886     6096.015    10179.323     3350.816        1.502        0.981       94.244       60.776        0.416      348.879       28.897      863.801
08/29/2013  12:34:00     -134.264      -88.357       19.145      109.249       80.564       41.867    11935.332     6490.479     1752.841        2.319        1.009      160.729       42.873        0.071      348.857       28.856      863.814
08/29/2013  12:35:00     -141.260      -30.922       -5.381      111.503       76.563       39.756    12433.005     5861.821     1580.510        2.040        0.994      144.605       45.494        0.099      348.640       28.480      863.817
08/29/2013  12:36:00      -93.060      -38.908       13.051       80.042       74.847       40.715     6406.673     5602.138     1657.671        1.200        0.683      100.866       39.512        0.153      348.676       28.543      863.778
08/29/2013  12:37:00       21.295     -115.858       -6.352       89.783      145.420       42.650     8061.004    21147.067     1818.987        2.247        1.551      117.799       56.717        0.232      348.652       28.504      863.792
08/29/2013  12:38:00       24.218     -263.608       10.717      148.575      177.291       90.244    22074.430    31432.218     8144.001        6.591        3.083      264.718       84.344        0.102      348.558       28.338      863.769
08/29/2013  12:39:00       14.380     -355.601       -8.757      104.571      160.858       66.352    10935.061    25875.288     4402.577        8.397        2.061      355.892       59.499        0.028      348.467       28.182      863.743
08/29/2013  12:40:00     -117.798     -189.976       -8.031      124.341      119.098       64.280    15460.608    14184.344     4131.896        4.190        1.689      223.533       72.345        0.105      348.511       28.257      863.700
08/29/2013  12:41:00       90.149     -293.289      -23.598      115.543      137.905       84.809    13350.233    19017.790     7192.482        6.712        1.978      306.830       46.241        0.023      348.644       28.487      863.734
08/29/2013  12:42:00       70.713     -159.418       36.725      173.999      188.498       99.896    30275.555    35531.478     9979.279        5.376        3.789      174.397       99.599        0.326      348.716       28.613      863.745
08/29/2013  12:43:00      107.640     -267.223      -13.431      151.249      173.700       93.343    22876.249    30171.587     8712.841        7.246        3.088      288.088      105.672        0.135      348.743       28.659      863.783
08/29/2013  12:44:00      -14.920       13.089       70.146       62.050       82.680       68.394     3850.173     6836.041     4677.789        1.034        0.768       19.847       63.245       10.154      349.003       29.112      863.790
08/29/2013  12:45:00      -73.274      -65.262       14.024       80.753       95.758       40.660     6521.004     9169.527     1653.224        1.358        0.867       98.124       33.845        0.119      348.829       28.810      863.779
08/29/2013  12:46:00      -45.428      -48.138        8.004       82.902       67.992       43.893     6872.668     4622.918     1926.592        0.893        0.671       66.189       32.533        0.242      348.505       28.249      863.749
08/29/2013  12:47:00      -71.142        6.773      -14.648      140.142       44.900       41.012    19639.697     2016.049     1682.006        1.432        1.167       71.463       45.306        0.402      348.691       28.570      863.741
08/29/2013  12:48:00     -205.262      -84.766      -24.103       65.020       69.082       45.562     4227.597     4772.257     2075.925        3.049        0.554      222.076       37.300        0.028      348.648       28.494      863.687
08/29/2013  12:49:00      -34.197      -34.240       15.040       62.618       81.426       38.330     3921.045     6630.175     1469.163        0.729        0.601       48.392       37.382        0.597      348.838       28.826      863.652
08/29/2013  12:50:00      -63.120      -92.494       27.849       82.803      164.590       52.708     6856.315    27089.870     2778.127        2.501        1.836      111.979       59.479        0.282      348.675       28.543      863.654
08/29/2013  12:51:00      -39.473     -225.423        0.758      143.614      107.809       53.106    20625.120    11622.695     2820.245        4.371        1.753      228.853       45.185        0.039      348.835       28.817      863.697
08/29/2013  12:52:00     -194.959     -218.733      -13.300      120.553      108.738       58.240    14533.146    11824.049     3391.929        5.788        1.487      293.007       60.900        0.043      348.828       28.806      863.704
08/29/2013  12:53:00     -266.626     -115.464       -5.939      119.637      136.762       47.126    14312.921    18703.884     2220.902        5.984        1.762      290.554       44.428        0.023      348.649       28.495      863.698
08/29/2013  12:54:00     -129.874      -53.956       -4.020       76.668       58.580       38.894     5877.924     3431.667     1512.754        1.531        0.541      140.636       39.884        0.080      348.628       28.462      863.663
08/29/2013  12:55:00     -216.917      -36.334      -28.690       79.853       59.371       43.242     6376.488     3524.865     1869.838        3.048        0.589      219.939       40.747        0.034      348.551       28.327      863.619
08/29/2013  12:56:00     -355.107     -278.868       -2.840      213.435      169.103       80.726    45554.513    28595.758     6516.697       14.226        4.033      451.519       93.313        0.043      348.733       28.642      863.596
08/29/2013  12:57:00     -318.458     -230.911      -13.929      142.996      123.671       69.143    20447.815    15294.445     4780.718        9.772        2.026      393.365       67.906        0.030      348.864       28.868      863.611
08/29/2013  12:58:00     -224.758     -266.143      -10.934      123.123       92.824       60.368    15159.335     8616.301     3644.307        7.444        1.371      348.351       61.614        0.031      348.703       28.590      863.646
08/29/2013  12:59:00     -147.771     -146.053       -8.565       82.032       68.198       39.248     6729.320     4650.988     1540.423        2.808        0.646      207.768       29.071        0.020      348.655       28.507      863.641
08/29/2013  13:00:00      -47.779      -46.175       12.705       58.187       47.709       30.536     3385.729     2276.108      932.436        0.558        0.330       66.446       29.524        0.197      349.048       29.190      863.630
08/29/2013  13:01:00      -36.448     -109.647        8.652       72.891       70.066       53.514     5313.127     4909.249     2863.698        1.325        0.654      115.546       47.907        0.172      349.007       29.119      863.619
08/29/2013  13:02:00       56.265      -93.153        2.505       77.671       89.452       43.345     6032.851     8001.721     1878.799        1.388        0.796      108.826       59.214        0.296      348.997       29.100      863.619
08/29/2013  13:03:00       48.117       -0.935       44.666       62.653       54.093       46.009     3925.438     2926.040     2116.867        0.664        0.448       48.126       38.359        0.635      348.974       29.063      863.584
08/29/2013  13:04:00        0.797      -55.504       -9.354       55.462       58.210       37.964     3076.049     3388.433     1441.284        0.554        0.395       55.510       29.366        0.280      348.877       28.894      863.572
08/29/2013  13:05:00      -24.446      -58.656       -9.291       58.380       46.536       37.365     3408.168     2165.627     1396.160        0.555        0.348       63.547       32.290        0.258      349.116       29.306      863.565
08/29/2013  13:06:00      -77.065      -45.958       10.061      109.126       60.126       34.757    11908.574     3615.088     1208.041        1.244        0.837       89.728       35.385        0.156      349.503       29.978      863.579
08/29/2013  13:07:00     -221.300     -129.830       34.984      174.359      148.053       78.498    30401.110    21919.700     6161.986        6.276        2.924      256.573       76.695        0.089      349.276       29.583      863.591
08/29/2013  13:08:00      -74.285      -76.691       16.703      162.602       95.578       64.774    26439.314     9135.067     4195.688        2.572        1.989      106.770       56.397        0.279      349.318       29.656      863.620
08/29/2013  13:09:00      -32.843     -106.893        5.704       63.305       68.898       41.938     4007.518     4746.917     1758.761        1.152        0.526      111.825       41.104        0.135      349.146       29.360      863.624
08/29/2013  13:10:00       25.610     -246.469       -6.454      155.288      150.890       98.221    24114.487    22767.913     9647.299        5.898        2.826      247.796       89.246        0.130      349.069       29.224      863.576
08/29/2013  13:11:00     -186.645      -53.569       16.903      180.550      128.515       63.469    32598.260    16516.084     4028.332        4.556        2.657      194.180       64.229        0.109      349.257       29.551      863.609
08/29/2013  13:12:00     -255.168      -83.124       36.175      211.862      147.045       76.031    44885.662    21622.111     5780.704        7.279        3.614      268.366       74.498        0.077      349.045       29.183      863.587
08/29/2013  13:13:00      -79.074     -270.815        3.520      124.822      165.490       90.758    15580.532    27387.098     8237.097        6.540        2.560      282.123       90.917        0.104      348.879       28.895      863.608
08/29/2013  13:14:00     -212.426     -175.378       25.835      192.286      167.994       79.130    36973.864    28221.968     6261.509        7.399        3.573      275.467       90.787        0.109      348.978       29.066      863.593
08/29/2013  13:15:00     -350.930     -308.136       -1.744      180.079      154.795       96.525    32428.459    23961.440     9317.146       14.189        3.285      467.012      108.005        0.053      348.765       28.696      863.563
08/29/2013  13:16:00     -117.678     -107.800       10.358      161.148      146.153       72.923    25968.604    21360.702     5317.829        3.910        2.632      159.590       81.860        0.263      349.040       29.175      863.536
08/29/2013  13:17:00     -250.629     -132.998       -6.892      161.374      136.614       77.034    26041.408    18663.418     5934.280        6.558        2.532      283.731       75.847        0.071      348.958       29.031      863.478
08/29/2013  13:18:00     -752.740     -237.093      -57.952      325.492      385.624      129.434   105944.789   148705.922    16753.036       44.874       13.570      789.196      139.207        0.031      349.090       29.260      863.190
08/29/2013  13:19:00     -365.033     -291.895        6.165      337.469      349.691      128.463   113885.570   122284.075    16502.818       23.553       12.634      467.388      185.911        0.158      349.353       29.716      863.362
08/29/2013  13:20:00     -249.115     -204.216       -8.549      207.702      146.947       79.850    43140.191    21593.317     6376.089        8.746        3.555      322.122       76.877        0.057      349.169       29.396      863.643
08/29/2013  13:21:00     -207.734     -193.796       -3.136      184.490      135.093       71.890    34036.735    18250.132     5168.131        6.908        2.873      284.095       56.232        0.039      349.184       29.422      863.613
08/29/2013  13:22:00      -45.183     -149.443      -13.361      116.666       90.390       53.842    13610.976     8170.416     2899.002        2.461        1.234      156.124       43.451        0.077      349.038       29.171      863.623
08/29/2013  13:23:00      -29.166     -216.249        9.258      107.957      131.621       66.137    11654.818    17324.021     4374.047        4.052        1.668      218.207       62.803        0.083      348.948       29.015      863.614
08/29/2013  13:24:00      -10.413     -104.404       17.851      147.539      103.298       68.297    21767.700    10670.452     4664.496        2.421        1.855      104.922       68.065        0.421      349.215       29.477      863.627
08/29/2013  13:25:00     -182.983     -100.138        6.978      101.800      111.367       52.732    10363.272    12402.544     2780.651        3.455        1.277      208.592       64.711        0.096      349.227       29.498      863.630
08/29/2013  13:26:00      -15.736     -106.215       24.630       58.551       87.460       32.913     3428.203     7649.216     1083.278        1.215        0.608      107.374       36.635        0.116      349.420       29.834      863.605
08/29/2013  13:27:00     -166.230     -172.472       -6.102      155.542      136.254       63.460    24193.434    18565.213     4027.234        5.209        2.339      239.539       52.498        0.048      349.236       29.512      863.570
08/29/2013  13:28:00     -230.424     -235.942       30.188      212.188      178.018       81.510    45023.773    31690.455     6643.943        9.650        4.168      329.793       83.648        0.064      349.034       29.162      863.548
08/29/2013  13:29:00     -388.585     -272.881       -1.334      166.936      118.739       78.902    27867.480    14098.936     6225.486       13.682        2.410      474.828       85.666        0.033      348.919       28.964      863.511
08/29/2013  13:30:00      -59.959     -227.582        1.656      124.489       80.371       63.098    15497.446     6459.480     3981.379        4.066        1.297      235.347       18.275        0.006      349.204       29.455      863.505
08/29/2013  13:31:00        8.210     -176.847       -7.520       67.285       73.657       53.818     4527.274     5425.350     2896.407        2.212        0.642      177.038       40.918        0.053      349.561       30.078      863.538
08/29/2013  13:32:00      -87.168     -105.468        4.719      138.823       70.093       66.274    19271.724     4913.043     4392.277        2.365        1.429      136.827       33.959        0.062      349.576       30.102      863.552
08/29/2013  13:33:00      -27.191      -76.637        6.476       87.953       84.368       46.451     7735.681     7117.992     2157.704        1.183        0.851       81.317       40.464        0.248      349.265       29.566      863.535
08/29/2013  13:34:00     -218.471     -307.278      -23.209      142.870      117.843       59.954    20411.715    13887.004     3594.434        9.028        1.895      377.027       59.533        0.025      348.742       28.655      863.526
08/29/2013  13:35:00     -254.421     -164.812      -29.495      252.128      183.752       94.198    63568.550    33764.967     8873.222        9.946        5.310      303.139      132.383        0.191      349.199       29.449      863.486
08/29/2013  13:36:00     -183.420     -196.632      -11.339      121.988      137.542       72.964    14881.172    18917.741     5323.684        5.577        1.956      268.900       68.868        0.066      349.235       29.510      863.543
08/29/2013  13:37:00     -140.917     -160.747       16.559      117.596      132.495       59.653    13828.833    17555.002     3558.444        4.045        1.747      213.769       52.212        0.060      349.340       29.693      863.534
08/29/2013  13:38:00     -198.157     -182.898        0.045      123.726      174.862       60.978    15308.135    30576.622     3718.265        6.115        2.480      269.662       59.666        0.049      349.235       29.510      863.554
08/29/2013  13:39:00     -136.892     -258.356        9.016      181.782      152.698       81.233    33044.630    23316.598     6598.739        7.425        3.148      292.382       78.381        0.072      349.026       29.148      863.538
08/29/2013  13:40:00     -324.281     -193.852       -9.148      218.024      151.707       92.764    47534.291    23015.025     8605.152       11.097        3.958      377.805       89.930        0.057      349.029       29.154      863.504
08/29/2013  13:41:00     -341.351     -259.652       -0.316      177.719      148.553       85.957    31584.008    22067.904     7388.542       12.248        3.052      428.882       90.542        0.045      349.091       29.261      863.497
08/29/2013  13:42:00      -80.031      -68.834       21.670      141.726      115.231       56.709    20086.202    13278.103     3215.866        2.409        1.829      105.561       39.058        0.137      349.463       29.907      863.529
08/29/2013  13:43:00      -65.689     -248.375       14.071       85.189      140.464       53.128     7257.221    19730.198     2822.606        4.800        1.491      256.915       48.222        0.035      349.393       29.786      863.568
08/29/2013  13:44:00     -134.798     -118.897       16.616      129.882       99.785       60.120    16869.297     9957.004     3614.385        3.151        1.522      179.741       62.875        0.122      349.491       29.956      863.561
08/29/2013  13:45:00      -61.888     -124.711        5.658       64.809       86.700       38.654     4200.196     7516.944     1494.140        1.631        0.661      139.223       37.005        0.071      349.305       29.634      863.548
08/29/2013  13:46:00      -46.880      -42.343       16.305       79.004       62.352       35.062     6241.605     3887.809     1229.338        0.781        0.568       63.172       39.670        0.394      349.826       30.539      863.513
08/29/2013  13:47:00     -234.404     -150.623        5.262      154.674      118.038       70.774    23924.083    13933.009     5008.927        6.025        2.143      278.626       72.523        0.068      349.350       29.711      863.539
08/29/2013  13:48:00     -346.533     -242.914       -5.362      151.523      114.983       72.759    22959.185    13221.018     5293.832       11.029        2.074      423.193       70.244        0.028      349.131       29.329      863.495
08/29/2013  13:49:00     -170.770     -130.750       14.254      168.794      127.929       65.734    28491.367    16365.802     4320.913        4.781        2.459      215.077       67.144        0.097      349.229       29.501      863.508
08/29/2013  13:50:00     -142.312     -176.622        0.990      133.637      129.919       61.896    17858.972    16878.939     3831.102        4.500        1.928      226.822       59.974        0.070      349.305       29.633      863.515
08/29/2013  13:51:00     -213.035     -154.608       14.965      200.519      130.932       70.800    40207.799    17143.127     5012.624        6.593        3.118      263.225       86.219        0.107      349.395       29.787      863.490
08/29/2013  13:52:00     -244.057     -327.295       -6.333      178.132      173.078       84.465    31730.926    29955.916     7134.301       11.776        3.441      408.272       91.961        0.051      349.296       29.616      863.505
08/29/2013  13:53:00     -251.227     -374.074      -11.076      145.149      211.981       92.290    21068.257    44935.791     8517.380       13.883        3.726      450.607      101.359        0.051      349.110       29.294      863.537
08/29/2013  13:54:00     -282.984     -243.532        3.805      215.306      170.091       92.698    46356.810    28930.955     8593.011       11.162        4.194      373.347      107.760        0.083      349.129       29.327      863.539
08/29/2013  13:55:00     -300.181     -209.052       -8.169      215.958      145.961       76.587    46637.740    21304.701     5865.597       10.383        3.690      365.803       90.293        0.061      348.997       29.098      863.537
08/29/2013  13:56:00     -149.043     -109.748       17.898      129.147       98.848       65.133    16678.849     9771.010     4242.276        3.263        1.535      185.091       67.953        0.135      349.165       29.389      863.526
08/29/2013  13:57:00      -82.954      -93.145       34.779      134.122       83.922       58.279    17988.759     7042.984     3396.423        2.259        1.421      124.729       57.930        0.216      349.372       29.751      863.492
08/29/2013  13:58:00     -138.064     -121.814       -2.715      157.724      114.824       59.124    24876.764    13184.534     3495.623        3.772        2.078      184.120       26.179        0.020      349.352       29.716      863.472
08/29/2013  13:59:00       -2.468      -75.910       16.731       72.808       72.428       47.520     5301.038     5245.781     2258.115        0.942        0.640       75.950       39.036        0.264      349.573       30.099      863.454
08/29/2013  14:00:00     -224.289     -173.790       -3.011      141.126      138.998       71.825    19916.596    19320.451     5158.821        6.245        2.220      283.740       82.730        0.085      349.388       29.776      863.453
08/29/2013  14:01:00     -217.723     -212.113        3.983      152.860      166.496       72.534    23366.108    27720.924     5261.115        7.437        2.817      303.966       62.957        0.043      349.337       29.687      863.457
08/29/2013  14:02:00     -246.349     -269.351       -7.064      204.245      123.690       94.227    41716.005    15299.290     8878.722        9.958        3.295      365.017       66.690        0.033      349.364       29.735      863.452
08/29/2013  14:03:00     -267.198     -287.776       20.556      191.318      155.854       86.525    36602.660    24290.582     7486.517       11.149        3.419      392.696       73.471        0.035      349.245       29.526      863.463
08/29/2013  14:04:00     -202.640     -245.290        3.544      159.082      165.743       81.612    25307.019    27470.611     6660.465        8.033        2.972      318.167       73.290        0.053      349.272       29.573      863.467
08/29/2013  14:05:00     -211.158     -256.520        7.218      157.271      137.161       71.256    24734.149    18813.047     5077.482        7.952        2.431      332.250       70.031        0.044      349.275       29.579      863.439
08/29/2013  14:06:00     -200.393     -407.837      -19.484      187.468      168.182       91.493    35144.327    28285.149     8370.986       13.932        3.590      454.410       84.306        0.034      349.244       29.526      863.423
08/29/2013  14:07:00     -232.495     -302.375      -21.794      121.500      171.426       75.471    14762.263    29386.907     5695.946        9.789        2.492      381.424       68.932        0.033      349.416       29.822      863.444
08/29/2013  14:08:00     -161.418     -141.342       10.319      162.975      131.809       58.830    26561.008    17373.622     3460.991        4.676        2.370      214.554       57.037        0.071      349.471       29.920      863.428
08/29/2013  14:09:00     -315.503     -179.970        5.497      198.738      197.585       76.945    39496.711    39039.999     5920.528       10.819        4.223      363.224       89.513        0.061      349.219       29.481      863.417
08/29/2013  14:10:00     -304.052     -107.449       15.677      190.118      138.939       87.441    36144.768    19304.106     7645.952        8.365        3.155      322.479       87.669        0.074      349.190       29.433      863.395
08/29/2013  14:11:00     -370.034     -233.975       -6.194      158.694      109.308       67.503    25183.732    11948.192     4556.699       11.669        2.084      437.801       73.052        0.028      349.177       29.410      863.389
08/29/2013  14:12:00     -307.481     -206.368       -6.508      187.642      155.177       83.494    35209.618    24079.870     6971.266       10.170        3.313      370.314       88.116        0.057      349.338       29.687      863.389
08/29/2013  14:13:00     -268.329     -193.942      -16.058      175.535      188.642       75.349    30812.604    35585.866     5677.465        9.096        3.604      331.080       84.750        0.066      349.372       29.748      863.371
08/29/2013  14:14:00     -371.476     -265.437        9.989      267.944      210.762      105.868    71794.015    44420.763    11208.079       16.796        6.371      456.565      124.891        0.075      349.284       29.596      863.365
08/29/2013  14:15:00     -332.096      -64.905        9.977      205.770      143.094       76.619    42341.241    20475.916     5870.417        9.163        3.434      338.379       90.276        0.071      349.188       29.430      863.397
08/29/2013  14:16:00     -251.117       -3.934       -2.499      139.624      132.231       62.746    19494.856    17485.019     3937.032        5.199        2.046      251.148       66.323        0.070      349.079       29.239      863.392
08/29/2013  14:17:00     -122.342     -114.450        6.325       74.575       96.469       47.181     5561.474     9306.188     2226.000        2.260        0.855      167.530       43.275        0.067      349.192       29.438      863.379
08/29/2013  14:18:00      -98.604     -146.219        7.417      166.012      193.079       79.463    27560.014    37279.483     6314.355        5.114        3.558      176.360       80.540        0.209      349.229       29.502      863.326
08/29/2013  14:19:00     -302.258     -290.419      -27.240      210.319      164.628       78.118    44234.014    27102.226     6102.462       12.693        3.872      419.169       68.818        0.027      349.264       29.560      863.314
08/29/2013  14:20:00     -219.979     -178.549       -0.473      185.430      118.867       79.053    34384.328    14129.305     6249.388        6.751        2.738      283.320       80.465        0.081      349.431       29.849      863.343
08/29/2013  14:21:00     -389.390     -181.863      -11.320      161.113      150.244       75.567    25957.318    22573.357     5710.361       11.952        2.712      429.765       80.824        0.035      349.423       29.837      863.341
08/29/2013  14:22:00     -379.799     -223.908      -14.385      196.916      141.127       89.799    38775.850    19916.701     8063.799       13.066        3.338      440.888       97.698        0.049      349.309       29.638      863.322
08/29/2013  14:23:00     -397.834     -226.291       -4.599      209.894      210.254       95.825    44055.564    44206.913     9182.506       15.345        4.872      457.690      104.946        0.053      349.223       29.491      863.319
08/29/2013  14:24:00     -388.955     -147.443      -11.637      202.674      219.827      116.862    41076.875    48323.980    13656.746       13.809        5.153      415.964      113.834        0.075      349.231       29.503      863.256
08/29/2013  14:25:00     -393.536     -163.876        6.805      210.967      151.519       96.406    44507.033    22957.926     9294.047       12.925        3.838      426.293      105.675        0.061      349.295       29.614      863.290
08/29/2013  14:26:00     -183.403     -165.399      -10.133      115.448       97.461       60.772    13328.148     9498.557     3693.198        4.380        1.326      246.968       46.882        0.036      349.432       29.853      863.340
08/29/2013  14:27:00      -96.244      -58.329       15.009       99.305       80.090       48.284     9861.483     6414.453     2331.309        1.575        0.930      112.540       37.051        0.108      349.616       30.172      863.311
08/29/2013  14:28:00      -96.026      -90.283       16.746      104.904      109.770       49.537    11004.827    12049.382     2453.911        2.158        1.275      131.803       57.500        0.190      349.511       29.990      863.319
08/29/2013  14:29:00      -57.800     -108.601        0.641       70.903       76.787       36.587     5027.175     5896.237     1338.584        1.370        0.613      123.025       32.314        0.069      349.594       30.135      863.305
08/29/2013  14:30:00     -165.403      -84.083        5.403      125.004       93.380       42.918    15626.028     8719.753     1841.932        3.032        1.309      185.548       50.858        0.075      349.677       30.280      863.301
08/29/2013  14:31:00     -159.678     -213.672        7.949      149.194      159.437       81.166    22258.942    25420.147     6587.933        6.273        2.713      266.745       79.223        0.088      349.389       29.778      863.288
08/29/2013  14:32:00     -245.420     -140.498       -7.853      138.067      139.790       60.711    19062.604    19541.278     3685.860        6.115        2.114      282.790       61.515        0.047      349.389       29.778      863.226
08/29/2013  14:33:00     -345.735     -199.562      -30.505      206.457      139.889       80.256    42624.584    19568.933     6441.035       11.445        3.432      399.196      101.498        0.065      349.410       29.815      863.222
08/29/2013  14:34:00     -269.683     -110.964        4.347      224.135      156.450      103.581    50236.419    24476.698    10729.111        8.523        4.272      291.620      117.105        0.161      349.474       29.926      863.160
08/29/2013  14:35:00     -346.858      -43.792        6.782      208.996      166.127       90.196    43679.219    27598.256     8135.232       10.083        3.971      349.612       84.663        0.059      349.598       30.139      863.170
08/29/2013  14:36:00     -295.862     -286.582       -4.640      191.918      243.633       88.525    36832.694    59356.961     7836.594       13.684        5.201      411.903      118.598        0.083      349.470       29.919      863.196
08/29/2013  14:37:00     -339.144     -158.448      -15.921      166.145      154.868       70.879    27604.027    23983.983     5023.772        9.848        2.831      374.331       86.442        0.053      349.556       30.066      863.215
08/29/2013  14:38:00     -242.749     -120.366       18.428      161.922      162.760       84.368    26218.729    26490.975     7117.960        6.678        2.991      270.952       85.945        0.101      349.605       30.152      863.237
08/29/2013  14:39:00     -295.049     -219.238        4.405      174.790      143.897       83.166    30551.428    20706.224     6916.641        9.664        2.909      367.586       92.826        0.064      349.338       29.689      863.257
08/29/2013  14:40:00     -364.947     -224.533        0.464      183.871      146.486       83.439    33808.488    21458.247     6962.114       12.290        3.111      428.487       86.414        0.041      349.126       29.322      863.242
08/29/2013  14:41:00     -271.509     -287.300        1.126      205.970      150.452       93.462    42423.635    22635.785     8735.096       11.501        3.690      395.295       95.489        0.058      349.041       29.174      863.212
08/29/2013  14:42:00     -232.038      -72.520        4.292      202.666      127.146       81.543    41073.456    16166.199     6649.324        6.149        3.194      243.107       89.855        0.137      349.305       29.632      863.234
08/29/2013  14:43:00     -240.308     -161.636        3.442      137.785      120.267       58.549    18984.722    14464.179     3427.967        6.037        1.844      289.610       52.932        0.033      349.462       29.902      863.250
08/29/2013  14:44:00     -250.790     -174.876       -1.468      167.317      237.573       68.978    27994.887    56440.839     4758.002        9.132        4.460      305.741       77.669        0.065      349.438       29.864      863.201
08/29/2013  14:45:00     -216.700     -171.464        7.609      132.636      140.369       75.169    17592.193    19703.354     5650.365        5.967        2.147      276.330       66.090        0.057      349.609       30.160      863.231
08/29/2013  14:46:00     -262.040     -152.770      -25.590      186.367      126.124       80.456    34732.498    15907.235     6473.108        7.487        2.856      303.321       86.231        0.081      349.684       30.290      863.213
08/29/2013  14:47:00     -467.183      -92.594      -27.445      241.070      158.845       99.718    58114.874    25231.739     9943.763       16.042        4.665      476.270       91.860        0.037      349.402       29.799      863.207
08/29/2013  14:48:00     -239.958     -141.083       21.041      160.242      190.306       90.120    25677.429    36216.260     8121.640        7.396        3.501      278.359       84.635        0.092      349.443       29.871      863.233
08/29/2013  14:49:00     -332.203     -211.787       -0.719      259.868      163.887       97.623    67531.341    26858.932     9530.285       12.955        5.196      393.970      118.629        0.091      349.368       29.741      863.186
08/29/2013  14:50:00     -346.052     -194.552       -0.496      199.197      114.131       90.349    39679.292    13025.874     8162.964       10.922        3.043      396.991       86.645        0.048      349.358       29.723      863.182
08/29/2013  14:51:00     -379.390      -88.287       -6.095      207.127      150.437       97.220    42901.477    22631.306     9451.812       11.336        3.749      389.527      107.778        0.077      349.337       29.687      863.147
08/29/2013  14:52:00     -339.871     -194.215      -15.279      142.555      125.204       69.709    20321.941    15676.056     4859.288        9.715        2.043      391.448       66.666        0.029      349.400       29.795      863.152
08/29/2013  14:53:00     -315.076     -213.205        0.344      174.512      155.100       71.016    30454.264    24056.116     5043.303       10.213        2.978      380.433       80.861        0.045      349.365       29.735      863.150
08/29/2013  14:54:00     -419.790     -287.614       12.549      298.392      190.498      112.970    89037.948    36289.470    12762.257       19.857        6.904      508.867      136.381        0.072      349.319       29.656      863.114
08/29/2013  14:55:00     -447.073     -307.002       -9.490      183.353      203.012      106.036    33618.431    41214.002    11243.736       19.013        4.304      542.332       87.221        0.026      349.336       29.685      863.106
08/29/2013  14:56:00     -336.643     -223.009       -4.534      205.042      158.464       79.760    42042.136    25110.769     6361.701       11.828        3.676      403.808       93.035        0.053      349.475       29.926      863.119
08/29/2013  14:57:00     -255.495     -164.519       14.365      179.615      141.266       84.270    32261.550    19956.012     7101.513        7.592        2.966      303.882       99.646        0.108      349.362       29.731      863.115
08/29/2013  14:58:00     -286.487     -169.454        9.660      178.006      172.690       85.914    31685.984    29821.831     7381.209        8.987        3.444      332.850       92.207        0.077      349.552       30.061      863.088
08/29/2013  14:59:00     -374.577     -242.526       -1.711      214.696      179.269      102.896    46094.277    32137.314    10587.651       14.396        4.441      446.236      117.326        0.069      349.452       29.886      863.111
08/29/2013  15:00:00     -398.467     -146.345       -6.982      253.450      155.797      100.877    64236.776    24272.703    10176.167       13.944        4.934      424.491       98.680        0.054      349.415       29.822      863.106
08/29/2013  15:01:00     -426.420     -237.701       -2.897      246.144      230.327      105.227    60586.960    53050.454    11072.723       18.150        6.236      488.196      116.228        0.057      349.312       29.644      863.104
08/29/2013  15:02:00     -388.238     -163.151      -13.036      204.808      153.690       85.648    41946.223    23620.468     7335.507       12.520        3.645      421.126       90.579        0.046      349.261       29.557      863.127
08/29/2013  15:03:00     -361.316     -265.299        0.470      204.447      150.989       94.829    41798.617    22797.737     8992.591       13.725        3.679      448.255      104.808        0.055      349.331       29.677      863.129
08/29/2013  15:04:00     -286.483     -176.647        7.736      215.967      154.512       87.935    46641.831    23874.095     7732.530        9.578        3.912      336.566      105.414        0.098      349.434       29.855      863.130
08/29/2013  15:05:00     -246.937     -241.648       -3.166      129.548      143.213       84.505    16782.707    20510.037     7141.124        8.190        2.222      345.502       88.250        0.065      349.374       29.750      863.130
08/29/2013  15:06:00     -232.484     -148.919       14.403      197.144      171.350       91.801    38865.718    29360.776     8427.333        7.653        3.833      276.090       95.600        0.120      349.429       29.846      863.129
08/29/2013  15:07:00     -385.221     -184.704      -23.374      183.462      155.627       82.150    33658.128    24219.697     6748.636       12.383        3.231      427.213       84.832        0.039      349.373       29.749      863.111
08/29/2013  15:08:00     -301.271      -48.298      -11.986      165.977      136.047       69.290    27548.291    18508.763     4801.074        7.204        2.543      305.118       80.828        0.070      349.424       29.838      863.104
08/29/2013  15:09:00     -110.478     -147.679       21.321      113.243      123.358       67.915    12824.054    15217.180     4612.390        3.355        1.633      184.430       61.800        0.112      349.559       30.073      863.101
08/29/2013  15:10:00     -248.814     -199.994       -4.265      136.730      118.883       65.201    18695.173    14133.189     4251.198        6.949        1.854      319.227       67.914        0.045      349.647       30.225      863.088
08/29/2013  15:11:00     -248.315     -152.914        7.091      144.963      138.022       79.438    21014.217    19050.093     6310.331        6.572        2.319      291.621       75.274        0.067      349.787       30.467      863.074
08/29/2013  15:12:00     -287.742     -163.013        7.928      172.967      156.978       68.115    29917.412    24641.974     4639.631        8.430        2.960      330.710       85.607        0.067      349.618       30.176      863.040
08/29/2013  15:13:00      -79.149      -98.852       26.246      142.650      141.988       68.759    20349.014    20160.688     4727.850        3.097        2.262      126.634       73.175        0.334      349.763       30.427      863.058
08/29/2013  15:14:00     -190.117     -230.015        8.048      149.070      170.062       80.802    22221.778    28921.117     6529.006        7.338        2.884      298.414       70.712        0.056      349.630       30.195      863.079
08/29/2013  15:15:00     -367.255     -256.310        3.845      199.620      169.498       81.606    39848.252    28729.734     6659.592       13.790        3.762      447.852       90.804        0.041      349.475       29.926      863.034
08/29/2013  15:16:00     -257.389     -209.035        0.383      196.049      163.338      110.658    38435.184    26679.341    12245.120        9.364        3.868      331.579      111.923        0.114      349.656       30.241      863.068
08/29/2013  15:17:00     -499.924     -176.837      -23.901      126.326      122.606       65.584    15958.326    15032.256     4301.197       15.852        1.765      530.279       65.107        0.015      349.311       29.641      863.092
08/29/2013  15:18:00     -238.601      -66.603        4.360      165.304      131.474       68.651    27325.488    17285.451     4712.988        5.534        2.466      247.723       76.255        0.095      349.498       29.966      863.089
08/29/2013  15:19:00     -193.554      -86.120        2.404      154.378      123.026       55.925    23832.483    15135.386     3127.657        4.348        2.105      211.849       60.434        0.081      349.581       30.112      863.089
08/29/2013  15:20:00     -172.504      -28.952        9.073      123.575       93.775       46.225    15270.794     8793.735     2136.719        2.843        1.310      174.917       58.454        0.112      349.639       30.213      863.074
08/29/2013  15:21:00     -201.653     -179.016       10.722      149.938      144.258       60.397    22481.303    20810.401     3647.778        5.987        2.347      269.649       53.140        0.039      349.632       30.199      863.092
08/29/2013  15:22:00     -351.013     -310.756        2.535      186.230      184.326       83.967    34681.631    33976.063     7050.519       14.773        3.785      468.806       93.251        0.040      349.321       29.659      863.096
08/29/2013  15:23:00     -241.390     -142.648        8.319      189.122      119.022       71.897    35767.238    14166.299     5169.108        6.688        2.755      280.388       82.174        0.086      349.502       29.973      863.091
08/29/2013  15:24:00     -156.496     -134.302        6.034      104.617      121.934       53.093    10944.737    14867.882     2818.857        3.559        1.432      206.223       48.671        0.056      349.518       30.002      863.096
08/29/2013  15:25:00     -231.689     -171.146        5.126      121.324      139.010       67.977    14719.547    19323.779     4620.846        6.082        1.933      288.047       67.537        0.055      349.579       30.107      863.079
08/29/2013  15:26:00     -205.198     -147.494       -4.710      164.975      135.463       70.248    27216.689    18350.251     4934.755        5.718        2.525      252.707       97.018        0.147      349.578       30.106      863.051
08/29/2013  15:27:00     -258.471     -190.048       -1.076      152.214      138.676       62.274    23169.088    19230.967     3878.103        7.459        2.314      320.820       76.985        0.058      349.535       30.030      863.040
08/29/2013  15:28:00     -208.159     -191.273        2.329      135.661      152.413       64.474    18403.788    23229.588     4156.879        6.285        2.290      282.693       71.200        0.063      349.667       30.262      863.053
08/29/2013  15:29:00     -400.207     -278.541      -11.089      255.650      168.213       81.329    65356.982    28295.528     6614.444       16.905        5.013      487.597      102.658        0.044      349.404       29.803      863.003
08/29/2013  15:30:00     -340.237     -158.367      -12.635      151.484      145.461       67.870    22947.289    21158.808     4606.370        9.485        2.436      375.288       72.085        0.037      349.704       30.324      863.009
08/29/2013  15:31:00     -321.540     -199.446        2.578      193.067      163.270       80.068    37274.995    26657.123     6410.823       10.674        3.517      378.374       87.188        0.053      349.759       30.420      863.005
08/29/2013  15:32:00     -514.302     -279.719       -0.821      251.347      183.617      106.174    63175.317    33715.256    11273.007       22.543        5.408      585.448      121.896        0.043      349.631       30.197      862.977
08/29/2013  15:33:00     -386.056     -331.356        0.773      230.913      202.754      105.047    53320.594    41109.099    11034.860       18.213        5.273      508.759      115.030        0.051      349.502       29.972      863.008
08/29/2013  15:34:00     -354.847     -157.828      -12.006      155.177      124.861       65.515    24079.901    15590.302     4292.243        9.746        2.198      388.364       72.856        0.035      349.525       30.012      863.022
08/29/2013  15:35:00     -301.008     -202.804       -3.545      143.699      129.773       56.840    20649.357    16841.071     3230.784        8.623        2.036      362.954       67.742        0.035      349.716       30.343      863.032
08/29/2013  15:36:00     -374.582     -313.050       -7.381      209.876      150.808       95.203    44048.118    22742.919     9063.665       15.710        3.793      488.172      103.179        0.045      349.525       30.013      863.036
08/29/2013  15:37:00     -257.582     -210.118       -1.222      180.737      140.726       74.726    32665.884    19803.833     5583.961        8.426        2.903      332.412       88.663        0.071      349.429       29.848      863.046
08/29/2013  15:38:00     -303.550     -119.772        0.901      151.300      131.653       60.661    22891.734    17332.482     3679.701        7.519        2.195      326.324       70.401        0.047      349.424       29.837      863.022
08/29/2013  15:39:00     -274.305     -147.871       -7.273      156.443      120.609       67.670    24474.550    14546.601     4579.291        7.037        2.180      311.623       80.455        0.067      349.571       30.094      863.019
08/29/2013  15:40:00     -152.465     -154.116       14.790      116.979      147.117       67.181    13684.138    21643.453     4513.294        4.352        1.992      216.789       64.661        0.089      349.605       30.153      863.010
08/29/2013  15:41:00     -234.965     -186.508        4.030      127.418      128.369       65.092    16235.373    16478.505     4236.948        6.347        1.848      299.989       67.185        0.050      349.689       30.298      863.011
08/29/2013  15:42:00     -424.623     -296.367       -5.633      158.264      153.659       84.767    25047.558    23611.214     7185.463       16.200        2.792      517.821       87.634        0.029      349.353       29.713      863.007
08/29/2013  15:43:00     -384.452     -268.436        7.173      167.090      129.703       81.102    27918.972    16822.883     6577.526       13.561        2.566      468.894       77.322        0.027      349.333       29.679      863.000
08/29/2013  15:44:00     -220.947     -247.932       -6.836      150.330      103.144       69.005    22599.201    10638.613     4761.624        7.416        1.900      332.096       57.468        0.030      349.226       29.495      863.010
08/29/2013  15:45:00     -192.444     -225.351       -0.927      146.390      130.992       67.652    21430.110    17158.812     4576.832        6.548        2.158      296.340       67.565        0.052      349.514       29.994      862.990
08/29/2013  15:46:00     -348.595      -72.475      -11.707      184.772      156.906       68.284    34140.604    24619.637     4662.691        9.515        3.171      356.049       70.440        0.039      349.669       30.264      863.018
08/29/2013  15:47:00     -373.019       24.440      -15.752      195.512      139.121       79.241    38224.965    19354.705     6279.201       10.191        3.193      373.819       91.912        0.060      349.461       29.903      863.029
08/29/2013  15:48:00     -447.974        2.324      -33.420      150.923      145.624       66.716    22777.674    21206.407     4450.986       12.511        2.422      447.980       73.230        0.027      349.425       29.840      863.021
08/29/2013  15:49:00     -227.251      -34.405      -12.830      126.444      125.531       63.698    15988.169    15758.045     4057.429        4.439        1.790      229.841       64.961        0.080      349.516       29.998      863.029
08/29/2013  15:50:00     -299.036      -26.628       -8.971      134.312      140.844       56.617    18039.677    19837.004     3205.540        6.564        2.054      300.219       54.898        0.033      349.467       29.913      863.016
08/29/2013  15:51:00     -180.807      -83.569        6.772      158.335      131.987       63.620    25070.129    17420.523     4047.456        4.312        2.327      199.186       66.493        0.111      349.545       30.049      863.025
08/29/2013  15:52:00     -167.809      -62.210       -1.871      143.695       76.198       58.507    20648.321     5806.094     3423.027        3.095        1.494      178.969       70.810        0.157      349.424       29.839      863.025
08/29/2013  15:53:00     -323.093      -87.568       -8.643      116.432      111.035       68.443    13556.500    12328.774     4684.486        7.134        1.528      334.750       69.462        0.043      349.513       29.992      863.039
08/29/2013  15:54:00     -397.958      -93.097      -18.812      148.575      105.049       61.686    22074.476    11035.234     3805.125       10.215        1.846      408.702       72.864        0.032      349.540       30.038      863.029
08/29/2013  15:55:00     -377.804     -242.705       -3.163      165.498      178.564       94.252    27389.701    31885.063     8883.424       13.489        3.408      449.045       95.396        0.045      349.658       30.243      863.040
08/29/2013  15:56:00     -327.579     -192.693       -8.480      184.133      172.188       79.584    33904.924    29648.871     6333.570       10.718        3.494      380.051       97.585        0.066      349.590       30.127      863.055
08/29/2013  15:57:00     -214.892     -146.092        1.325      138.908      156.974       81.975    19295.531    24640.765     6719.947        5.908        2.533      259.849       74.591        0.082      349.554       30.064      863.048
08/29/2013  15:58:00     -287.653     -129.164       -6.974      143.845      156.742       69.319    20691.393    24568.176     4805.173        7.476        2.503      315.321       65.946        0.044      349.561       30.074      863.022
08/29/2013  15:59:00     -522.022      -90.985      -32.868      167.947      141.473       85.387    28206.273    20014.704     7290.913       16.868        2.776      529.891       96.429        0.033      349.361       29.729      863.025
08/29/2013  16:00:00     -307.503      -31.970       -3.469      223.549      156.953       76.754    49974.375    24634.272     5891.229        8.803        4.025      309.161       89.279        0.083      349.550       30.058      863.013
08/29/2013  16:01:00     -400.583     -217.289      -18.596      191.983      164.197       88.162    36857.329    26960.581     7772.507       13.979        3.580      455.720      101.441        0.050      349.384       29.769      863.056
08/29/2013  16:02:00     -302.089      -94.823       -9.133      132.982       96.492       72.095    17684.269     9310.698     5197.691        6.626        1.610      316.621       74.521        0.055      349.353       29.715      863.060
08/29/2013  16:03:00     -236.867     -106.154       -4.980      103.795      101.582       48.228    10773.404    10318.957     2325.961        4.540        1.171      259.566       51.609        0.040      349.270       29.570      863.023
08/29/2013  16:04:00     -264.360     -210.825       -1.026      203.096      129.640       87.084    41248.003    16806.445     7583.621        8.997        3.282      338.132       99.885        0.087      349.388       29.775      863.009
08/29/2013  16:05:00     -330.752     -186.227        2.736      193.743      138.459       79.213    37536.298    19170.810     6274.716       10.352        3.149      379.575       90.678        0.057      349.439       29.864      863.008
08/29/2013  16:06:00     -410.541       42.358      -39.098      103.607       97.897       57.422    10734.323     9583.882     3297.250        9.774        1.181      412.720       47.797        0.013      349.332       29.677      863.046
08/29/2013  16:07:00     -236.408      -15.327      -17.915      132.648       88.651       51.742    17595.463     7858.975     2677.239        4.228        1.407      236.905       63.902        0.073      349.552       30.060      863.037
08/29/2013  16:08:00     -348.358      -69.603      -13.047      199.785      153.850       88.193    39913.886    23669.833     7777.988        9.885        3.568      355.243       91.372        0.066      349.554       30.063      863.000
08/29/2013  16:09:00     -358.384       24.810      -25.575      138.313      126.817       64.710    19130.615    16082.437     4187.392        8.455        1.970      359.242       55.630        0.024      349.492       29.956      863.010
08/29/2013  16:10:00     -250.556      -14.847      -13.560      142.823      119.811       62.502    20398.411    14354.651     3906.461        5.091        1.933      250.996       59.374        0.056      349.694       30.308      863.011
08/29/2013  16:11:00     -536.685        3.961      -41.271      233.784      147.891       96.155    54654.782    21871.894     9245.693       18.774        4.289      536.700      116.790        0.047      349.449       29.882      863.000
08/29/2013  16:12:00     -431.428       22.424      -31.600      169.286      127.452       75.196    28657.918    16243.983     5654.504       11.908        2.528      432.010       83.052        0.037      349.603       30.149      863.007
08/29/2013  16:13:00     -383.224      -48.810      -33.959      153.131       96.912       60.248    23448.990     9391.954     3629.830        9.343        1.824      386.320       64.739        0.028      349.259       29.553      863.023
08/29/2013  16:14:00     -259.661      -46.728       10.934      159.014      104.006       70.967    25285.600    10817.161     5036.354        5.542        2.057      263.832       64.880        0.060      349.447       29.879      862.996
08/29/2013  16:15:00     -427.359     -169.576      -40.807      175.051      119.662       77.810    30642.709    14318.883     6054.399       13.203        2.551      459.773       86.453        0.035      349.313       29.644      863.003
08/29/2013  16:16:00     -252.977     -141.760        3.518      159.814      156.157       86.028    25540.534    24385.008     7400.902        7.070        2.866      289.988       89.039        0.094      349.494       29.960      863.002
08/29/2013  16:17:00     -126.015     -123.707       14.432      161.215      120.880       76.971    25990.192    14611.858     5924.541        3.895        2.326      176.588       86.572        0.240      349.551       30.059      863.005
08/29/2013  16:18:00     -241.994     -154.130       -9.426      127.392       94.617       54.244    16228.645     8952.450     2942.429        5.526        1.406      286.909       53.275        0.034      349.408       29.810      863.016
08/29/2013  16:19:00     -137.510     -227.933        7.397      113.179      115.925       49.002    12809.548    13438.700     2401.191        4.978        1.432      266.200       56.017        0.044      349.253       29.542      862.994
08/29/2013  16:20:00     -251.599       60.507      -13.827      149.007      120.463       63.183    22203.047    14511.431     3992.036        5.392        2.035      258.773       53.326        0.042      349.510       29.989      862.997
08/29/2013  16:21:00     -263.841      -93.573       -3.345      158.999      111.344       57.781    25280.736    12397.523     3338.682        5.969        2.051      279.943       65.692        0.055      349.576       30.102      863.000
08/29/2013  16:22:00     -266.944      -97.828        8.118      192.902      138.106       85.399    37211.097    19073.352     7293.066        7.222        3.179      284.305       94.371        0.110      349.472       29.921      862.998
08/29/2013  16:23:00     -293.357      -83.878      -19.057      187.461      165.935       82.662    35141.801    27534.544     6832.931        8.147        3.475      305.113      104.455        0.117      349.509       29.987      862.980
08/29/2013  16:24:00     -349.663     -113.403       -2.086      207.407      138.690       82.520    43017.566    19234.821     6809.559       10.208        3.453      367.592       98.521        0.072      349.603       30.148      863.001
08/29/2013  16:25:00     -223.475     -154.068       13.251      195.394      151.051       87.412    38178.669    22816.340     7640.928        7.123        3.432      271.437      108.023        0.158      349.423       29.835      863.024
08/29/2013  16:26:00     -361.141     -178.962      -10.436      203.783      170.790       86.938    41527.584    29169.123     7558.302       12.039        3.913      403.051      100.694        0.062      349.399       29.794      863.011
08/29/2013  16:27:00     -222.433      -95.930       -4.217      178.174      147.329       73.582    31746.066    21705.968     5414.268        5.877        2.943      242.238       80.894        0.112      349.466       29.912      863.033
08/29/2013  16:28:00     -363.042      -83.564      -12.533      175.517      127.511       82.662    30806.378    16259.059     6832.937        9.641        2.695      372.535       94.993        0.065      349.370       29.743      863.027
08/29/2013  16:29:00     -311.516      -83.300       -5.747      187.033      113.226       74.568    34981.195    12820.132     5560.429        7.868        2.668      322.461       90.896        0.079      349.466       29.911      863.016
08/29/2013  16:30:00     -423.254       47.276      -30.064      186.862      131.073       87.673    34917.498    17180.092     7686.553       12.102        2.989      425.886       98.658        0.054      349.384       29.769      863.031
08/29/2013  16:31:00     -318.162      -68.404       -6.534      123.835      147.724       71.181    15335.210    21822.480     5066.793        7.408        2.111      325.432       63.802        0.038      349.458       29.896      863.016
08/29/2013  16:32:00     -367.145      -94.815      -19.198      102.098      102.684       56.373    10424.096    10544.012     3177.863        8.414        1.207      379.190       49.562        0.017      349.353       29.715      863.008
08/29/2013  16:33:00     -249.292      -52.161       -2.605      124.919      100.920       58.681    15604.827    10184.825     3443.451        4.705        1.462      254.690       50.716        0.040      349.618       30.174      862.998
08/29/2013  16:34:00     -280.595     -160.167        1.244      174.385      183.821       90.604    30410.273    33790.244     8209.052        8.838        3.620      323.090       98.556        0.093      349.482       29.939      863.002
08/29/2013  16:35:00     -220.638      -53.542      -19.072      210.041      119.258       73.054    44117.146    14222.361     5336.835        5.778        3.184      227.041       83.427        0.135      349.480       29.937      862.990
08/29/2013  16:36:00     -501.528      -22.494      -25.589      199.569      196.688       77.181    39827.678    38686.068     5956.946       16.856        4.224      502.032       68.977        0.019      349.303       29.629      862.965
08/29/2013  16:37:00     -427.207      -86.152       -9.861      159.522      121.339       79.120    25447.239    14723.070     6260.034       11.822        2.322      435.807       80.984        0.035      349.432       29.850      862.958
08/29/2013  16:38:00     -325.449     -100.595      -19.182      185.859      101.307       67.065    34543.515    10263.181     4497.753        8.284        2.465      340.641       83.277        0.060      349.290       29.606      862.973
08/29/2013  16:39:00     -298.156     -115.223       -3.270      129.199      134.047       67.090    16692.330    17968.531     4501.025        7.067        1.958      319.646       61.119        0.037      349.473       29.922      862.974
08/29/2013  16:40:00     -162.978     -153.112       17.545      170.582      129.560       83.990    29098.190    16785.914     7054.294        5.161        2.647      223.618       88.562        0.157      349.461       29.902      862.984
08/29/2013  16:41:00     -332.264     -107.509      -13.726      176.420      122.650       65.180    31123.941    15042.984     4248.450        8.627        2.521      349.224       74.111        0.045      349.358       29.725      862.980
08/29/2013  16:42:00     -217.239      -53.975       -2.808      159.315      112.205       67.389    25381.134    12589.898     4541.303        4.630        2.126      223.844       72.430        0.105      349.467       29.914      862.962
08/29/2013  16:43:00     -275.387      -60.927      -24.240      114.870      118.076       63.371    13195.071    13941.843     4015.843        5.564        1.558      282.046       61.393        0.047      349.375       29.752      862.941
08/29/2013  16:44:00     -209.760     -104.174        0.444      127.224      112.785       60.925    16185.869    12720.558     3711.904        4.373        1.631      234.204       64.834        0.077      349.582       30.113      862.955
08/29/2013  16:45:00     -258.513      -68.946       -5.869      155.713      107.535       72.402    24246.486    11563.678     5242.027        5.633        2.053      267.549       77.570        0.084      349.501       29.973      862.942
08/29/2013  16:46:00     -347.385      -38.804        4.143      179.128      130.448       70.755    32086.823    17016.783     5006.239        8.814        2.705      349.545       66.710        0.036      349.507       29.982      862.952
08/29/2013  16:47:00     -399.785       -9.951      -28.695      149.122      103.787       72.969    22237.490    10771.796     5324.482        9.953        1.917      399.909       67.178        0.028      349.388       29.776      862.949
08/29/2013  16:48:00     -334.501      -78.983      -29.029      142.333       80.496       70.864    20258.801     6479.580     5021.751        7.536        1.588      343.700       69.294        0.041      349.371       29.745      862.937
08/29/2013  16:49:00     -163.889      -87.804       -1.949      124.778      107.205       69.189    15569.542    11492.978     4787.050        3.320        1.592      185.928       69.478        0.140      349.458       29.896      862.924
08/29/2013  16:50:00     -171.987        8.746        6.932      152.372       93.060       60.618    23217.342     8660.166     3674.581        3.262        1.778      172.209       60.280        0.123      349.551       30.061      862.917
08/29/2013  16:51:00     -371.206     -148.709       -3.542      194.333      150.106       70.127    37765.127    22531.843     4917.855       11.255        3.261      399.885       86.099        0.046      349.479       29.933      862.935
08/29/2013  16:52:00     -384.174     -181.454      -14.718      162.723      135.281       80.956    26478.630    18300.955     6553.851       11.602        2.567      424.870       82.247        0.037      349.470       29.918      862.938
08/29/2013  16:53:00     -283.210     -105.104       17.865      213.845      122.494       85.296    45729.629    15004.838     7275.432        7.978        3.400      302.084      107.384        0.126      349.505       29.980      862.942
08/29/2013  16:54:00     -440.117      -75.674      -20.582      172.219      144.482       88.338    29659.445    20875.162     7803.626       12.908        2.917      446.576      104.247        0.054      349.430       29.850      862.932
08/29/2013  16:55:00     -318.225      -92.966        0.520      182.411      143.461       80.881    33273.803    20580.970     6541.707        8.514        3.020      331.527       83.574        0.064      349.382       29.767      862.907
08/29/2013  16:56:00     -368.822       45.173      -53.979      192.086      210.367       75.308    36897.165    44254.179     5671.308       11.389        4.341      371.578       93.763        0.064      349.342       29.696      862.892
08/29/2013  16:57:00     -439.600       47.228      -26.807      239.470      162.827       77.118    57345.776    26512.545     5947.111       14.298        4.490      442.130       98.323        0.049      349.376       29.756      862.911
08/29/2013  16:58:00     -470.955        8.617      -29.205      187.761      192.788       89.548    35254.330    37167.073     8018.915       15.157        4.022      471.033       87.243        0.034      349.306       29.633      862.907
08/29/2013  16:59:00     -363.938     -147.198       -5.503      222.784      101.841       76.801    49632.488    10371.663     5898.410       11.001        3.295      392.578       97.363        0.062      349.430       29.849      862.924
08/29/2013  17:00:00     -321.304      -93.265       -7.331      173.119      160.849       82.849    29970.291    25872.373     6864.016        8.733        3.135      334.566       90.032        0.072      349.433       29.854      862.939
08/29/2013  17:01:00     -255.228     -142.261       -8.053      123.421      121.197       67.059    15232.834    14688.740     4496.902        5.992        1.721      292.198       57.838        0.039      349.411       29.816      862.943
08/29/2013  17:02:00     -162.317      -68.844       -0.056      123.887      107.712       54.844    15348.068    11601.897     3007.878        3.052        1.498      176.313       52.139        0.087      349.464       29.910      862.955
08/29/2013  17:03:00     -428.326        2.547      -25.230      149.927      159.037       74.505    22478.109    25292.854     5551.002       11.870        2.666      428.334       76.153        0.032      349.325       29.666      862.954
08/29/2013  17:04:00     -500.309     -175.061      -20.565      155.784      135.679       75.113    24268.712    18408.672     5641.969       16.484        2.416      530.052       75.874        0.020      349.200       29.450      862.925
08/29/2013  17:05:00     -212.724     -217.938       -7.685      161.275      176.167       83.325    26009.763    31034.851     6942.988        7.838        3.199      304.546       86.609        0.081      349.297       29.618      862.904
08/29/2013  17:06:00     -337.380       -1.028      -15.781      226.701      213.519       86.926    51393.408    45590.371     7556.147       10.929        5.227      337.382      102.299        0.092      349.281       29.591      862.893
08/29/2013  17:07:00     -501.271      -50.867      -52.847      180.203      126.871       69.693    32473.209    16096.181     4857.045       15.503        2.671      503.845       74.046        0.022      349.206       29.459      862.888
08/29/2013  17:08:00     -293.446      -95.791      -14.384      189.553      165.544       81.262    35930.274    27404.699     6603.454        8.270        3.497      308.685       70.874        0.053      349.346       29.705      862.855
08/29/2013  17:09:00     -354.231     -150.371       -9.449      174.530      145.387       87.866    30460.725    21137.242     7720.460       10.374        2.966      384.826       91.336        0.056      349.391       29.781      862.878
08/29/2013  17:10:00     -512.674      -63.775      -32.704      143.947      138.250       74.463    20720.843    19113.031     5544.714       15.667        2.269      516.625       69.709        0.018      349.304       29.630      862.901
08/29/2013  17:11:00     -428.337     -118.387      -20.350      208.883      146.198       81.330    43631.928    21373.971     6614.515       13.475        3.581      444.396       99.841        0.050      349.277       29.584      862.911
08/29/2013  17:12:00     -444.198      -66.341      -30.091      162.499      147.021       77.127    26405.940    21615.272     5948.569       12.828        2.698      449.125       81.531        0.033      349.270       29.573      862.892
08/29/2013  17:13:00     -203.707     -142.456       -5.028      153.252      145.615       81.613    23486.180    21203.590     6660.694        5.657        2.568      248.576       83.305        0.112      349.361       29.729      862.904
08/29/2013  17:14:00     -264.017     -106.904      -12.802      175.410      125.078       68.305    30768.755    15644.630     4665.521        6.618        2.554      284.839       50.513        0.031      349.234       29.509      862.902
08/29/2013  17:15:00     -233.445     -199.415       -7.473      207.254      129.041      104.154    42954.422    16651.543    10847.988        8.237        3.523      307.023      119.767        0.152      349.213       29.473      862.904
08/29/2013  17:16:00     -334.454      -37.329      -33.874      136.498       91.771       58.485    18631.826     8421.879     3420.442        7.243        1.524      336.531       54.333        0.026      349.255       29.545      862.906
08/29/2013  17:17:00     -206.122      -15.751       -3.071      134.145      122.595       55.320    17994.969    15029.463     3060.338        3.941        1.804      206.723       63.992        0.096      349.390       29.780      862.906
08/29/2013  17:18:00     -328.578     -150.718       -8.378      164.722      165.193       78.515    27133.491    27288.778     6164.635        9.566        3.029      361.496       80.227        0.049      349.294       29.612      862.915
08/29/2013  17:19:00     -303.771      -96.231       -9.249      171.721      139.783       73.451    29488.257    19539.225     5394.981        7.801        2.721      318.649       65.442        0.042      349.238       29.516      862.922
08/29/2013  17:20:00     -443.558     -122.591      -26.726      173.051      157.070       78.368    29946.682    24670.961     6141.617       13.661        3.038      460.187       72.650        0.025      349.188       29.429      862.929
08/29/2013  17:21:00     -409.261     -124.846       -4.115      159.974      169.231       72.067    25591.622    28639.017     5193.706       12.125        2.971      427.880       71.236        0.028      349.202       29.454      862.930
08/29/2013  17:22:00     -435.078     -130.122      -27.784      191.405      119.231       70.429    36635.795    14216.148     4960.263       13.139        2.791      454.120       82.200        0.033      349.150       29.363      862.923
08/29/2013  17:23:00     -432.227     -199.451      -28.958      188.034      201.698       91.209    35356.901    40682.188     8319.125       15.588        4.218      476.026       89.793        0.036      349.129       29.328      862.909
08/29/2013  17:24:00     -423.815      -59.122      -26.922      264.961      156.270       80.905    70204.416    24420.364     6545.585       14.248        5.059      427.919      113.495        0.070      349.176       29.408      862.907
08/29/2013  17:25:00     -468.223      -75.102      -19.251      246.228      162.786       83.241    60628.274    26499.299     6929.128       15.963        4.703      474.207      105.350        0.049      349.169       29.395      862.915
08/29/2013  17:26:00     -364.919     -101.050       -1.181      209.906      159.408       91.395    44060.541    25410.886     8352.966       11.059        3.891      378.652      102.959        0.074      349.108       29.291      862.901
08/29/2013  17:27:00     -268.697      -96.672        3.420      154.663      136.733       71.809    23920.527    18695.948     5156.543        6.465        2.389      285.558       76.895        0.073      349.168       29.394      862.906
08/29/2013  17:28:00     -135.590      -66.829       16.757      139.013      156.220       71.332    19324.592    24404.835     5088.260        3.596        2.441      151.165       72.970        0.233      349.223       29.491      862.907
08/29/2013  17:29:00     -212.675      -60.629      -37.851       99.333       71.044       44.931     9866.969     5047.205     2018.834        3.363        0.847      221.148       37.384        0.029      349.230       29.503      862.915
08/29/2013  17:30:00     -145.733      -66.113      -10.579       77.749       71.564       46.730     6044.897     5121.425     2183.653        1.953        0.667      160.028       36.927        0.053      349.296       29.618      862.938
08/29/2013  17:31:00     -463.520      -19.347      -37.038      193.158      171.203       82.398    37310.199    29310.353     6789.485       14.499        3.671      463.923       85.466        0.034      349.120       29.311      862.923
08/29/2013  17:32:00     -265.065       -9.729       -3.568      152.522      130.426       67.418    23262.833    17010.847     4545.164        5.758        2.241      265.244       64.923        0.060      349.153       29.368      862.929
08/29/2013  17:33:00     -347.316     -147.706       -1.629      244.160      150.610      101.132    59614.106    22683.282    10227.697       11.747        4.626      377.419      118.866        0.099      349.046       29.182      862.930
08/29/2013  17:34:00     -447.822     -219.084      -28.183      214.938      160.213       84.930    46198.326    25668.322     7213.098       16.419        3.954      498.540       91.901        0.034      348.912       28.951      862.952
08/29/2013  17:35:00     -232.708     -101.057        9.973      179.185      150.260       83.308    32107.140    22577.981     6940.291        6.303        3.081      253.704       85.311        0.113      349.015       29.131      862.941
08/29/2013  17:36:00     -446.891       55.028      -34.981      228.028      132.245       78.731    51996.754    17488.631     6198.637       13.981        3.784      450.266      100.035        0.049      349.017       29.133      862.949
08/29/2013  17:37:00     -437.625        0.898      -34.701      173.868      166.482       79.525    30229.970    27716.229     6324.169       12.848        3.214      437.626       85.389        0.038      349.006       29.113      862.944
08/29/2013  17:38:00     -364.073      -50.415      -17.155      180.281      183.490       82.845    32501.354    33668.632     6863.322       10.419        3.652      367.547       78.243        0.045      349.024       29.145      862.924
08/29/2013  17:39:00     -328.105      -30.741      -17.363      153.092      114.305       67.263    23437.051    13065.693     4524.260        7.495        2.051      329.542       60.013        0.033      349.074       29.232      862.916
08/29/2013  17:40:00     -248.536     -172.101        4.235      211.686      156.860       79.902    44810.934    24604.995     6384.288        8.359        3.790      302.306      106.539        0.124      349.116       29.305      862.927
08/29/2013  17:41:00     -364.979     -140.297      -18.545      212.040      131.559       73.571    44960.845    17307.819     5412.751       11.045        3.384      391.015       85.780        0.048      349.066       29.217      862.923
08/29/2013  17:42:00     -330.742      -97.404       -8.187      163.155      153.826       75.892    26619.691    23662.417     5759.593        8.748        2.802      344.787       76.633        0.049      349.067       29.219      862.925
08/29/2013  17:43:00     -273.931      -77.528      -22.559      155.927      143.035       67.460    24313.181    20458.881     4550.891        6.543        2.466      284.691       70.043        0.061      349.124       29.317      862.934
08/29/2013  17:44:00     -163.279      -89.108        9.945      124.803       97.824       55.523    15575.759     9569.585     3082.775        3.146        1.411      186.011       62.025        0.111      349.123       29.316      862.929
08/29/2013  17:45:00     -220.119     -138.224        5.680      145.546      176.317       77.514    21183.710    31087.790     6008.360        6.292        2.914      259.920       70.080        0.073      349.131       29.331      862.955
08/29/2013  17:46:00     -323.212     -226.921        3.574      197.451      142.280       97.479    38986.785    20243.577     9502.141       11.234        3.437      394.917      103.269        0.068      348.952       29.020      862.949
08/29/2013  17:47:00     -255.866     -104.693        0.194      185.371      143.637       87.168    34362.259    20631.616     7598.175        6.950        3.130      276.456       78.217        0.080      348.972       29.055      862.968
08/29/2013  17:48:00     -346.772     -137.959      -15.569      222.489      125.081       91.433    49501.409    15645.332     8360.080       10.650        3.675      373.207      112.998        0.092      348.885       28.906      862.952
08/29/2013  17:49:00     -380.038      -82.300       -1.314      174.557      122.550       73.429    30470.093    15018.555     5391.815       10.103        2.544      388.847       80.288        0.043      348.946       29.009      862.950
08/29/2013  17:50:00     -328.124     -132.415      -13.959      174.155      117.387       75.744    30329.814    13779.816     5737.119        8.761        2.492      353.835       85.158        0.058      348.932       28.986      862.943
08/29/2013  17:51:00     -321.284      -94.952       10.549      205.648      133.768       79.012    42290.998    17893.938     6242.859        8.938        3.321      335.022       77.421        0.053      348.880       28.895      862.929
08/29/2013  17:52:00     -321.811      -49.764      -18.950      164.167      174.185       76.623    26950.834    30340.253     5871.037        8.477        3.158      325.636       69.659        0.046      348.885       28.905      862.930
08/29/2013  17:53:00     -278.847     -188.721       14.480      234.938      217.908       85.681    55196.029    47483.771     7341.205       11.178        5.501      336.707      114.833        0.116      348.876       28.890      862.916
08/29/2013  17:54:00     -301.660     -178.269       -1.343      264.022      170.660      109.743    69707.460    29124.775    12043.446       11.681        5.544      350.398      128.835        0.135      348.774       28.713      862.891
08/29/2013  17:55:00     -376.439      -17.795      -20.038      326.587      141.838      118.016   106659.038    20117.902    13927.685       14.154        7.035      376.860      157.758        0.175      348.743       28.660      862.903
08/29/2013  17:56:00     -501.257      -26.167      -16.489      204.662      193.366       84.516    41886.678    37390.281     7143.022       16.930        4.321      501.939       93.225        0.034      348.724       28.626      862.903
08/29/2013  17:57:00     -331.046      -61.813      -12.385      217.015      176.663       85.837    47095.664    31209.834     7367.984        9.960        4.284      336.768       94.996        0.080      348.744       28.661      862.906
08/29/2013  17:58:00     -330.358       45.718      -19.761      156.393      108.795       72.320    24458.653    11836.353     5230.229        7.656        2.076      333.506       76.265        0.052      348.759       28.685      862.913
08/29/2013  17:59:00     -545.049     -124.022      -30.766      224.468      143.409       87.658    50385.853    20566.019     7683.897       19.601        3.932      558.981       91.685        0.027      348.692       28.571      862.915
08/29/2013  18:00:00     -438.363      -85.167      -20.493      208.360      156.357       94.433    43413.838    24447.571     8917.541       13.829        3.839      446.559      102.151        0.052      348.757       28.684      862.904
08/29/2013  18:01:00     -677.345     -141.038      -48.163      249.416      178.058       98.505    62208.337    31704.762     9703.309       29.229        5.181      691.873      119.885        0.030      348.641       28.482      862.888
08/29/2013  18:02:00     -432.346      -66.641      -17.843      213.088      137.381       81.417    45406.427    18873.635     6628.707       13.128        3.545      437.452       90.266        0.043      348.714       28.609      862.917
08/29/2013  18:03:00     -228.253      -46.979        6.404      152.604      127.732       67.383    23287.854    16315.548     4540.501        4.924        2.207      233.038       86.108        0.137      348.745       28.663      862.934
08/29/2013  18:04:00     -307.742      -55.403      -17.226      149.469      138.985       78.852    22340.996    19316.819     6217.683        7.296        2.394      312.689       86.728        0.077      348.716       28.612      862.937
08/29/2013  18:05:00     -369.303      -66.388       -8.507      190.352      126.187       80.066    36233.760    15923.193     6410.530        9.970        2.928      375.222       88.826        0.056      348.658       28.511      862.936
08/29/2013  18:06:00     -430.207     -193.156       -3.199      222.541      206.108       93.736    49524.369    42480.514     8786.457       16.157        5.040      471.580      104.327        0.049      348.628       28.460      862.915
08/29/2013  18:07:00     -423.923     -119.714       -1.754      196.029      130.679       86.942    38427.359    17076.961     7558.925       12.854        3.153      440.502       99.180        0.051      348.638       28.476      862.955
08/29/2013  18:08:00     -261.517      -60.440        8.652      208.185      183.404       89.824    43341.099    33637.180     8068.326        7.857        4.252      268.410       99.514        0.137      348.644       28.486      862.967
08/29/2013  18:09:00     -248.419      -29.870       -0.262      126.603      138.746       75.315    16028.222    19250.519     5672.359        5.177        2.048      250.208       74.980        0.090      348.712       28.604      862.966
08/29/2013  18:10:00     -426.564      -91.068      -14.094      177.789      148.393       83.979    31608.854    22020.448     7052.428       12.555        3.034      436.177       82.752        0.036      348.636       28.473      862.977
08/29/2013  18:11:00     -512.953     -134.914      -19.732      231.222      193.512       88.642    53463.489    37446.846     7857.369       19.022        4.938      530.398       96.575        0.033      348.526       28.281      862.972
08/29/2013  18:12:00     -489.314     -135.279      -28.437      189.612      175.632       83.431    35952.823    30846.550     6960.676       16.613        3.688      507.670       76.896        0.023      348.506       28.250      862.978
08/29/2013  18:13:00     -466.590      -67.071      -32.334      228.656      126.502       99.237    52283.415    16002.801     9847.984       15.068        3.907      471.386      118.609        0.063      348.509       28.253      862.983
08/29/2013  18:14:00     -319.398     -131.798        3.521      206.302      131.075       81.078    42560.639    17180.746     6573.701        9.284        3.316      345.522       86.970        0.063      348.499       28.237      862.991
08/29/2013  18:15:00     -375.357      -61.082       -4.911      176.606      124.479       76.547    31189.509    15495.037     5859.445        9.859        2.627      380.294       78.655        0.043      348.543       28.313      863.001
08/29/2013  18:16:00     -418.023      -67.822      -17.557      162.826      123.304       82.682    26512.386    15203.817     6836.260       11.409        2.428      423.489       74.383        0.031      348.492       28.224      863.003
08/29/2013  18:17:00     -286.030     -119.119       12.523      207.806      177.525       92.111    43183.297    31514.981     8484.449        8.965        4.159      309.843      105.086        0.115      348.461       28.171      862.979
08/29/2013  18:18:00     -359.461      -27.691      -25.128      160.678      132.281       67.844    25817.575    17498.379     4602.850        8.925        2.396      360.526       73.513        0.042      348.450       28.151      862.992
08/29/2013  18:19:00     -454.557     -122.570      -18.037      159.993      160.178       80.892    25597.694    25656.977     6543.443       13.987        2.890      470.793       84.880        0.033      348.421       28.101      862.983
08/29/2013  18:20:00     -442.797       40.545      -49.665      134.795      120.451       66.390    18169.820    14508.356     4407.654       11.863        1.854      444.649       43.630        0.010      348.449       28.149      862.987
08/29/2013  18:21:00     -368.842      -96.223       -8.183      132.373      134.073       74.692    17522.585    17975.483     5578.876        9.322        2.054      381.187       71.692        0.035      348.438       28.130      862.990
08/29/2013  18:22:00     -285.102     -129.973      -12.717      149.882      124.058       69.190    22464.639    15390.337     4787.310        7.048        2.132      313.330       74.525        0.057      348.405       28.075      863.014
08/29/2013  18:23:00     -330.026      -95.449       -9.108      213.343      127.485       83.306    45515.329    16252.388     6939.889        9.340        3.435      343.551      103.869        0.091      348.393       28.052      863.001
08/29/2013  18:24:00     -344.468      -79.935      -11.693      113.636       90.581       50.373    12913.212     8204.938     2537.435        7.442        1.183      353.621       46.240        0.017      348.407       28.076      863.009
08/29/2013  18:25:00     -282.873      -55.107       -1.884      174.803      117.061       61.679    30556.184    13703.242     3804.352        6.555        2.403      288.191       69.491        0.058      348.411       28.084      863.021
08/29/2013  18:26:00     -302.922     -180.181        0.333      234.152      157.640      107.684    54827.110    24850.300    11595.777       10.773        4.564      352.458      120.911        0.118      348.316       27.919      862.989
08/29/2013  18:27:00     -245.430      -17.875       -5.328      120.580      132.014       62.694    14539.482    17427.757     3930.547        4.823        1.795      246.080       67.208        0.075      348.397       28.060      863.024
08/29/2013  18:28:00     -434.542     -141.041      -15.269      208.825      143.099       80.312    43607.726    20477.442     6450.072       13.973        3.527      456.858       84.705        0.034      348.345       27.971      863.036
08/29/2013  18:29:00     -265.156     -100.305      -11.809      141.390      140.902       63.891    19991.256    19853.265     4081.998        6.221        2.196      283.494       59.044        0.043      348.343       27.965      863.041
08/29/2013  18:30:00     -331.282      -81.864       -9.164      200.394      115.737       77.112    40157.779    13395.150     5946.184        8.800        2.975      341.247       99.642        0.085      348.307       27.902      863.032
08/29/2013  18:31:00     -283.426      -83.565       -2.114      226.312       97.103       61.565    51216.998     9428.955     3790.262        7.586        3.222      295.489       69.751        0.056      348.308       27.906      863.038
08/29/2013  18:32:00     -337.407     -114.949       -0.885      229.403      206.550       96.276    52625.702    42662.762     9269.078       11.579        5.228      356.450      101.713        0.081      348.248       27.802      863.051
08/29/2013  18:33:00     -322.255       11.056       -7.538      166.596      130.478       79.170    27754.350    17024.614     6267.916        7.753        2.552      322.445       90.332        0.078      348.269       27.837      863.068
08/29/2013  18:34:00     -144.662     -100.459       10.373      102.991      100.650       59.340    10607.244    10130.339     3521.260        2.769        1.213      176.123       55.946        0.101      348.295       27.884      863.077
08/29/2013  18:35:00     -229.368     -148.529       10.745      225.944      125.987       64.318    51050.863    15872.725     4136.862        7.291        3.553      273.259       78.245        0.082      348.272       27.843      863.062
08/29/2013  18:36:00     -385.279      -18.658      -23.637      158.125      117.632       67.719    25003.485    13837.287     4585.797        9.638        2.171      385.730       70.950        0.034      348.239       27.787      863.054
08/29/2013  18:37:00     -313.175     -130.399        0.687      196.188      134.178       72.706    38489.724    18003.668     5286.142        8.842        3.089      339.238       85.265        0.063      348.203       27.726      863.036
08/29/2013  18:38:00     -210.151      -37.656       -6.002      111.212       81.014       49.521    12368.149     6563.297     2452.349        3.350        1.069      213.498       46.411        0.047      348.249       27.806      863.055
08/29/2013  18:39:00     -340.082      -98.766      -14.739      149.205       94.019       56.547    22262.118     8839.566     3197.519        7.996        1.715      354.134       55.401        0.024      348.234       27.780      863.065
08/29/2013  18:40:00     -317.450     -112.074      -21.394      155.109      123.126       63.327    24058.935    15160.016     4010.368        7.850        2.161      336.653       66.757        0.039      348.219       27.751      863.043
08/29/2013  18:41:00     -379.111     -119.411      -14.372      136.125      128.013       60.071    18530.151    16387.336     3608.482        9.835        1.926      397.472       55.481        0.019      348.177       27.681      863.058
08/29/2013  18:42:00     -378.248      -49.696      -16.981      140.525      129.193       69.620    19747.285    16690.768     4847.002        9.355        2.064      381.499       68.041        0.032      348.146       27.627      863.040
08/29/2013  18:43:00     -370.619      -80.982       -8.701      183.615      145.243       69.129    33714.396    21095.564     4778.871       10.178        2.979      379.363       77.631        0.042      348.117       27.574      863.060
08/29/2013  18:44:00     -261.128       40.786       -5.359      146.326      107.500       62.869    21411.359    11556.286     3952.514        5.339        1.846      264.294       63.724        0.058      348.091       27.530      863.075
08/29/2013  18:45:00     -279.078       37.792        2.501      145.355      111.978       72.480    21128.017    12539.154     5253.403        5.911        1.946      281.625       82.707        0.086      348.083       27.515      863.078
08/29/2013  18:46:00     -321.265     -125.121      -11.655      174.693      185.283       78.129    30517.590    34329.963     6104.108        9.496        3.548      344.770       84.562        0.060      348.089       27.526      863.071
08/29/2013  18:47:00     -344.842     -107.580        7.114      171.897      127.542       88.995    29548.486    16266.870     7920.028        9.213        2.687      361.233       88.981        0.061      348.055       27.467      863.066
08/29/2013  18:48:00     -449.318      -61.165      -33.797      169.016      190.240       83.248    28566.391    36191.246     6930.261       13.921        3.584      453.462       63.805        0.020      348.042       27.446      863.090
08/29/2013  18:49:00     -385.995      -67.384      -19.811      157.344      134.849       68.395    24757.282    18184.153     4677.940       10.076        2.381      391.832       74.158        0.036      348.041       27.444      863.094
08/29/2013  18:50:00     -363.014      -73.664      -22.433      131.654      104.318       68.568    17332.659    10882.279     4701.560        8.531        1.646      370.412       71.254        0.037      348.039       27.440      863.095
08/29/2013  18:51:00     -402.438      -61.243      -29.631      168.294      124.539       72.253    28322.774    15509.943     5220.516       10.781        2.453      407.072       78.560        0.037      348.013       27.397      863.090
08/29/2013  18:52:00     -290.623      -87.796       -1.895      161.843      117.687       64.651    26193.033    13850.114     4179.792        6.819        2.211      303.595       69.858        0.053      348.006       27.385      863.094
08/29/2013  18:53:00     -368.841      -40.285      -12.588      125.170      105.628       56.204    15667.467    11157.223     3158.941        8.390        1.499      371.034       56.544        0.023      347.987       27.352      863.095
08/29/2013  18:54:00     -234.003        0.911       -2.811       93.214      100.884       47.291     8688.839    10177.536     2236.409        3.793        1.055      234.005       47.881        0.042      348.006       27.383      863.107
08/29/2013  18:55:00     -422.212     -124.075      -25.226      119.766       97.438       57.566    14343.932     9494.114     3313.857       11.072        1.358      440.065       33.228        0.006      347.970       27.323      863.089
08/29/2013  18:56:00     -404.484      -68.928      -19.837      193.618      128.224       89.631    37488.026    16441.332     8033.733       11.535        3.098      410.315       93.589        0.052      347.942       27.272      863.082
08/29/2013  18:57:00     -228.104      -76.148        9.518      160.460      153.636       72.152    25747.322    23603.908     5205.911        5.623        2.728      240.478       69.896        0.084      347.889       27.182      863.096
08/29/2013  18:58:00     -327.798      -37.456      -20.052      148.317      122.695       59.717    21997.817    15054.148     3566.131        7.493        2.031      329.931       57.302        0.030      347.896       27.193      863.125
08/29/2013  18:59:00     -483.739     -112.681      -17.361      173.662      126.038       73.111    30158.547    15885.603     5345.270       14.919        2.569      496.689       69.191        0.019      347.881       27.167      863.116
08/29/2013  19:00:00     -360.687     -101.142      -14.070      200.718       99.538       62.886    40287.722     9907.900     3954.647        9.733        2.708      374.599       73.871        0.039      347.866       27.141      863.097
08/29/2013  19:01:00     -210.902      -16.309        4.974      186.261      124.352       68.066    34693.099    15463.473     4633.029        4.977        2.739      211.532       87.748        0.172      347.775       26.985      863.112
08/29/2013  19:02:00     -307.140       30.010      -22.041      142.863      124.569       68.931    20409.750    15517.397     4751.443        6.819        2.034      308.603       65.571        0.045      347.846       27.106      863.127
08/29/2013  19:03:00     -226.791      -47.419       -6.212      147.827      137.932       65.724    21852.760    19025.315     4319.595        4.945        2.260      231.696       76.087        0.108      347.806       27.038      863.143
08/29/2013  19:04:00     -267.113       -7.018       -2.084      175.018      114.650       70.871    30631.196    13144.704     5022.764        6.009        2.440      267.205       92.602        0.120      347.803       27.032      863.151
08/29/2013  19:05:00     -365.011      -45.060      -20.110      129.329      109.348       71.601    16725.941    11957.080     5126.774        8.473        1.690      367.782       74.346        0.041      347.781       26.996      863.143
08/29/2013  19:06:00     -279.514      -40.534      -14.552      125.298       84.646       53.945    15699.485     7164.916     2910.079        5.287        1.289      282.438       59.033        0.044      347.776       26.988      863.136
08/29/2013  19:07:00     -250.475      -51.756      -13.402      108.529       82.084       52.628    11778.471     6737.725     2769.681        4.344        1.064      255.766       57.431        0.050      347.750       26.943      863.139
08/29/2013  19:08:00     -216.487      -62.639       -8.134      118.489       89.648       46.000    14039.717     8036.773     2116.011        3.752        1.210      225.367       55.891        0.062      347.735       26.920      863.132
08/29/2013  19:09:00     -374.819     -133.048      -21.119      194.363      128.724       84.286    37776.811    16569.961     7104.160       11.003        3.073      397.732       81.448        0.042      347.724       26.898      863.101
08/29/2013  19:10:00     -408.535      -40.973      -24.041      183.694      153.624       73.006    33743.338    23600.382     5329.885       11.590        3.134      410.585       71.891        0.031      347.720       26.889      863.116
08/29/2013  19:11:00     -236.318      -56.881       -2.562       98.741       97.168       61.243     9749.691     9441.690     3750.765        4.101        1.147      243.067       51.206        0.044      347.670       26.804      863.139
08/29/2013  19:12:00     -322.108     -100.934      -10.139      148.260      117.694       65.218    21981.045    13851.995     4253.435        7.706        2.004      337.552       65.359        0.037      347.680       26.821      863.128
08/29/2013  19:13:00     -267.075      -78.651      -10.489      107.330       92.475       61.251    11519.724     8551.603     3751.696        5.072        1.191      278.415       52.309        0.035      347.661       26.789      863.125
08/29/2013  19:14:00     -224.397      -68.688       -4.174      127.283      115.586       58.082    16200.972    13360.110     3373.468        4.401        1.647      234.674       65.406        0.078      347.585       26.657      863.115
08/29/2013  19:15:00     -414.837     -222.869      -42.482      153.646      139.972       67.068    23607.165    19592.125     4498.095       13.562        2.385      470.914       59.480        0.016      347.650       26.768      863.117
08/29/2013  19:16:00     -320.429      -67.665      -10.959      196.326      125.299       75.578    38544.063    15699.732     5712.107        8.365        2.998      327.496       91.524        0.078      347.589       26.665      863.126
08/29/2013  19:17:00     -348.333     -160.551       -7.789      153.821      124.500       75.443    23661.019    15500.299     5691.583        9.600        2.243      383.552       71.846        0.035      347.593       26.672      863.093
08/29/2013  19:18:00     -351.181      -88.360        0.867      158.845      128.083       69.499    25231.643    16405.200     4830.077        8.879        2.323      362.126       79.495        0.048      347.567       26.628      863.096
08/29/2013  19:19:00     -448.592      -65.295      -35.887      159.518      135.939       66.528    25445.939    18479.509     4425.961       12.756        2.418      453.319       64.940        0.021      347.579       26.648      863.103
08/29/2013  19:20:00     -407.686      -40.966      -33.314      183.222      135.408       75.127    33570.277    18335.220     5643.999       11.326        2.877      409.739       82.381        0.040      347.558       26.611      863.102
08/29/2013  19:21:00     -353.397      -21.267      -17.697      166.230      113.041       57.861    27632.355    12778.198     3347.885        8.470        2.188      354.037       70.986        0.040      347.546       26.589      863.101
08/29/2013  19:22:00     -297.120     -110.266       -9.552      165.135      136.254       70.297    27269.405    18565.031     4941.609        7.564        2.539      316.921       83.401        0.069      347.524       26.552      863.112
08/29/2013  19:23:00     -321.740      -43.258      -24.972      122.796       94.959       64.305    15078.798     9017.213     4135.166        6.712        1.412      324.635       68.277        0.044      347.528       26.560      863.119
08/29/2013  19:24:00     -183.966      -24.896       13.495      178.133      103.783       59.935    31731.461    10770.962     3592.248        4.036        2.305      185.643       73.462        0.157      347.453       26.432      863.122
08/29/2013  19:25:00     -257.176      -31.940       -8.651      155.292      128.811       64.330    24115.737    16592.362     4138.300        5.603        2.242      259.152       55.616        0.046      347.464       26.448      863.125
08/29/2013  19:26:00     -299.993      -39.640        9.873      213.494      137.374       92.392    45579.507    18871.601     8536.260        8.231        3.649      302.601      112.904        0.139      347.404       26.346      863.102
08/29/2013  19:27:00     -215.846     -104.411       -8.838      136.248      135.167       63.545    18563.559    18270.021     4037.997        4.921        2.044      239.773       59.281        0.061      347.448       26.422      863.102
08/29/2013  19:28:00     -315.561      -60.781      -14.932      161.041      119.563       60.166    25934.253    14295.228     3619.890        7.366        2.192      321.361       64.111        0.040      347.453       26.429      863.100
08/29/2013  19:29:00     -249.306      -47.520       -2.115       93.022       93.886       52.168     8653.026     8814.519     2721.520        4.230        1.009      253.795       44.563        0.031      347.377       26.298      863.110
08/29/2013  19:30:00     -228.196      -93.257       -6.523      103.923      104.750       53.035    10799.968    10972.547     2812.701        4.269        1.229      246.517       45.418        0.034      347.357       26.265      863.132
08/29/2013  19:31:00     -270.756      -26.221      -24.062      134.586      101.807       52.256    18113.350    10364.611     2730.710        5.289        1.560      272.023       63.394        0.054      347.369       26.284      863.165
08/29/2013  19:32:00     -253.106      -54.555       -2.821      130.616      139.000       61.360    17060.465    19320.920     3765.105        5.359        2.007      258.919       72.308        0.078      347.397       26.332      863.167
08/29/2013  19:33:00     -155.942      -82.435        5.845      124.271       88.683       48.617    15443.303     7864.647     2363.577        2.840        1.284      176.390       52.529        0.089      347.341       26.238      863.160
08/29/2013  19:34:00     -145.431      -84.585       16.114      153.063      120.338       56.389    23428.369    14481.170     3179.763        3.482        2.054      168.240       71.350        0.180      347.310       26.186      863.161
08/29/2013  19:35:00     -300.040      -90.327      -21.714      120.464      117.467       68.992    14511.610    13798.557     4759.882        6.586        1.654      313.342       62.810        0.040      347.361       26.270      863.165
08/29/2013  19:36:00     -252.443      -74.808        4.689      142.496      100.450       71.690    20305.133    10090.165     5139.473        5.243        1.777      263.294       73.439        0.078      347.291       26.152      863.195
08/29/2013  19:37:00     -422.036      -27.264      -28.587      191.692      118.270       67.617    36745.942    13987.716     4572.010       11.748        2.765      422.915       93.852        0.049      347.330       26.218      863.184
08/29/2013  19:38:00     -307.973     -128.792      -17.369      143.787      124.163       56.601    20674.688    15416.401     3203.717        7.551        1.965      333.819       46.119        0.019      347.357       26.264      863.183
08/29/2013  19:39:00     -325.996      -37.843      -18.437      122.427      155.756       54.464    14988.415    24259.904     2966.345        7.512        2.111      328.185       52.242        0.025      347.310       26.183      863.148
08/29/2013  19:40:00     -356.176      -82.256      -13.983      129.043      162.882       73.109    16652.192    26530.609     5344.952        9.117        2.426      365.550       60.771        0.028      347.285       26.139      863.176
08/29/2013  19:41:00     -308.350      -75.495      -16.284      136.870      129.428       69.359    18733.341    16751.567     4810.619        7.066        2.015      317.458       65.876        0.043      347.241       26.064      863.211
08/29/2013  19:42:00     -352.526       -5.301       -4.449      165.946      102.671       72.704    27538.093    10541.310     5285.818        8.384        2.168      352.566       80.239        0.052      347.247       26.074      863.234
08/29/2013  19:43:00     -335.402      -81.900       -4.792      158.120      111.292       70.254    25001.981    12385.933     4935.689        8.077        2.116      345.256       78.784        0.052      347.305       26.176      863.243
08/29/2013  19:44:00     -312.518     -109.078        0.175      180.009      130.308       76.885    32403.140    16980.048     5911.305        8.242        2.765      331.007       79.712        0.058      347.276       26.124      863.256
08/29/2013  19:45:00     -428.473     -112.666      -17.814      180.272      112.954       73.791    32497.892    12758.605     5445.142       12.364        2.535      443.038       77.753        0.031      347.277       26.126      863.266
08/29/2013  19:46:00     -348.352       13.698      -12.669      192.668      136.752       69.355    37120.871    18701.016     4810.144        9.115        3.032      348.621       84.618        0.059      347.274       26.122      863.282
08/29/2013  19:47:00     -205.184      -51.685        5.843      157.786      119.472       65.434    24896.516    14273.582     4281.565        4.412        2.173      211.594       74.852        0.125      347.242       26.067      863.278
08/29/2013  19:48:00     -295.687      -10.648       -9.269      217.097      131.872       68.088    47131.225    17390.352     4636.018        7.838        3.458      295.878       90.770        0.094      347.222       26.032      863.246
08/29/2013  19:49:00     -585.604      -76.332      -52.942      156.812      103.295       73.167    24590.100    10669.899     5353.436       19.608        2.031      590.558       81.305        0.019      347.286       26.140      863.238
08/29/2013  19:50:00     -308.137      -53.866      -18.337      151.327      114.510       62.571    22899.978    13112.559     3915.101        6.905        1.996      312.810       62.250        0.040      347.222       26.031      863.251
08/29/2013  19:51:00     -436.824      -71.737       -4.080      212.496      217.311       95.491    45154.381    47224.270     9118.512       14.872        5.075      442.676      101.948        0.053      347.219       26.025      863.262
08/29/2013  19:52:00     -398.242      -99.279      -15.013      137.455      129.956       59.168    18893.930    16888.663     3500.895       10.397        1.964      410.430       57.850        0.020      347.218       26.025      863.309
08/29/2013  19:53:00     -276.311      -83.111        0.549      162.629       98.728       65.360    26448.231     9747.140     4271.956        6.185        2.023      288.540       80.383        0.078      347.151       25.910      863.334
08/29/2013  19:54:00     -404.685     -112.243      -17.548      184.021      138.788       69.629    33863.853    19262.123     4848.237       11.731        2.899      419.962       69.003        0.027      347.218       26.025      863.344
08/29/2013  19:55:00     -419.964      -93.172       -5.949      178.902      122.965       78.316    32005.978    15120.468     6133.455       11.916        2.663      430.175       80.815        0.035      347.225       26.036      863.359
08/29/2013  19:56:00     -237.563      -62.168       -0.662      136.961      123.881       64.416    18758.398    15346.380     4149.473        4.927        1.913      245.562       67.320        0.075      347.136       25.884      863.402
08/29/2013  19:57:00     -345.864      -27.022      -17.944      121.497      104.857       59.035    14761.546    10995.091     3485.178        7.495        1.462      346.918       51.481        0.022      347.191       25.978      863.438
08/29/2013  19:58:00     -243.183      -19.984      -11.888       80.822       91.768       48.277     6532.256     8421.332     2330.696        3.848        0.864      244.002       39.342        0.026      347.151       25.909      863.434
08/29/2013  19:59:00     -258.062     -144.480        2.272      157.463      144.513       72.197    24794.593    20883.972     5212.393        6.917        2.545      295.754       75.440        0.065      347.095       25.815      863.473
08/29/2013  20:00:00     -306.544      -59.589      -22.441       97.804       97.551       54.527     9565.634     9516.214     2973.188        6.003        1.103      312.282       44.090        0.020      347.129       25.870      863.499
08/29/2013  20:01:00     -225.601     -106.580       -5.744      147.283       88.247       53.828    21692.140     7787.573     2897.476        4.733        1.619      249.510       65.262        0.068      347.125       25.865      863.512
08/29/2013  20:02:00     -148.110      -83.340       -1.222       91.740       46.839       36.531     8416.202     2193.852     1334.482        2.041        0.597      169.947       40.672        0.057      347.145       25.901      863.510
08/29/2013  20:03:00      -50.387      -83.256        4.726       81.631       69.789       43.773     6663.629     4870.571     1916.088        1.147        0.673       97.316       41.988        0.186      347.164       25.935      863.496
08/29/2013  20:04:00     -116.006     -119.307        4.325      124.889      108.915       70.428    15597.220    11862.459     4960.049        3.006        1.621      166.408       82.699        0.247      347.053       25.743      863.497
08/29/2013  20:05:00     -335.281      -93.033      -24.780      110.595      116.246       56.322    12231.156    13513.078     3172.147        7.529        1.446      347.949       52.295        0.023      347.059       25.751      863.523
08/29/2013  20:06:00     -320.120      -74.388       -5.490      148.712      121.823       75.568    22115.206    14840.867     5710.525        7.534        2.133      328.649       76.705        0.054      347.030       25.702      863.532
08/29/2013  20:07:00     -418.728       12.936      -14.992      213.052      160.020       77.295    45391.319    25606.452     5974.515       12.633        3.849      418.928       87.617        0.044      347.082       25.790      863.513
08/29/2013  20:08:00     -456.575      -54.284      -20.795      130.062      126.276       75.183    16916.160    15945.648     5652.409       12.517        1.926      459.791       70.917        0.024      347.036       25.710      863.545
08/29/2013  20:09:00     -385.817      -81.291      -19.599      177.462      131.138       73.194    31492.701    17197.202     5357.327       10.494        2.702      394.288       88.094        0.050      347.057       25.746      863.555
08/29/2013  20:10:00     -282.158      -55.315       -9.712      123.973       94.347       64.894    15369.339     8901.289     4211.181        5.562        1.424      287.529       60.210        0.044      347.006       25.660      863.555
08/29/2013  20:11:00     -324.756      -39.835      -15.985      157.719      115.116       69.487    24875.221    13251.791     4828.430        7.512        2.148      327.190       75.553        0.053      347.010       25.667      863.560
08/29/2013  20:12:00     -484.350     -102.522      -23.768      188.605      135.334       73.074    35571.799    18315.318     5339.882       15.244        2.961      495.082       82.162        0.028      347.020       25.683      863.569
08/29/2013  20:13:00     -339.946      -23.310      -10.491      160.100       99.139       64.207    25631.868     9828.581     4122.501        7.789        1.979      340.744       77.785        0.052      346.957       25.576      863.596
08/29/2013  20:14:00     -180.881      -37.089        1.405       99.465       88.130       49.407     9893.196     7766.946     2441.052        2.709        1.005      184.644       47.993        0.068      346.916       25.504      863.623
08/29/2013  20:15:00     -181.802      -45.927       -6.562       84.694       76.553       44.124     7173.140     5860.292     1946.922        2.509        0.749      187.514       45.655        0.059      346.917       25.507      863.633
08/29/2013  20:16:00     -312.717      -97.502      -14.801      135.620       90.167       57.437    18392.880     8130.095     3298.983        6.866        1.491      327.565       57.267        0.031      347.001       25.649      863.634
08/29/2013  20:17:00     -272.598     -121.104      -10.899      136.941      105.428       55.385    18752.838    11114.968     3067.463        6.101        1.647      298.288       54.296        0.033      346.918       25.508      863.589
08/29/2013  20:18:00     -323.955     -125.790       -2.010      179.812      136.286       87.665    32332.340    18573.943     7685.137        8.967        2.930      347.520       91.420        0.069      346.900       25.475      863.577
08/29/2013  20:19:00     -312.829      -46.688       -5.018      212.038      126.818       80.516    44960.118    16082.840     6482.821        8.378        3.376      316.293       99.059        0.098      346.849       25.388      863.617
08/29/2013  20:20:00     -631.819      -68.113      -53.553      168.093      148.559       86.857    28255.148    22069.735     7544.186       23.227        2.893      635.480       82.980        0.017      346.938       25.542      863.626
08/29/2013  20:21:00     -422.590      -76.473        8.726      192.422      146.739       86.193    37026.382    21532.343     7429.224       12.523        3.299      429.454      101.830        0.056      346.862       25.411      863.669
08/29/2013  20:22:00     -498.665     -145.242      -31.223      190.722      158.559       72.472    36374.997    25140.829     5252.227       16.874        3.338      519.386       84.718        0.027      346.973       25.602      863.696
08/29/2013  20:23:00     -221.449      -45.481      -14.247      130.210      114.755       51.267    16954.615    13168.733     2628.334        4.202        1.638      226.071       56.395        0.062      346.998       25.645      863.706
08/29/2013  20:24:00     -279.386     -147.261      -12.985      129.994      103.153       51.727    16898.422    10640.644     2675.656        6.506        1.511      315.820       56.619        0.032      346.967       25.591      863.715
08/29/2013  20:25:00     -235.007      -84.205        9.984      175.233      114.231       69.447    30706.440    13048.651     4822.920        5.549        2.429      249.637       88.855        0.127      346.867       25.419      863.732
08/29/2013  20:26:00     -357.210      -24.573      -14.683      261.132      127.315       84.896    68189.902    16209.205     7207.381       10.999        4.580      358.054      112.622        0.099      346.816       25.334      863.769
08/29/2013  20:27:00     -324.102      -15.897       -7.999      160.024      149.084       69.824    25607.659    22226.034     4875.385        7.902        2.635      324.492       74.407        0.053      346.869       25.424      863.786
08/29/2013  20:28:00     -286.384      -25.782       -0.527      194.659      118.873       74.761    37892.262    14130.821     5589.267        7.014        2.881      287.542       82.472        0.082      346.835       25.366      863.803
08/29/2013  20:29:00     -485.948     -145.558      -14.498      220.346      158.881       76.278    48552.520    25243.142     5818.355       16.856        3.981      507.279       96.044        0.036      346.912       25.499      863.791
08/29/2013  20:30:00     -344.783      -79.619        5.828      154.171      134.019       74.722    23768.760    17961.169     5583.308        8.627        2.366      353.857       85.149        0.058      346.808       25.317      863.826
08/29/2013  20:31:00     -277.159     -127.414        3.648      170.140      163.356       78.407    28947.533    26685.151     6147.590        7.741        3.089      305.043       85.473        0.079      346.824       25.346      863.828
08/29/2013  20:32:00     -445.426      -54.675      -40.340      224.843      142.732       80.507    50554.466    20372.515     6481.379       14.020        3.870      448.769      105.558        0.055      346.813       25.326      863.826
08/29/2013  20:33:00     -401.399      -77.383       -9.632      142.239      118.244       72.120    20231.946    13981.561     5201.313       10.330        1.971      408.790       69.079        0.029      346.792       25.290      863.842
08/29/2013  20:34:00     -240.143      -64.733        1.857      173.644      130.015       71.423    30152.182    16903.816     5101.246        5.700        2.608      248.715       79.557        0.102      346.718       25.163      863.858
08/29/2013  20:35:00     -281.876      -41.724      -12.956      146.216       81.933       63.815    21379.124     6713.014     4072.306        5.676        1.608      284.947       75.935        0.071      346.760       25.237      863.861
08/29/2013  20:36:00     -444.127     -147.014       -9.827      179.457      132.751       71.463    32204.699    17622.937     5106.919       13.694        2.747      467.827       73.517        0.025      346.752       25.222      863.869
08/29/2013  20:37:00     -417.561     -140.314      -20.279      168.400      130.325       71.914    28358.467    16984.658     5171.687       12.248        2.526      440.506       78.255        0.032      346.752       25.221      863.874
08/29/2013  20:38:00     -317.873      -50.935      -10.768      142.081       83.439       58.092    20186.880     6961.984     3374.701        6.713        1.526      321.928       64.089        0.040      346.713       25.154      863.905
08/29/2013  20:39:00     -261.573      -34.899        5.650      131.080      122.398       69.274    17181.938    14981.294     4798.908        5.331        1.848      263.891       71.979        0.074      346.709       25.147      863.911
08/29/2013  20:40:00     -205.312      -55.795       -6.324      138.019       88.823       72.119    19049.235     7889.602     5201.096        3.872        1.607      212.758       60.255        0.080      346.701       25.137      863.894
08/29/2013  20:41:00     -359.616       -8.024      -14.236      146.922      115.075       63.205    21586.053    13242.250     3994.892        8.420        1.941      359.705       66.651        0.034      346.755       25.228      863.903
08/29/2013  20:42:00     -264.174      -53.984        1.375      194.518      138.275       70.424    37837.199    19119.880     4959.605        6.730        3.096      269.633       87.758        0.106      346.647       25.042      863.907
08/29/2013  20:43:00     -511.557     -190.076      -27.971      173.617      135.523       94.228    30142.838    18366.454     8878.874       17.798        2.869      545.728       98.993        0.033      346.772       25.255      863.892
08/29/2013  20:44:00     -525.644     -166.385      -19.685      225.315      145.753       80.835    50766.758    21243.949     6534.326       19.144        3.927      551.349       77.383        0.020      346.785       25.279      863.929
08/29/2013  20:45:00     -345.457     -149.338       -6.285      159.993      143.556       70.538    25597.654    20608.333     4975.564        9.642        2.559      376.354       74.424        0.039      346.768       25.249      863.953
08/29/2013  20:46:00     -326.628      -46.087       -8.691      184.360      125.005       89.176    33988.589    15626.145     7952.447        8.322        2.878      329.864       95.975        0.085      346.729       25.182      863.959
08/29/2013  20:47:00     -226.128      -64.583       14.910      163.953      131.103       74.986    26880.587    17188.097     5622.853        5.260        2.485      235.169       89.754        0.146      346.666       25.075      863.969
08/29/2013  20:48:00     -307.415      -70.026        7.578      149.603      102.617       63.620    22380.908    10530.324     4047.548        6.820        1.848      315.289       72.318        0.053      346.687       25.110      863.991
08/29/2013  20:49:00     -403.100     -100.829      -31.117      167.962      112.122       56.510    28211.255    12571.433     3193.428       10.879        2.199      415.519       53.943        0.017      346.715       25.157      863.968
08/29/2013  20:50:00     -276.833      -87.122       10.070      144.344      116.534       63.889    20835.059    13580.110     4081.867        6.140        1.925      290.219       70.615        0.059      346.673       25.088      863.962
08/29/2013  20:51:00     -287.095      -33.823       -3.407      170.001      105.553       71.633    28900.209    11141.366     5131.347        6.437        2.259      289.080       72.703        0.063      346.626       25.006      863.977
08/29/2013  20:52:00     -333.518      -36.304      -23.371      142.010      133.340       70.830    20166.877    17779.469     5016.865        7.802        2.148      335.488       74.972        0.050      346.624       25.002      863.982
08/29/2013  20:53:00     -393.910      -53.340      -22.538      181.380      124.808       72.353    32898.607    15577.121     5234.912       10.610        2.686      397.505       78.811        0.039      346.643       25.035      863.996
08/29/2013  20:54:00     -443.930      -55.058      -21.193      173.461      159.681       73.312    30088.776    25497.912     5374.673       13.075        3.048      447.331       68.731        0.024      346.684       25.104      864.018
08/29/2013  20:55:00     -403.992      -61.528      -11.358      158.533      121.110       74.447    25132.579    14667.743     5542.309       10.622        2.267      408.650       84.770        0.043      346.628       25.009      864.006
08/29/2013  20:56:00     -366.029      -64.440      -17.304      134.844      138.428       72.755    18182.945    19162.367     5293.254        9.053        2.132      371.659       68.658        0.034      346.662       25.067      864.026
08/29/2013  20:57:00     -334.954      -45.076        2.474      185.359      128.884       78.389    34357.888    16611.070     6144.821        8.566        2.856      337.973       89.796        0.071      346.662       25.066      864.030
08/29/2013  20:58:00     -339.094     -108.887      -20.437      112.026      104.757       60.733    12549.848    10973.985     3688.522        7.723        1.361      356.147       43.475        0.015      346.657       25.057      864.059
08/29/2013  20:59:00     -361.128      -50.484      -10.648      147.550      100.847       67.397    21770.997    10170.164     4542.354        8.477        1.824      364.640       74.566        0.042      346.623       25.000      864.055
08/29/2013  21:00:00     -317.593      -38.412      -15.314      141.882      103.601       63.996    20130.478    10733.129     4095.435        6.876        1.748      319.908       59.348        0.034      346.618       24.991      864.087
08/29/2013  21:01:00     -317.667     -116.989       -1.657      182.787      118.121       76.342    33411.267    13952.505     5828.043        8.389        2.660      338.525       87.293        0.066      346.652       25.051      864.132
08/29/2013  21:02:00     -286.376     -138.473      -22.533      161.056       84.615       58.750    25939.006     7159.673     3451.598        6.911        1.828      318.097       75.180        0.056      346.637       25.023      864.143
08/29/2013  21:03:00      -74.808        9.670       21.298       78.019       62.400       41.814     6087.012     3893.751     1748.434        0.893        0.586       75.430       39.044        0.268      346.508       24.805      864.149
08/29/2013  21:04:00     -143.397      -59.542       -3.024      103.504       89.299       49.370    10713.001     7974.323     2437.389        2.262        1.056      155.267       55.053        0.126      346.604       24.969      864.140
08/29/2013  21:05:00     -112.012      -36.624       21.407      131.673      108.911       45.304    17337.728    11861.635     2052.472        2.279        1.563      117.848       62.362        0.280      346.499       24.789      864.130
08/29/2013  21:06:00     -143.532      -91.409        7.988      135.733       79.572       58.361    18423.335     6331.657     3406.030        2.859        1.408      170.168       52.180        0.094      346.579       24.926      864.130
08/29/2013  21:07:00     -213.114      -53.392      -11.700      104.879       90.560       61.588    10999.623     8201.179     3793.063        3.569        1.150      219.700       57.550        0.069      346.557       24.888      864.158
08/29/2013  21:08:00     -261.969      -62.774        2.237      135.415      102.576       62.457    18337.344    10521.893     3900.845        5.266        1.638      269.385       73.137        0.074      346.550       24.875      864.170
08/29/2013  21:09:00     -269.074      -43.198      -14.168      171.542      102.005       67.973    29426.543    10404.956     4620.384        5.945        2.223      272.519       80.372        0.087      346.555       24.883      864.197
08/29/2013  21:10:00     -208.822      -54.825        2.445      115.695      124.867       57.801    13385.291    15591.766     3340.913        3.946        1.616      215.899       54.604        0.064      346.541       24.860      864.204
08/29/2013  21:11:00     -198.238        0.684        2.142      118.359       94.936       54.339    14008.751     9012.794     2952.757        3.263        1.299      198.239       47.024        0.056      346.494       24.778      864.223
08/29/2013  21:12:00     -300.436      -15.438       -0.570      145.300      107.106       70.078    21112.050    11471.785     4910.964        6.399        1.875      300.833       68.539        0.052      346.528       24.837      864.241
08/29/2013  21:13:00     -274.484      -56.463       -3.563      168.263      105.640       53.832    28312.393    11159.881     2897.867        6.045        2.119      280.231       67.426        0.058      346.537       24.853      864.260
08/29/2013  21:14:00     -134.207      -69.872       -2.444       72.271       70.946       31.362     5223.143     5033.359      983.594        1.707        0.562      151.307       30.843        0.042      346.534       24.850      864.267
08/29/2013  21:15:00     -266.704     -125.232        4.339      221.874      127.141       87.102    49227.929    16164.800     7586.835        7.989        3.649      294.642       95.298        0.105      346.523       24.828      864.260
08/29/2013  21:16:00     -354.309      -71.320      -15.320      155.353      123.428       72.411    24134.565    15234.522     5243.371        8.773        2.231      361.416       79.955        0.049      346.589       24.942      864.291
08/29/2013  21:17:00     -223.346     -111.099       -1.438      134.920      122.474       60.978    18203.374    14999.851     3718.321        4.957        1.846      249.452       67.258        0.073      346.520       24.824      864.294
08/29/2013  21:18:00     -366.096      -70.512      -16.290      145.936      115.319       66.755    21297.453    13298.530     4456.265        8.915        1.953      372.825       66.131        0.031      346.523       24.829      864.291
08/29/2013  21:19:00     -317.902      -53.577      -19.771      137.288      127.157       66.900    18847.947    16168.822     4475.677        7.190        1.975      322.385       63.480        0.039      346.489       24.770      864.275
08/29/2013  21:20:00     -367.716      -22.030      -33.986      126.689      122.905       53.610    16050.162    15105.661     2874.015        8.544        1.701      368.376       56.459        0.023      346.489       24.770      864.268
08/29/2013  21:21:00     -363.978      -76.173      -13.122      140.373      116.859       50.396    19704.565    13655.991     2539.718        8.717        1.795      371.864       54.081        0.021      346.437       24.682      864.261
08/29/2013  21:22:00     -497.035     -182.308      -25.836      190.198      125.358       79.422    36175.341    15714.625     6307.783       16.956        2.910      529.414       71.496        0.018      346.481       24.756      864.271
08/29/2013  21:23:00     -291.072      -94.247       -5.083      134.122      119.036       70.067    17988.738    14169.553     4909.393        6.534        1.853      305.950       73.030        0.057      346.435       24.678      864.321
08/29/2013  21:24:00     -288.288      -11.023      -13.470      165.656       93.392       62.290    27441.889     8722.017     3880.101        6.172        2.002      288.499       79.522        0.076      346.456       24.712      864.353
08/29/2013  21:25:00     -139.366      -30.412       -1.542      133.664       51.838       50.076    17866.015     2687.223     2507.626        2.170        1.153      142.645       64.143        0.202      346.406       24.630      864.347
08/29/2013  21:26:00     -114.960      -30.946       -0.575       85.739       58.861       31.332     7351.101     3464.625      981.721        1.298        0.590      119.053       40.050        0.113      346.354       24.540      864.343
08/29/2013  21:27:00     -149.357      -62.617       -4.964      114.102       90.743       47.434    13019.376     8234.288     2250.002        2.487        1.175      161.952       46.849        0.084      346.336       24.506      864.351
08/29/2013  21:28:00     -333.013      -70.793      -15.842      157.126      114.802       62.575    24688.590    13179.596     3915.624        7.896        2.089      340.454       77.262        0.052      346.356       24.541      864.333
08/29/2013  21:29:00     -290.919      -57.141       -5.406      151.600      109.099       58.899    22982.467    11902.691     3469.083        6.313        1.918      296.478       67.003        0.051      346.301       24.447      864.329
08/29/2013  21:30:00     -265.048      -47.633      -21.697      118.686      101.185       59.445    14086.475    10238.365     3533.668        5.042        1.393      269.295       53.617        0.040      346.301       24.446      864.315
08/29/2013  21:31:00     -265.954      -41.621      -18.969      131.539      102.577       53.287    17302.590    10521.957     2839.497        5.174        1.533      269.191       62.491        0.054      346.249       24.358      864.319
08/29/2013  21:32:00     -306.323      -98.603       -6.124      161.732      111.052       63.493    26157.175    12332.597     4031.337        7.305        2.126      321.802       70.459        0.048      346.251       24.360      864.306
08/29/2013  21:33:00     -309.814      -94.532      -15.083      131.555      129.793       62.449    17306.808    16846.312     3899.895        7.159        1.903      323.915       61.274        0.036      346.295       24.434      864.305
08/29/2013  21:34:00     -197.562      -84.183       -7.771      117.174      105.407       55.680    13729.740    11110.708     3100.228        3.705        1.397      214.750       51.775        0.058      346.276       24.405      864.304
08/29/2013  21:35:00     -192.668      -83.600        1.743      140.556      120.759       53.515    19756.109    14582.705     2863.830        4.065        1.860      210.024       70.460        0.113      346.237       24.337      864.306
08/29/2013  21:36:00     -148.115      -58.653       -8.316      101.068       46.506       39.930    10214.733     2162.847     1594.389        1.971        0.699      159.305       45.286        0.081      346.257       24.375      864.342
08/29/2013  21:37:00     -197.363       24.298       -9.344      134.875       58.079       50.169    18191.287     3373.220     2516.930        3.185        1.204      198.853       62.493        0.099      346.170       24.222      864.332
08/29/2013  21:38:00     -136.411      -11.514        1.419      113.186       43.447       48.996    12811.076     1887.662     2400.579        1.792        0.855      136.896       50.054        0.134      346.165       24.215      864.344
08/29/2013  21:39:00      -77.385      -12.860       -0.001       59.657       43.891       31.018     3558.928     1926.445      962.146        0.630        0.322       78.446       29.088        0.137      346.143       24.177      864.351
08/29/2013  21:40:00      -26.773       13.349       22.759       57.794       39.648       41.831     3340.197     1571.927     1749.803        0.404        0.333       29.916       31.496        1.108      345.771       23.541      864.388
08/29/2013  21:41:00      -43.181       35.883       10.109       50.650       54.236       41.399     2565.451     2941.562     1713.908        0.524        0.361       56.145       33.849        0.363      345.698       23.415      864.396
08/29/2013  21:42:00       56.733       45.264       26.426      145.977       79.132       64.386    21309.243     6261.853     4145.561        1.883        1.586       72.577       36.997        0.260      345.837       23.653      864.432
08/29/2013  21:43:00       32.720       56.302       35.037       66.836       59.189       60.054     4467.092     3503.374     3606.441        0.852        0.579       65.119       52.987        0.662      345.804       23.597      864.452
08/29/2013  21:44:00        8.523      -61.156       -2.888       30.113       35.926       23.133      906.814     1290.677      535.145        0.328        0.137       61.747       17.475        0.080      345.530       23.127      864.497
08/29/2013  21:45:00       46.901      -53.969        3.337       49.192       72.810       31.248     2419.900     5301.349      976.460        0.691        0.435       71.501       24.718        0.120      345.719       23.450      864.510
08/29/2013  21:46:00       17.996      -23.178        3.588       38.669       44.624       31.602     1495.317     1991.335      998.663        0.268        0.224       29.344       25.568        0.759      345.321       22.767      864.523
08/29/2013  21:47:00       57.809       40.519       51.743       52.192       66.997       45.793     2724.013     4488.532     2096.988        0.848        0.465       70.595       47.576        0.454      345.322       22.770      864.540
08/29/2013  21:48:00       62.035       87.103       68.561       59.055       56.774       40.850     3487.512     3223.342     1668.747        1.226        0.419      106.936       27.572        0.066      345.475       23.031      864.552
08/29/2013  21:49:00      138.112      109.350       69.778       57.348       47.134       55.458     3288.845     2221.616     3075.590        2.224        0.429      176.160       34.477        0.038      345.662       23.350      864.566
08/29/2013  21:50:00      185.740       91.489       73.851       80.165       62.534       53.139     6426.472     3910.501     2823.712        3.074        0.658      207.049       42.849        0.043      345.673       23.367      864.564
08/29/2013  21:51:00      178.706      113.955       42.709       52.143       40.791       47.898     2718.922     1663.876     2294.231        2.671        0.334      211.947       18.141        0.007      345.457       22.997      864.558
08/29/2013  21:52:00      220.240      130.644       46.985       56.281       48.000       42.219     3167.605     2303.976     1782.482        3.752        0.363      256.074       33.401        0.017      345.747       23.493      864.563
08/29/2013  21:53:00      155.701      127.758       93.768       80.226       53.156       60.144     6436.243     2825.558     3617.353        3.112        0.644      201.407       41.303        0.042      345.544       23.146      864.560
08/29/2013  21:54:00      204.122       44.396       59.786      128.363       81.552       78.286    16477.032     6650.681     6128.758        3.823        1.463      208.894       64.633        0.096      345.726       23.462      864.537
08/29/2013  21:55:00      120.857      106.347      110.075      117.756       91.726       80.000    13866.477     8413.638     6400.036        3.335        1.434      160.985       72.092        0.201      345.904       23.764      864.542
08/29/2013  21:56:00       95.440       67.317       58.120      126.483       81.942       59.516    15997.915     6714.524     3542.110        2.163        1.313      116.792       61.161        0.274      345.967       23.876      864.548
08/29/2013  21:57:00      225.865       96.361       38.907      108.412       79.352       72.699    11753.174     6296.780     5285.152        4.257        1.167      245.561       60.288        0.060      346.242       24.346      864.570
08/29/2013  21:58:00       62.924      -18.687       58.248       62.453       93.860       73.146     3900.397     8809.642     5350.317        1.288        0.903       65.640       76.204        1.348      345.578       23.210      864.577
08/29/2013  21:59:00       24.909      -55.560       18.179       27.893       52.466       31.847      778.047     2752.640     1014.243        0.429        0.227       60.889       31.486        0.267      346.396       24.614      864.605
08/29/2013  22:00:00       -7.807      -36.686       12.446       36.421       60.387       25.139     1326.498     3646.623      631.954        0.358        0.280       37.507       16.220        0.187      346.595       24.957      864.589
08/29/2013  22:01:00      -84.387      -27.616        0.717       63.148       35.415       28.036     3987.683     1254.207      786.001        0.695        0.301       88.790       25.440        0.082      346.469       24.740      864.580
08/29/2013  22:02:00     -144.328      -30.519       -8.016       48.355       47.791       24.920     2338.194     2283.960      620.988        1.353        0.262      147.519       21.302        0.021      346.092       24.092      864.581
08/29/2013  22:03:00     -190.149      -60.319        9.748       93.203       76.016       45.382     8686.729     5778.491     2059.569        2.820        0.826      199.487       36.912        0.034      346.161       24.206      864.565
08/29/2013  22:04:00     -332.492      -62.117       -9.157      122.410       84.110       46.876    14984.172     7074.428     2197.354        6.937        1.213      338.245       52.555        0.024      346.218       24.304      864.564
08/29/2013  22:05:00     -284.018      -66.708      -13.962      142.046       96.110       55.675    20176.947     9237.192     3099.722        5.891        1.626      291.747       63.262        0.047      346.433       24.674      864.580
08/29/2013  22:06:00     -168.145      -12.182       -6.187       90.905       79.125       46.686     8263.760     6260.748     2179.558        2.258        0.835      168.586       43.176        0.066      346.488       24.769      864.592
08/29/2013  22:07:00     -175.437       -3.134       -6.885      113.243       72.258       40.375    12823.997     5221.150     1630.143        2.525        0.984      175.465       46.176        0.069      346.443       24.692      864.587
08/29/2013  22:08:00     -141.513       22.943        0.460       97.083       76.369       42.871     9425.058     5832.271     1837.926        1.882        0.855      143.361       45.316        0.100      346.439       24.685      864.616
08/29/2013  22:09:00     -147.702      -49.115       -7.473       53.132       47.653       23.941     2823.059     2270.851      573.169        1.497        0.283      155.654       21.381        0.019      346.472       24.742      864.640
08/29/2013  22:10:00      -30.108      -64.490        3.241       30.209       56.735       19.252      912.559     3218.843      370.645        0.479        0.225       71.172       13.662        0.037      346.245       24.354      864.647
08/29/2013  22:11:00      -93.764      -35.553       -0.751       47.119       29.842       19.510     2220.202      890.563      380.650        0.677        0.175      100.278       20.326        0.041      346.330       24.498      864.661
08/29/2013  22:12:00       20.642      -18.042        4.655       46.314       19.104       19.758     2145.021      364.960      390.379        0.184        0.145       27.416        7.238        0.070      345.701       23.421      864.671
08/29/2013  22:13:00       76.752       15.521       14.738       32.432       23.493       33.130     1051.847      551.908     1097.585        0.452        0.135       78.305       14.754        0.036      345.316       22.758      864.654
08/29/2013  22:14:00       53.527      -33.744       18.691       27.870       29.202       27.187      776.726      852.761      739.153        0.336        0.118       63.275       19.051        0.091      345.374       22.859      864.665
08/29/2013  22:15:00        8.516       -0.622       24.972       30.959       28.143       21.220      958.459      792.056      450.268        0.145        0.110        8.539       20.018        5.496      345.275       22.689      864.697
08/29/2013  22:16:00       42.180       11.979       17.072       23.211       23.224       17.329      538.750      539.351      300.310        0.180        0.069       43.848       13.272        0.092      345.104       22.397      864.721
08/29/2013  22:17:00       62.732       29.704       22.507       28.127       23.222       22.246      791.140      539.253      494.872        0.357        0.091       69.409       10.137        0.021      344.921       22.082      864.728
08/29/2013  22:18:00       52.930       33.168        2.805       25.649       25.651       21.858      657.887      657.951      477.774        0.285        0.090       62.464       12.062        0.037      345.043       22.293      864.738
08/29/2013  22:19:00       39.625       29.306       -1.656       16.962       20.574       15.827      287.717      423.277      250.497        0.170        0.048       49.285       15.564        0.100      345.665       23.360      864.749
08/29/2013  22:20:00       40.835       39.912       -0.568       13.308        8.528        7.732      177.112       72.722       59.779        0.179        0.015       57.100        5.089        0.008      346.158       24.204      864.758
08/29/2013  22:21:00       25.368       47.842      -10.070        9.314       13.049        6.436       86.754      170.288       41.422        0.167        0.015       54.151        7.077        0.017      346.258       24.377      864.770
08/29/2013  22:22:00       18.893       70.868      -12.550       18.284       18.220       11.269      334.321      331.960      127.000        0.316        0.040       73.344       12.623        0.030      346.206       24.289      864.774
08/29/2013  22:23:00      -18.084       55.627      -13.825       12.448       13.252        5.806      154.954      175.629       33.707        0.199        0.018       58.493        6.446        0.012      346.211       24.296      864.774
08/29/2013  22:24:00      -25.741       62.870      -15.779       13.626       15.145        8.024      185.676      229.376       64.378        0.267        0.024       67.935        7.262        0.011      346.085       24.080      864.777
08/29/2013  22:25:00      -23.129       77.454      -14.556       16.810       13.841        8.579      282.578      191.581       73.601        0.365        0.027       80.834        4.302        0.003      346.144       24.180      864.782
08/29/2013  22:26:00      -63.868       49.934      -16.857       13.476       14.964        8.928      181.609      223.928       79.716        0.367        0.024       81.072        7.266        0.008      346.055       24.028      864.770
08/29/2013  22:27:00      -34.557       82.222      -11.203       22.242       16.159        9.509      494.691      261.129       90.420        0.446        0.042       89.189       11.552        0.017      346.084       24.078      864.777
08/29/2013  22:28:00       -8.117       58.757       -7.509        8.779       13.159        7.395       77.075      173.147       54.687        0.194        0.015       59.315        6.452        0.012      346.318       24.482      864.790
08/29/2013  22:29:00       13.954       20.139       -0.312       12.221        7.386        6.062      149.363       54.556       36.743        0.042        0.012       24.501        6.363        0.067      346.307       24.461      864.800
08/29/2013  22:30:00       29.554       -6.805       -1.969       17.253       13.034       11.471      297.655      169.884      131.574        0.076        0.030       30.328        6.786        0.050      345.811       23.609      864.805
08/29/2013  22:31:00        1.242        1.312        5.735        6.875        8.212        6.337       47.262       67.435       40.159        0.010        0.008        1.807        4.739        6.879      345.651       23.333      864.812
08/29/2013  22:32:00      -86.369       12.256      -10.791       41.474       14.528       12.098     1720.074      211.059      146.367        0.490        0.104       87.234       15.740        0.033      345.416       22.930      864.817
08/29/2013  22:33:00      -62.788       18.933       -7.104       38.370       24.919       18.401     1472.283      620.956      338.588        0.339        0.122       65.581       18.276        0.078      345.329       22.782      864.818
08/29/2013  22:34:00      -65.187       39.603      -13.212       18.666       15.718       12.576      348.422      247.062      158.150        0.337        0.038       76.274        8.402        0.012      345.745       23.494      864.812
08/29/2013  22:35:00      -39.360       17.063       -6.924       13.068       30.393       10.654      170.765      923.708      113.503        0.155        0.060       42.900        7.670        0.032      345.904       23.769      864.809
08/29/2013  22:36:00      -15.993      -13.285       -4.457       19.084       11.073       11.483      364.200      122.621      131.867        0.054        0.031       20.791       12.489        0.361      345.699       23.415      864.815
08/29/2013  22:37:00        5.234      -11.240       -3.754       20.936        9.223        7.187      438.317       85.058       51.658        0.037        0.029       12.399        7.625        0.378      345.635       23.305      864.819
08/29/2013  22:38:00       28.377        5.843       -5.097       12.044       13.458       17.132      145.050      181.124      293.504        0.074        0.031       28.972        8.728        0.091      345.401       22.906      864.818
08/29/2013  22:39:00       14.162        7.902       30.908       29.197       20.078       14.953      852.444      403.122      223.584        0.135        0.074       16.217       11.985        0.546      344.957       22.145      864.809
08/29/2013  22:40:00      -14.933      -27.529        5.196       22.428       21.796       12.556      503.013      475.079      157.661        0.107        0.057       31.319       12.548        0.161      345.395       22.896      864.811
08/29/2013  22:41:00      -21.852      -30.424        1.315       22.632       17.382       12.566      512.210      302.127      157.897        0.119        0.049       37.458       11.722        0.098      345.093       22.379      864.824
08/29/2013  22:42:00      -43.965      -32.732       -2.577       15.066       11.502        7.053      226.983      132.294       49.749        0.171        0.020       54.811        4.293        0.006      345.482       23.044      864.827
08/29/2013  22:43:00      -40.197       -4.526        1.153       19.164       12.922        9.498      367.272      166.984       90.208        0.113        0.031       40.450        5.433        0.018      345.195       22.554      864.837
08/29/2013  22:44:00      -31.340       -2.115        1.461       14.990       13.524        8.251      224.700      182.899       68.080        0.073        0.024       31.411        6.403        0.042      345.000       22.216      864.839
08/29/2013  22:45:00       -2.142       27.924        3.705       25.541       14.682        7.719      652.361      215.550       59.576        0.086        0.046       28.006       10.661        0.145      345.040       22.287      864.851
08/29/2013  22:46:00       67.124       50.553       20.402       26.118       23.686       28.308      682.141      561.004      801.344        0.476        0.102       84.031       18.185        0.047      344.750       21.791      864.850
08/29/2013  22:47:00      110.897       62.193       27.558       24.016       25.206       29.410      576.764      635.347      864.930        0.950        0.104      127.146       16.223        0.016      344.962       22.154      864.850
08/29/2013  22:48:00      109.665       28.924       17.857       44.382       28.279       28.759     1969.781      799.718      827.079        0.839        0.180      113.415       22.100        0.038      345.326       22.776      864.838
08/29/2013  22:49:00       87.692       14.145       23.558       52.182       38.765       34.908     2722.936     1502.719     1218.575        0.694        0.272       88.826       23.680        0.071      345.181       22.528      864.832
08/29/2013  22:50:00       24.994       10.336       31.156       30.225       22.297       17.658      913.542      497.139      311.804        0.171        0.086       27.047       15.299        0.320      344.981       22.185      864.835
08/29/2013  22:51:00       -0.971      -13.378        2.705       43.985       34.713       20.189     1934.681     1204.979      407.584        0.187        0.177       13.414       21.103        2.475      345.001       22.220      864.850
08/29/2013  22:52:00     -137.860      -11.049      -15.665       34.666       30.912       26.604     1201.738      955.567      707.785        1.112        0.143      138.302       20.399        0.022      344.615       21.561      864.847
08/29/2013  22:53:00     -121.927      -24.918       -3.271       30.170       26.973       19.547      910.253      727.517      382.079        0.876        0.101      124.448       13.571        0.012      344.622       21.572      864.845
08/29/2013  22:54:00      -99.166      -20.941      -16.987       22.524       18.945       12.931      507.309      358.898      167.219        0.580        0.052      101.353        7.112        0.005      344.967       22.162      864.846
08/29/2013  22:55:00      -39.446      -21.315       -8.702       22.617       17.905       11.370      511.525      320.600      129.266        0.152        0.048       44.837       10.912        0.059      344.899       22.045      864.846
08/29/2013  22:56:00       -8.585        3.771        1.770       20.908        5.974        5.991      437.149       35.690       35.888        0.030        0.025        9.377        9.859        1.106      345.077       22.350      864.854
08/29/2013  22:57:00       26.712      -14.389       -2.937       10.214        9.906        7.779      104.331       98.137       60.507        0.060        0.013       30.341        6.828        0.051      345.043       22.291      864.863
08/29/2013  22:58:00       11.866        0.615        2.226        9.193       10.269        5.231       84.517      105.443       27.368        0.018        0.011       11.882        5.497        0.214      345.113       22.410      864.866
08/29/2013  22:59:00       26.718       13.360        8.783       11.001       10.179        8.823      121.031      103.607       77.840        0.064        0.015       29.872        2.912        0.010      345.015       22.245      864.879
08/29/2013  23:00:00       13.037       -0.665        1.622        5.231        4.732        4.115       27.367       22.389       16.931        0.012        0.003       13.054        2.855        0.048      344.999       22.215      864.884
08/29/2013  23:01:00       21.903       -1.102        1.999       10.750        6.237        5.932      115.555       38.905       35.191        0.034        0.009       21.931        2.316        0.011      345.170       22.509      864.884
08/29/2013  23:02:00       28.542       10.843       10.565       15.550       11.335        8.613      241.810      128.471       74.177        0.074        0.022       30.532        6.788        0.049      345.057       22.316      864.875
08/29/2013  23:03:00       34.383       25.427       23.206       22.525       19.431       11.161      507.375      377.548      124.573        0.169        0.050       42.764        6.230        0.021      345.111       22.406      864.879
08/29/2013  23:04:00       -6.596      -15.068       16.104       10.714       19.050        9.461      114.790      362.908       89.505        0.055        0.028       16.448        8.466        0.265      344.982       22.187      864.883
08/29/2013  23:05:00      -26.837      -28.324        3.461       18.015       10.045       13.155      324.552      100.912      173.058        0.107        0.030       39.019        9.717        0.062      344.778       21.840      864.892
08/29/2013  23:06:00      -50.030      -22.794      -12.724       11.208        6.978        7.071      125.621       48.692       50.000        0.170        0.011       54.978        2.014        0.001      344.464       21.300      864.905
08/29/2013  23:07:00      -48.453      -26.402       -9.208       13.397       11.127        7.802      179.471      123.809       60.868        0.175        0.018       55.179        4.774        0.007      344.409       21.206      864.915
08/29/2013  23:08:00      -47.584      -13.451      -10.333        7.245       10.064        4.938       52.496      101.276       24.386        0.137        0.009       49.449        4.109        0.007      344.459       21.292      864.935
08/29/2013  23:09:00      -63.123      -15.845      -10.517       11.055       10.399        7.005      122.205      108.138       49.065        0.231        0.014       65.081        5.099        0.006      344.526       21.408      864.951
08/29/2013  23:10:00      -74.154      -27.973      -12.325       20.916       14.083       11.963      437.489      198.342      143.102        0.361        0.039       79.255       12.535        0.025      344.548       21.446      864.960
08/29/2013  23:11:00      -45.080      -38.994       -6.296       30.329       17.175       11.208      919.834      294.989      125.615        0.247        0.067       59.605       12.067        0.041      344.484       21.336      864.968
08/29/2013  23:12:00      -27.888      -32.676       -4.860       14.371       13.690        7.133      206.539      187.405       50.876        0.116        0.022       42.958        6.967        0.026      344.822       21.912      864.986
08/29/2013  23:13:00       -7.971      -20.935       -0.935       18.745       10.944       11.554      351.365      119.775      133.503        0.055        0.030       22.401        5.389        0.058      344.663       21.640      864.989
08/29/2013  23:14:00       17.108      -16.554       -2.152        6.524       16.653       13.076       42.568      277.329      170.994        0.053        0.025       23.806       13.839        0.338      344.666       21.646      864.983
08/29/2013  23:15:00       28.962       -8.250        1.661        9.059        9.230        6.327       82.071       85.198       40.036        0.056        0.010       30.114        5.123        0.029      344.712       21.727      864.987
08/29/2013  23:16:00       36.837      -35.222       -2.498       11.572       10.248        8.818      133.915      105.013       77.764        0.146        0.016       50.966        7.264        0.020      344.731       21.757      864.989
08/29/2013  23:17:00       30.411      -41.180       -0.850       17.410       18.249       10.739      303.118      333.037      115.319        0.169        0.038       51.192       11.721        0.052      344.635       21.595      864.998
08/29/2013  23:18:00        2.290        7.533       18.070       10.890       14.154       15.864      118.599      200.325      251.677        0.048        0.029        7.873       13.484        2.933      344.252       20.937      865.001
08/29/2013  23:19:00       -2.852       11.903       25.664       11.442       16.895        9.144      130.925      285.431       83.608        0.065        0.025       12.240        9.217        0.567      344.173       20.803      865.007
08/29/2013  23:20:00      -10.558      -23.604        2.352       19.734       12.247       13.530      389.443      149.985      183.074        0.070        0.036       25.857       10.130        0.153      344.227       20.895      865.016
08/29/2013  23:21:00      -57.323      -30.497       -6.736       10.011        8.093        8.047      100.228       65.504       64.759        0.225        0.012       64.930        5.658        0.008      344.139       20.747      865.029
08/29/2013  23:22:00      -66.200      -23.236       -5.788       16.319        9.026        8.908      266.319       81.474       79.355        0.269        0.021       70.160        8.110        0.013      344.044       20.582      865.036
08/29/2013  23:23:00      -30.425      -30.222       -2.791       17.448       10.832        7.788      304.441      117.328       60.650        0.116        0.024       42.884        8.383        0.038      343.981       20.476      865.040
08/29/2013  23:24:00      -56.934      -29.558      -12.430        8.433       13.364        7.475       71.116      178.591       55.882        0.229        0.015       64.150        4.751        0.005      344.151       20.766      865.045
08/29/2013  23:25:00      -54.074       -1.272       -6.040       11.203        7.547        6.170      125.511       56.963       38.071        0.159        0.011       54.089        4.820        0.008      344.233       20.906      865.055
08/29/2013  23:26:00      -48.818      -12.661      -12.279        7.810       11.037        5.611       60.988      121.811       31.488        0.145        0.011       50.434        3.284        0.004      343.969       20.457      865.066
08/29/2013  23:27:00      -30.922      -13.478       -6.891       21.189       17.283       10.044      448.989      298.699      100.883        0.102        0.042       33.731        4.513        0.018      343.969       20.456      865.083
08/29/2013  23:28:00       -6.051      -41.389       -6.267       13.658       13.270        9.775      186.551      176.084       95.547        0.112        0.023       41.829        6.134        0.022      344.130       20.731      865.093
08/29/2013  23:29:00      -52.662      -32.795       -9.000       20.270       14.521        8.899      410.891      210.866       79.191        0.232        0.035       62.039        9.278        0.022      344.032       20.562      865.099
08/29/2013  23:30:00     -105.348      -27.056      -15.714       12.464       12.300        9.540      155.362      151.291       91.003        0.624        0.020      108.767        6.607        0.004      343.700       19.995      865.079
08/29/2013  23:31:00      -94.247      -15.990       -8.827       22.074       15.439       11.077      487.243      238.369      122.698        0.503        0.042       95.594       10.532        0.012      343.576       19.785      865.079
08/29/2013  23:32:00      -79.764        5.544       -2.886       21.985       18.895       10.252      483.355      357.023      105.105        0.367        0.047       79.957        6.039        0.006      343.942       20.409      865.097
08/29/2013  23:33:00      -53.664       -9.602      -10.838        7.834        8.824        7.853       61.375       77.868       61.663        0.165        0.010       54.516        3.007        0.003      343.982       20.478      865.109
08/29/2013  23:34:00      -68.147       -5.882      -14.774        6.097        7.703        7.321       37.178       59.333       53.593        0.252        0.008       68.400        2.458        0.001      343.987       20.486      865.112
08/29/2013  23:35:00      -60.684      -21.262      -11.209        7.743       13.776        7.880       59.955      189.777       62.093        0.229        0.016       64.301        4.446        0.005      343.927       20.385      865.130
08/29/2013  23:36:00      -81.914       -3.136      -13.541       10.204       11.184        9.874      104.122      125.075       97.500        0.361        0.016       81.974        6.042        0.005      343.833       20.224      865.128
08/29/2013  23:37:00      -87.301      -15.197      -13.713       12.157       12.639        8.823      147.782      159.743       77.852        0.421        0.019       88.614        5.892        0.004      343.711       20.014      865.124
08/29/2013  23:38:00      -72.091      -24.742      -10.049       48.542       30.251       20.500     2356.298      915.142      420.268        0.480        0.185       76.219       13.458        0.031      343.547       19.734      865.144
08/29/2013  23:39:00      -80.995        3.609        4.526       73.885       44.397       34.158     5458.977     1971.081     1166.740        0.759        0.430       81.075       35.911        0.196      343.454       19.577      865.151
08/29/2013  23:40:00     -164.150      -27.565       -4.268       51.524       34.988       26.668     2654.755     1224.175      711.193        1.616        0.230      166.448       24.768        0.022      343.520       19.688      865.159
08/29/2013  23:41:00     -143.591      -61.884      -18.458       28.592       32.733       20.275      817.504     1071.458      411.070        1.354        0.115      156.358       13.081        0.007      343.636       19.887      865.172
08/29/2013  23:42:00     -109.161      -20.133      -17.028       44.800       35.423       24.020     2007.080     1254.787      576.976        0.822        0.192      111.002       27.205        0.060      343.542       19.727      865.179
08/29/2013  23:43:00     -110.085        5.188       -9.254       43.243       39.694       23.174     1869.947     1575.628      537.023        0.811        0.199      110.207       21.281        0.037      343.494       19.643      865.182
08/29/2013  23:44:00     -141.752       14.629      -14.720       32.584       27.735       13.179     1061.726      769.254      173.675        1.126        0.100      142.505        6.784        0.002      343.522       19.693      865.190
08/29/2013  23:45:00      -83.183      -17.135       -8.428       38.124       36.277       27.758     1453.422     1316.002      770.529        0.541        0.177       84.929       26.589        0.098      343.498       19.652      865.192
08/29/2013  23:46:00     -121.449      -11.358      -20.894       37.586       38.880       17.524     1412.679     1511.692      307.083        0.927        0.162      121.979       12.897        0.011      343.494       19.645      865.199
08/29/2013  23:47:00      -71.698        8.664       -9.798       52.378       49.060       26.989     2743.468     2406.902      728.429        0.559        0.294       72.220       22.137        0.094      343.478       19.618      865.203
08/29/2013  23:48:00     -110.145        9.453      -18.792       59.451       37.402       26.353     3534.412     1398.882      694.499        0.910        0.281      110.549       18.821        0.029      343.586       19.801      865.206
08/29/2013  23:49:00     -103.240       12.475      -12.309       50.646       32.556       25.490     2565.001     1059.915      649.737        0.762        0.214      103.991       23.902        0.053      343.571       19.776      865.215
08/29/2013  23:50:00      -83.821       -6.316       -9.699       31.199       35.201       24.653      973.363     1239.115      607.750        0.499        0.141       84.059       15.618        0.035      343.417       19.514      865.205
08/29/2013  23:51:00     -122.688       21.172      -17.731       57.867       40.881       24.283     3348.571     1671.262      589.658        1.071        0.280      124.502       19.081        0.023      343.446       19.564      865.216
08/29/2013  23:52:00     -172.516      -18.421      -17.268       27.345       37.773       19.184      747.747     1426.798      368.021        1.647        0.127      173.497       15.561        0.008      343.393       19.472      865.233
08/29/2013  23:53:00     -127.824       -5.744       -6.368       55.112       41.519       25.932     3037.346     1723.865      672.472        1.092        0.272      127.953       20.931        0.027      343.406       19.495      865.245
08/29/2013  23:54:00     -129.839      -14.417      -10.164       58.977       30.518       22.275     3478.340      931.375      496.194        1.104        0.245      130.637       28.047        0.046      343.392       19.470      865.258
08/29/2013  23:55:00     -127.453      -19.971      -10.187       32.707       25.765       16.077     1069.722      663.832      258.475        0.937        0.100      129.008       13.047        0.010      343.465       19.596      865.263
08/29/2013  23:56:00     -113.968      -41.050       -3.333       42.942       35.446       18.413     1844.055     1256.388      339.054        0.906        0.172      121.135       15.324        0.016      343.370       19.434      865.265
08/29/2013  23:57:00      -62.839      -29.615        4.665       48.468       37.573       21.658     2349.105     1411.735      469.050        0.454        0.211       69.468       22.849        0.108      343.364       19.423      865.280
08/29/2013  23:58:00      -82.487      -27.337       -1.257       47.410       32.130       23.656     2247.720     1032.335      559.619        0.570        0.192       86.899       25.227        0.084      343.408       19.498      865.278
08/29/2013  23:59:00      -76.822      -12.310       -6.364       29.701       26.878       16.863      882.147      722.426      284.350        0.399        0.094       77.802       16.817        0.047      343.389       19.467      865.285
